<?xml version="1.0" encoding="UTF-8" standalone="no" ?>
<gpx xmlns="http://www.topografix.com/GPX/1/1" xmlns:xsi="http://www.w3.org/2001/XMLSchema-instance" xsi:schemaLocation="http://www.topografix.com/GPX/1/1 http://www.topografix.com/GPX/1/1/gpx.xsd" version="1.1" creator="VisuGPX - https://www.visugpx.com">
  <metadata>
    <name>3 chevaux, un vélo</name>
    <desc><![CDATA[Vu que les chemins en forêt sont encore très gadoueux, et que le sable n\'est pas top pour le vélo, une balade avec route et piste de galop...]]></desc>
  </metadata>
  <trk>
    <name><![CDATA[Saint-Léger-en-Yvelines Autre]]></name>
    <trkseg>
      <trkpt lat="48.70769" lon="1.75842">
        <ele>173</ele>
        <time>2015-03-06T09:17:31.000Z</time>
      </trkpt>
      <trkpt lat="48.70769" lon="1.7584">
        <ele>173</ele>
        <time>2015-03-06T09:17:32.000Z</time>
      </trkpt>
      <trkpt lat="48.70766" lon="1.75833">
        <ele>173</ele>
        <time>2015-03-06T09:17:36.000Z</time>
      </trkpt>
      <trkpt lat="48.70756" lon="1.75824">
        <ele>172.80000305176</ele>
        <time>2015-03-06T09:17:45.000Z</time>
      </trkpt>
      <trkpt lat="48.70751" lon="1.75815">
        <ele>173</ele>
        <time>2015-03-06T09:17:50.000Z</time>
      </trkpt>
      <trkpt lat="48.70747" lon="1.75805">
        <ele>173.19999694824</ele>
        <time>2015-03-06T09:17:56.000Z</time>
      </trkpt>
      <trkpt lat="48.70742" lon="1.75795">
        <ele>173.19999694824</ele>
        <time>2015-03-06T09:18:02.000Z</time>
      </trkpt>
      <trkpt lat="48.70739" lon="1.75789">
        <ele>173.39999389648</ele>
        <time>2015-03-06T09:18:06.000Z</time>
      </trkpt>
      <trkpt lat="48.70739" lon="1.75788">
        <ele>173.39999389648</ele>
        <time>2015-03-06T09:18:08.000Z</time>
      </trkpt>
      <trkpt lat="48.70735" lon="1.75779">
        <ele>173.60000610352</ele>
        <time>2015-03-06T09:18:13.000Z</time>
      </trkpt>
      <trkpt lat="48.7073" lon="1.75769">
        <ele>173.60000610352</ele>
        <time>2015-03-06T09:18:20.000Z</time>
      </trkpt>
      <trkpt lat="48.70723" lon="1.75757">
        <ele>173.80000305176</ele>
        <time>2015-03-06T09:18:28.000Z</time>
      </trkpt>
      <trkpt lat="48.70716" lon="1.75749">
        <ele>173.80000305176</ele>
        <time>2015-03-06T09:18:34.000Z</time>
      </trkpt>
      <trkpt lat="48.70711" lon="1.75743">
        <ele>174</ele>
        <time>2015-03-06T09:18:39.000Z</time>
      </trkpt>
      <trkpt lat="48.70703" lon="1.75733">
        <ele>174</ele>
        <time>2015-03-06T09:18:46.000Z</time>
      </trkpt>
      <trkpt lat="48.70696" lon="1.75726">
        <ele>174.19999694824</ele>
        <time>2015-03-06T09:18:52.000Z</time>
      </trkpt>
      <trkpt lat="48.70688" lon="1.75718">
        <ele>174.19999694824</ele>
        <time>2015-03-06T09:18:59.000Z</time>
      </trkpt>
      <trkpt lat="48.70682" lon="1.75711">
        <ele>175</ele>
        <time>2015-03-06T09:19:05.000Z</time>
      </trkpt>
      <trkpt lat="48.70676" lon="1.75703">
        <ele>175.80000305176</ele>
        <time>2015-03-06T09:19:11.000Z</time>
      </trkpt>
      <trkpt lat="48.70674" lon="1.757">
        <ele>176</ele>
        <time>2015-03-06T09:19:14.000Z</time>
      </trkpt>
      <trkpt lat="48.70672" lon="1.75699">
        <ele>176.19999694824</ele>
        <time>2015-03-06T09:19:17.000Z</time>
      </trkpt>
      <trkpt lat="48.70668" lon="1.75693">
        <ele>176.80000305176</ele>
        <time>2015-03-06T09:19:21.000Z</time>
      </trkpt>
      <trkpt lat="48.70664" lon="1.75687">
        <ele>177.39999389648</ele>
        <time>2015-03-06T09:19:26.000Z</time>
      </trkpt>
      <trkpt lat="48.70658" lon="1.75682">
        <ele>178.19999694824</ele>
        <time>2015-03-06T09:19:32.000Z</time>
      </trkpt>
      <trkpt lat="48.70648" lon="1.75676">
        <ele>179.39999389648</ele>
        <time>2015-03-06T09:19:38.000Z</time>
      </trkpt>
      <trkpt lat="48.70645" lon="1.7567">
        <ele>179.80000305176</ele>
        <time>2015-03-06T09:19:42.000Z</time>
      </trkpt>
      <trkpt lat="48.70643" lon="1.75668">
        <ele>180.19999694824</ele>
        <time>2015-03-06T09:19:46.000Z</time>
      </trkpt>
      <trkpt lat="48.70643" lon="1.75667">
        <ele>180.19999694824</ele>
        <time>2015-03-06T09:19:49.000Z</time>
      </trkpt>
      <trkpt lat="48.7064" lon="1.75661">
        <ele>180.39999389648</ele>
        <time>2015-03-06T09:20:03.000Z</time>
      </trkpt>
      <trkpt lat="48.70637" lon="1.75662">
        <ele>181</ele>
        <time>2015-03-06T09:20:06.000Z</time>
      </trkpt>
      <trkpt lat="48.70635" lon="1.75661">
        <ele>181.19999694824</ele>
        <time>2015-03-06T09:20:10.000Z</time>
      </trkpt>
      <trkpt lat="48.70629" lon="1.7565">
        <ele>181.80000305176</ele>
        <time>2015-03-06T09:20:40.000Z</time>
      </trkpt>
      <trkpt lat="48.70624" lon="1.75648">
        <ele>182.39999389648</ele>
        <time>2015-03-06T09:20:43.000Z</time>
      </trkpt>
      <trkpt lat="48.70617" lon="1.75641">
        <ele>183</ele>
        <time>2015-03-06T09:20:50.000Z</time>
      </trkpt>
      <trkpt lat="48.70613" lon="1.75634">
        <ele>183.39999389648</ele>
        <time>2015-03-06T09:20:55.000Z</time>
      </trkpt>
      <trkpt lat="48.70607" lon="1.75626">
        <ele>183.80000305176</ele>
        <time>2015-03-06T09:21:00.000Z</time>
      </trkpt>
      <trkpt lat="48.70597" lon="1.75613">
        <ele>184.19999694824</ele>
        <time>2015-03-06T09:21:07.000Z</time>
      </trkpt>
      <trkpt lat="48.70594" lon="1.75609">
        <ele>184.19999694824</ele>
        <time>2015-03-06T09:21:11.000Z</time>
      </trkpt>
      <trkpt lat="48.70586" lon="1.75595">
        <ele>184</ele>
        <time>2015-03-06T09:21:18.000Z</time>
      </trkpt>
      <trkpt lat="48.70584" lon="1.75592">
        <ele>184</ele>
        <time>2015-03-06T09:21:22.000Z</time>
      </trkpt>
      <trkpt lat="48.70579" lon="1.75591">
        <ele>184</ele>
        <time>2015-03-06T09:21:26.000Z</time>
      </trkpt>
      <trkpt lat="48.70575" lon="1.75583">
        <ele>184</ele>
        <time>2015-03-06T09:21:31.000Z</time>
      </trkpt>
      <trkpt lat="48.70572" lon="1.75583">
        <ele>184</ele>
        <time>2015-03-06T09:21:33.000Z</time>
      </trkpt>
      <trkpt lat="48.70569" lon="1.75579">
        <ele>184</ele>
        <time>2015-03-06T09:21:39.000Z</time>
      </trkpt>
      <trkpt lat="48.70569" lon="1.75578">
        <ele>184</ele>
        <time>2015-03-06T09:21:41.000Z</time>
      </trkpt>
      <trkpt lat="48.70564" lon="1.75571">
        <ele>184</ele>
        <time>2015-03-06T09:21:57.000Z</time>
      </trkpt>
      <trkpt lat="48.70563" lon="1.7557">
        <ele>184</ele>
        <time>2015-03-06T09:21:58.000Z</time>
      </trkpt>
      <trkpt lat="48.70558" lon="1.75566">
        <ele>183.80000305176</ele>
        <time>2015-03-06T09:22:02.000Z</time>
      </trkpt>
      <trkpt lat="48.70553" lon="1.75562">
        <ele>183.80000305176</ele>
        <time>2015-03-06T09:22:06.000Z</time>
      </trkpt>
      <trkpt lat="48.70547" lon="1.75556">
        <ele>183.60000610352</ele>
        <time>2015-03-06T09:22:12.000Z</time>
      </trkpt>
      <trkpt lat="48.7054" lon="1.7555">
        <ele>183.39999389648</ele>
        <time>2015-03-06T09:22:19.000Z</time>
      </trkpt>
      <trkpt lat="48.70534" lon="1.75544">
        <ele>183.39999389648</ele>
        <time>2015-03-06T09:22:25.000Z</time>
      </trkpt>
      <trkpt lat="48.70531" lon="1.75537">
        <ele>183.19999694824</ele>
        <time>2015-03-06T09:22:30.000Z</time>
      </trkpt>
      <trkpt lat="48.70525" lon="1.75533">
        <ele>183</ele>
        <time>2015-03-06T09:22:35.000Z</time>
      </trkpt>
      <trkpt lat="48.70518" lon="1.75527">
        <ele>183</ele>
        <time>2015-03-06T09:22:41.000Z</time>
      </trkpt>
      <trkpt lat="48.70515" lon="1.75522">
        <ele>182.80000305176</ele>
        <time>2015-03-06T09:22:45.000Z</time>
      </trkpt>
      <trkpt lat="48.70509" lon="1.75515">
        <ele>182.80000305176</ele>
        <time>2015-03-06T09:22:49.000Z</time>
      </trkpt>
      <trkpt lat="48.70508" lon="1.75514">
        <ele>182.80000305176</ele>
        <time>2015-03-06T09:22:50.000Z</time>
      </trkpt>
      <trkpt lat="48.70501" lon="1.75507">
        <ele>182.60000610352</ele>
        <time>2015-03-06T09:22:56.000Z</time>
      </trkpt>
      <trkpt lat="48.70498" lon="1.75502">
        <ele>182.60000610352</ele>
        <time>2015-03-06T09:23:00.000Z</time>
      </trkpt>
      <trkpt lat="48.70494" lon="1.75497">
        <ele>182.39999389648</ele>
        <time>2015-03-06T09:23:05.000Z</time>
      </trkpt>
      <trkpt lat="48.70486" lon="1.75488">
        <ele>182.19999694824</ele>
        <time>2015-03-06T09:23:13.000Z</time>
      </trkpt>
      <trkpt lat="48.70478" lon="1.75479">
        <ele>182.39999389648</ele>
        <time>2015-03-06T09:23:20.000Z</time>
      </trkpt>
      <trkpt lat="48.70474" lon="1.75472">
        <ele>182.19999694824</ele>
        <time>2015-03-06T09:23:25.000Z</time>
      </trkpt>
      <trkpt lat="48.70473" lon="1.75473">
        <ele>182.39999389648</ele>
        <time>2015-03-06T09:23:27.000Z</time>
      </trkpt>
      <trkpt lat="48.70465" lon="1.75465">
        <ele>182.39999389648</ele>
        <time>2015-03-06T09:23:33.000Z</time>
      </trkpt>
      <trkpt lat="48.70463" lon="1.75464">
        <ele>182.39999389648</ele>
        <time>2015-03-06T09:23:34.000Z</time>
      </trkpt>
      <trkpt lat="48.70458" lon="1.75458">
        <ele>182.60000610352</ele>
        <time>2015-03-06T09:23:40.000Z</time>
      </trkpt>
      <trkpt lat="48.70453" lon="1.75456">
        <ele>182.60000610352</ele>
        <time>2015-03-06T09:23:44.000Z</time>
      </trkpt>
      <trkpt lat="48.70449" lon="1.75453">
        <ele>182.80000305176</ele>
        <time>2015-03-06T09:23:48.000Z</time>
      </trkpt>
      <trkpt lat="48.70447" lon="1.75452">
        <ele>182.80000305176</ele>
        <time>2015-03-06T09:23:49.000Z</time>
      </trkpt>
      <trkpt lat="48.7044" lon="1.7545">
        <ele>183</ele>
        <time>2015-03-06T09:23:55.000Z</time>
      </trkpt>
      <trkpt lat="48.70439" lon="1.7545">
        <ele>183</ele>
        <time>2015-03-06T09:23:56.000Z</time>
      </trkpt>
      <trkpt lat="48.70435" lon="1.75448">
        <ele>183</ele>
        <time>2015-03-06T09:24:02.000Z</time>
      </trkpt>
      <trkpt lat="48.70433" lon="1.75443">
        <ele>182.80000305176</ele>
        <time>2015-03-06T09:24:06.000Z</time>
      </trkpt>
      <trkpt lat="48.7043" lon="1.75435">
        <ele>182.60000610352</ele>
        <time>2015-03-06T09:24:12.000Z</time>
      </trkpt>
      <trkpt lat="48.70426" lon="1.7543">
        <ele>182.39999389648</ele>
        <time>2015-03-06T09:24:18.000Z</time>
      </trkpt>
      <trkpt lat="48.70422" lon="1.75426">
        <ele>182.39999389648</ele>
        <time>2015-03-06T09:24:22.000Z</time>
      </trkpt>
      <trkpt lat="48.70418" lon="1.75421">
        <ele>182.19999694824</ele>
        <time>2015-03-06T09:24:27.000Z</time>
      </trkpt>
      <trkpt lat="48.70408" lon="1.75416">
        <ele>182</ele>
        <time>2015-03-06T09:24:35.000Z</time>
      </trkpt>
      <trkpt lat="48.704" lon="1.75413">
        <ele>181.80000305176</ele>
        <time>2015-03-06T09:24:41.000Z</time>
      </trkpt>
      <trkpt lat="48.70397" lon="1.75407">
        <ele>181.60000610352</ele>
        <time>2015-03-06T09:24:47.000Z</time>
      </trkpt>
      <trkpt lat="48.70396" lon="1.75407">
        <ele>181.60000610352</ele>
        <time>2015-03-06T09:24:48.000Z</time>
      </trkpt>
      <trkpt lat="48.70393" lon="1.75408">
        <ele>181.60000610352</ele>
        <time>2015-03-06T09:24:52.000Z</time>
      </trkpt>
      <trkpt lat="48.70385" lon="1.75412">
        <ele>181.60000610352</ele>
        <time>2015-03-06T09:24:56.000Z</time>
      </trkpt>
      <trkpt lat="48.70371" lon="1.75406">
        <ele>181.19999694824</ele>
        <time>2015-03-06T09:25:06.000Z</time>
      </trkpt>
      <trkpt lat="48.70367" lon="1.75406">
        <ele>181.19999694824</ele>
        <time>2015-03-06T09:25:08.000Z</time>
      </trkpt>
      <trkpt lat="48.70361" lon="1.75399">
        <ele>181</ele>
        <time>2015-03-06T09:25:13.000Z</time>
      </trkpt>
      <trkpt lat="48.70353" lon="1.75392">
        <ele>181</ele>
        <time>2015-03-06T09:25:19.000Z</time>
      </trkpt>
      <trkpt lat="48.70347" lon="1.75383">
        <ele>180.80000305176</ele>
        <time>2015-03-06T09:25:26.000Z</time>
      </trkpt>
      <trkpt lat="48.70345" lon="1.7538">
        <ele>180.80000305176</ele>
        <time>2015-03-06T09:25:30.000Z</time>
      </trkpt>
      <trkpt lat="48.70341" lon="1.75378">
        <ele>180.80000305176</ele>
        <time>2015-03-06T09:25:38.000Z</time>
      </trkpt>
      <trkpt lat="48.70339" lon="1.75374">
        <ele>180.60000610352</ele>
        <time>2015-03-06T09:25:42.000Z</time>
      </trkpt>
      <trkpt lat="48.70332" lon="1.75367">
        <ele>180.39999389648</ele>
        <time>2015-03-06T09:25:49.000Z</time>
      </trkpt>
      <trkpt lat="48.70326" lon="1.75363">
        <ele>180.39999389648</ele>
        <time>2015-03-06T09:25:54.000Z</time>
      </trkpt>
      <trkpt lat="48.7032" lon="1.75357">
        <ele>180.19999694824</ele>
        <time>2015-03-06T09:25:58.000Z</time>
      </trkpt>
      <trkpt lat="48.70317" lon="1.7535">
        <ele>180.19999694824</ele>
        <time>2015-03-06T09:26:03.000Z</time>
      </trkpt>
      <trkpt lat="48.70313" lon="1.75345">
        <ele>180</ele>
        <time>2015-03-06T09:26:07.000Z</time>
      </trkpt>
      <trkpt lat="48.70308" lon="1.75339">
        <ele>180</ele>
        <time>2015-03-06T09:26:12.000Z</time>
      </trkpt>
      <trkpt lat="48.70306" lon="1.75335">
        <ele>179.80000305176</ele>
        <time>2015-03-06T09:26:15.000Z</time>
      </trkpt>
      <trkpt lat="48.703" lon="1.7533">
        <ele>179.80000305176</ele>
        <time>2015-03-06T09:26:20.000Z</time>
      </trkpt>
      <trkpt lat="48.703" lon="1.75323">
        <ele>179.80000305176</ele>
        <time>2015-03-06T09:26:24.000Z</time>
      </trkpt>
      <trkpt lat="48.70304" lon="1.75325">
        <ele>179.80000305176</ele>
        <time>2015-03-06T09:26:29.000Z</time>
      </trkpt>
      <trkpt lat="48.70303" lon="1.75327">
        <ele>179.80000305176</ele>
        <time>2015-03-06T09:26:34.000Z</time>
      </trkpt>
      <trkpt lat="48.70302" lon="1.75309">
        <ele>180</ele>
        <time>2015-03-06T09:27:04.000Z</time>
      </trkpt>
      <trkpt lat="48.70298" lon="1.75303">
        <ele>179.80000305176</ele>
        <time>2015-03-06T09:27:07.000Z</time>
      </trkpt>
      <trkpt lat="48.70297" lon="1.753">
        <ele>179.80000305176</ele>
        <time>2015-03-06T09:27:08.000Z</time>
      </trkpt>
      <trkpt lat="48.70292" lon="1.75293">
        <ele>179.80000305176</ele>
        <time>2015-03-06T09:27:13.000Z</time>
      </trkpt>
      <trkpt lat="48.70289" lon="1.75292">
        <ele>179.80000305176</ele>
        <time>2015-03-06T09:27:15.000Z</time>
      </trkpt>
      <trkpt lat="48.70278" lon="1.75286">
        <ele>179.60000610352</ele>
        <time>2015-03-06T09:27:22.000Z</time>
      </trkpt>
      <trkpt lat="48.7027" lon="1.7528">
        <ele>179.39999389648</ele>
        <time>2015-03-06T09:27:27.000Z</time>
      </trkpt>
      <trkpt lat="48.70261" lon="1.75273">
        <ele>179.19999694824</ele>
        <time>2015-03-06T09:27:34.000Z</time>
      </trkpt>
      <trkpt lat="48.70254" lon="1.75267">
        <ele>178.80000305176</ele>
        <time>2015-03-06T09:27:39.000Z</time>
      </trkpt>
      <trkpt lat="48.70248" lon="1.75258">
        <ele>178.60000610352</ele>
        <time>2015-03-06T09:27:45.000Z</time>
      </trkpt>
      <trkpt lat="48.70234" lon="1.75251">
        <ele>178.19999694824</ele>
        <time>2015-03-06T09:27:53.000Z</time>
      </trkpt>
      <trkpt lat="48.70229" lon="1.75251">
        <ele>177.80000305176</ele>
        <time>2015-03-06T09:27:56.000Z</time>
      </trkpt>
      <trkpt lat="48.70219" lon="1.75246">
        <ele>177.39999389648</ele>
        <time>2015-03-06T09:28:03.000Z</time>
      </trkpt>
      <trkpt lat="48.70212" lon="1.75245">
        <ele>177.19999694824</ele>
        <time>2015-03-06T09:28:08.000Z</time>
      </trkpt>
      <trkpt lat="48.70203" lon="1.75246">
        <ele>176.60000610352</ele>
        <time>2015-03-06T09:28:14.000Z</time>
      </trkpt>
      <trkpt lat="48.70195" lon="1.75251">
        <ele>176.19999694824</ele>
        <time>2015-03-06T09:28:19.000Z</time>
      </trkpt>
      <trkpt lat="48.70185" lon="1.75256">
        <ele>176</ele>
        <time>2015-03-06T09:28:25.000Z</time>
      </trkpt>
      <trkpt lat="48.70183" lon="1.75255">
        <ele>176</ele>
        <time>2015-03-06T09:28:27.000Z</time>
      </trkpt>
      <trkpt lat="48.7018" lon="1.75255">
        <ele>176</ele>
        <time>2015-03-06T09:28:29.000Z</time>
      </trkpt>
      <trkpt lat="48.7017" lon="1.75259">
        <ele>175.80000305176</ele>
        <time>2015-03-06T09:28:36.000Z</time>
      </trkpt>
      <trkpt lat="48.70162" lon="1.75266">
        <ele>175.80000305176</ele>
        <time>2015-03-06T09:28:42.000Z</time>
      </trkpt>
      <trkpt lat="48.70161" lon="1.75267">
        <ele>175.60000610352</ele>
        <time>2015-03-06T09:28:43.000Z</time>
      </trkpt>
      <trkpt lat="48.70153" lon="1.75264">
        <ele>175.60000610352</ele>
        <time>2015-03-06T09:28:49.000Z</time>
      </trkpt>
      <trkpt lat="48.70152" lon="1.7526">
        <ele>175.60000610352</ele>
        <time>2015-03-06T09:28:51.000Z</time>
      </trkpt>
      <trkpt lat="48.7015" lon="1.75248">
        <ele>175.60000610352</ele>
        <time>2015-03-06T09:28:56.000Z</time>
      </trkpt>
      <trkpt lat="48.70147" lon="1.75228">
        <ele>175.60000610352</ele>
        <time>2015-03-06T09:29:03.000Z</time>
      </trkpt>
      <trkpt lat="48.70142" lon="1.7521">
        <ele>175.39999389648</ele>
        <time>2015-03-06T09:29:10.000Z</time>
      </trkpt>
      <trkpt lat="48.70138" lon="1.75188">
        <ele>175.39999389648</ele>
        <time>2015-03-06T09:29:18.000Z</time>
      </trkpt>
      <trkpt lat="48.70136" lon="1.75173">
        <ele>175.39999389648</ele>
        <time>2015-03-06T09:29:24.000Z</time>
      </trkpt>
      <trkpt lat="48.70133" lon="1.75159">
        <ele>175.39999389648</ele>
        <time>2015-03-06T09:29:30.000Z</time>
      </trkpt>
      <trkpt lat="48.70128" lon="1.75148">
        <ele>175</ele>
        <time>2015-03-06T09:29:36.000Z</time>
      </trkpt>
      <trkpt lat="48.70127" lon="1.75144">
        <ele>174.80000305176</ele>
        <time>2015-03-06T09:29:38.000Z</time>
      </trkpt>
      <trkpt lat="48.70122" lon="1.75124">
        <ele>173.80000305176</ele>
        <time>2015-03-06T09:29:46.000Z</time>
      </trkpt>
      <trkpt lat="48.70117" lon="1.75104">
        <ele>172.80000305176</ele>
        <time>2015-03-06T09:29:54.000Z</time>
      </trkpt>
      <trkpt lat="48.70114" lon="1.7509">
        <ele>172</ele>
        <time>2015-03-06T09:30:00.000Z</time>
      </trkpt>
      <trkpt lat="48.7011" lon="1.75076">
        <ele>171.39999389648</ele>
        <time>2015-03-06T09:30:06.000Z</time>
      </trkpt>
      <trkpt lat="48.70105" lon="1.75063">
        <ele>171.19999694824</ele>
        <time>2015-03-06T09:30:12.000Z</time>
      </trkpt>
      <trkpt lat="48.70103" lon="1.75051">
        <ele>171.19999694824</ele>
        <time>2015-03-06T09:30:17.000Z</time>
      </trkpt>
      <trkpt lat="48.70099" lon="1.75037">
        <ele>171.39999389648</ele>
        <time>2015-03-06T09:30:24.000Z</time>
      </trkpt>
      <trkpt lat="48.70098" lon="1.75026">
        <ele>171.39999389648</ele>
        <time>2015-03-06T09:30:29.000Z</time>
      </trkpt>
      <trkpt lat="48.70093" lon="1.75012">
        <ele>171.39999389648</ele>
        <time>2015-03-06T09:30:36.000Z</time>
      </trkpt>
      <trkpt lat="48.7009" lon="1.74999">
        <ele>171.60000610352</ele>
        <time>2015-03-06T09:30:41.000Z</time>
      </trkpt>
      <trkpt lat="48.70089" lon="1.74994">
        <ele>171.60000610352</ele>
        <time>2015-03-06T09:30:43.000Z</time>
      </trkpt>
      <trkpt lat="48.70086" lon="1.74981">
        <ele>171.60000610352</ele>
        <time>2015-03-06T09:30:49.000Z</time>
      </trkpt>
      <trkpt lat="48.70083" lon="1.74976">
        <ele>171.60000610352</ele>
        <time>2015-03-06T09:30:55.000Z</time>
      </trkpt>
      <trkpt lat="48.70083" lon="1.74976">
        <ele>171.60000610352</ele>
        <time>2015-03-06T09:30:58.000Z</time>
      </trkpt>
      <trkpt lat="48.70083" lon="1.7496">
        <ele>171.80000305176</ele>
        <time>2015-03-06T09:31:31.000Z</time>
      </trkpt>
      <trkpt lat="48.70079" lon="1.74946">
        <ele>172</ele>
        <time>2015-03-06T09:31:36.000Z</time>
      </trkpt>
      <trkpt lat="48.70075" lon="1.74932">
        <ele>172</ele>
        <time>2015-03-06T09:31:42.000Z</time>
      </trkpt>
      <trkpt lat="48.70072" lon="1.74925">
        <ele>172</ele>
        <time>2015-03-06T09:31:46.000Z</time>
      </trkpt>
      <trkpt lat="48.70067" lon="1.74905">
        <ele>172.19999694824</ele>
        <time>2015-03-06T09:31:54.000Z</time>
      </trkpt>
      <trkpt lat="48.70064" lon="1.74886">
        <ele>172</ele>
        <time>2015-03-06T09:32:02.000Z</time>
      </trkpt>
      <trkpt lat="48.7006" lon="1.74872">
        <ele>172</ele>
        <time>2015-03-06T09:32:08.000Z</time>
      </trkpt>
      <trkpt lat="48.70057" lon="1.74856">
        <ele>172</ele>
        <time>2015-03-06T09:32:15.000Z</time>
      </trkpt>
      <trkpt lat="48.70052" lon="1.74842">
        <ele>171.80000305176</ele>
        <time>2015-03-06T09:32:22.000Z</time>
      </trkpt>
      <trkpt lat="48.70052" lon="1.7484">
        <ele>172</ele>
        <time>2015-03-06T09:32:23.000Z</time>
      </trkpt>
      <trkpt lat="48.70048" lon="1.74822">
        <ele>172</ele>
        <time>2015-03-06T09:32:31.000Z</time>
      </trkpt>
      <trkpt lat="48.70044" lon="1.7481">
        <ele>171.39999389648</ele>
        <time>2015-03-06T09:32:37.000Z</time>
      </trkpt>
      <trkpt lat="48.70043" lon="1.74802">
        <ele>171.19999694824</ele>
        <time>2015-03-06T09:32:40.000Z</time>
      </trkpt>
      <trkpt lat="48.70039" lon="1.74789">
        <ele>170.60000610352</ele>
        <time>2015-03-06T09:32:46.000Z</time>
      </trkpt>
      <trkpt lat="48.70033" lon="1.74767">
        <ele>169.60000610352</ele>
        <time>2015-03-06T09:32:56.000Z</time>
      </trkpt>
      <trkpt lat="48.70031" lon="1.74753">
        <ele>169</ele>
        <time>2015-03-06T09:33:02.000Z</time>
      </trkpt>
      <trkpt lat="48.70027" lon="1.74737">
        <ele>168.39999389648</ele>
        <time>2015-03-06T09:33:09.000Z</time>
      </trkpt>
      <trkpt lat="48.70022" lon="1.74715">
        <ele>167.80000305176</ele>
        <time>2015-03-06T09:33:18.000Z</time>
      </trkpt>
      <trkpt lat="48.70018" lon="1.74697">
        <ele>167.60000610352</ele>
        <time>2015-03-06T09:33:26.000Z</time>
      </trkpt>
      <trkpt lat="48.70013" lon="1.74678">
        <ele>167.60000610352</ele>
        <time>2015-03-06T09:33:34.000Z</time>
      </trkpt>
      <trkpt lat="48.70007" lon="1.74657">
        <ele>167.39999389648</ele>
        <time>2015-03-06T09:33:43.000Z</time>
      </trkpt>
      <trkpt lat="48.70005" lon="1.7464">
        <ele>166.39999389648</ele>
        <time>2015-03-06T09:33:50.000Z</time>
      </trkpt>
      <trkpt lat="48.69999" lon="1.74619">
        <ele>166</ele>
        <time>2015-03-06T09:33:59.000Z</time>
      </trkpt>
      <trkpt lat="48.69992" lon="1.74601">
        <ele>165.60000610352</ele>
        <time>2015-03-06T09:34:07.000Z</time>
      </trkpt>
      <trkpt lat="48.69987" lon="1.74586">
        <ele>165.39999389648</ele>
        <time>2015-03-06T09:34:14.000Z</time>
      </trkpt>
      <trkpt lat="48.69985" lon="1.74573">
        <ele>165.39999389648</ele>
        <time>2015-03-06T09:34:20.000Z</time>
      </trkpt>
      <trkpt lat="48.69984" lon="1.74571">
        <ele>165.19999694824</ele>
        <time>2015-03-06T09:34:21.000Z</time>
      </trkpt>
      <trkpt lat="48.69981" lon="1.74553">
        <ele>164.60000610352</ele>
        <time>2015-03-06T09:34:28.000Z</time>
      </trkpt>
      <trkpt lat="48.69978" lon="1.7454">
        <ele>164.19999694824</ele>
        <time>2015-03-06T09:34:33.000Z</time>
      </trkpt>
      <trkpt lat="48.69975" lon="1.74525">
        <ele>163.80000305176</ele>
        <time>2015-03-06T09:34:39.000Z</time>
      </trkpt>
      <trkpt lat="48.69971" lon="1.7451">
        <ele>163.39999389648</ele>
        <time>2015-03-06T09:34:45.000Z</time>
      </trkpt>
      <trkpt lat="48.69967" lon="1.74494">
        <ele>163</ele>
        <time>2015-03-06T09:34:53.000Z</time>
      </trkpt>
      <trkpt lat="48.69962" lon="1.7447">
        <ele>163.19999694824</ele>
        <time>2015-03-06T09:35:03.000Z</time>
      </trkpt>
      <trkpt lat="48.69958" lon="1.74453">
        <ele>163.60000610352</ele>
        <time>2015-03-06T09:35:11.000Z</time>
      </trkpt>
      <trkpt lat="48.69954" lon="1.74436">
        <ele>164</ele>
        <time>2015-03-06T09:35:18.000Z</time>
      </trkpt>
      <trkpt lat="48.69951" lon="1.74423">
        <ele>164.19999694824</ele>
        <time>2015-03-06T09:35:24.000Z</time>
      </trkpt>
      <trkpt lat="48.69944" lon="1.74407">
        <ele>164.19999694824</ele>
        <time>2015-03-06T09:35:31.000Z</time>
      </trkpt>
      <trkpt lat="48.69939" lon="1.74391">
        <ele>164.39999389648</ele>
        <time>2015-03-06T09:35:38.000Z</time>
      </trkpt>
      <trkpt lat="48.69937" lon="1.74377">
        <ele>164.60000610352</ele>
        <time>2015-03-06T09:35:44.000Z</time>
      </trkpt>
      <trkpt lat="48.69934" lon="1.74361">
        <ele>165</ele>
        <time>2015-03-06T09:35:51.000Z</time>
      </trkpt>
      <trkpt lat="48.69931" lon="1.74349">
        <ele>165.19999694824</ele>
        <time>2015-03-06T09:35:57.000Z</time>
      </trkpt>
      <trkpt lat="48.69927" lon="1.74338">
        <ele>165.39999389648</ele>
        <time>2015-03-06T09:36:02.000Z</time>
      </trkpt>
      <trkpt lat="48.69926" lon="1.74331">
        <ele>165.39999389648</ele>
        <time>2015-03-06T09:36:05.000Z</time>
      </trkpt>
      <trkpt lat="48.69922" lon="1.74313">
        <ele>165.80000305176</ele>
        <time>2015-03-06T09:36:14.000Z</time>
      </trkpt>
      <trkpt lat="48.69917" lon="1.74299">
        <ele>166</ele>
        <time>2015-03-06T09:36:20.000Z</time>
      </trkpt>
      <trkpt lat="48.69914" lon="1.74288">
        <ele>166.19999694824</ele>
        <time>2015-03-06T09:36:26.000Z</time>
      </trkpt>
      <trkpt lat="48.69911" lon="1.74274">
        <ele>166.60000610352</ele>
        <time>2015-03-06T09:36:33.000Z</time>
      </trkpt>
      <trkpt lat="48.69909" lon="1.74269">
        <ele>166.60000610352</ele>
        <time>2015-03-06T09:36:36.000Z</time>
      </trkpt>
      <trkpt lat="48.69902" lon="1.74246">
        <ele>167</ele>
        <time>2015-03-06T09:36:45.000Z</time>
      </trkpt>
      <trkpt lat="48.699" lon="1.74231">
        <ele>167.19999694824</ele>
        <time>2015-03-06T09:36:51.000Z</time>
      </trkpt>
      <trkpt lat="48.699" lon="1.74227">
        <ele>167.19999694824</ele>
        <time>2015-03-06T09:36:53.000Z</time>
      </trkpt>
      <trkpt lat="48.69898" lon="1.74218">
        <ele>167</ele>
        <time>2015-03-06T09:36:57.000Z</time>
      </trkpt>
      <trkpt lat="48.69893" lon="1.74203">
        <ele>167</ele>
        <time>2015-03-06T09:37:04.000Z</time>
      </trkpt>
      <trkpt lat="48.6989" lon="1.74191">
        <ele>166.80000305176</ele>
        <time>2015-03-06T09:37:10.000Z</time>
      </trkpt>
      <trkpt lat="48.69885" lon="1.74171">
        <ele>167</ele>
        <time>2015-03-06T09:37:18.000Z</time>
      </trkpt>
      <trkpt lat="48.69885" lon="1.74169">
        <ele>167</ele>
        <time>2015-03-06T09:37:19.000Z</time>
      </trkpt>
      <trkpt lat="48.69882" lon="1.74158">
        <ele>167</ele>
        <time>2015-03-06T09:37:24.000Z</time>
      </trkpt>
      <trkpt lat="48.69879" lon="1.74143">
        <ele>167.39999389648</ele>
        <time>2015-03-06T09:37:31.000Z</time>
      </trkpt>
      <trkpt lat="48.69878" lon="1.74133">
        <ele>168</ele>
        <time>2015-03-06T09:37:35.000Z</time>
      </trkpt>
      <trkpt lat="48.69875" lon="1.74122">
        <ele>168.19999694824</ele>
        <time>2015-03-06T09:37:39.000Z</time>
      </trkpt>
      <trkpt lat="48.69874" lon="1.74118">
        <ele>168.39999389648</ele>
        <time>2015-03-06T09:37:41.000Z</time>
      </trkpt>
      <trkpt lat="48.69869" lon="1.74102">
        <ele>169</ele>
        <time>2015-03-06T09:37:49.000Z</time>
      </trkpt>
      <trkpt lat="48.69867" lon="1.74095">
        <ele>169.39999389648</ele>
        <time>2015-03-06T09:37:53.000Z</time>
      </trkpt>
      <trkpt lat="48.69864" lon="1.7408">
        <ele>170</ele>
        <time>2015-03-06T09:37:59.000Z</time>
      </trkpt>
      <trkpt lat="48.69862" lon="1.74067">
        <ele>170.19999694824</ele>
        <time>2015-03-06T09:38:05.000Z</time>
      </trkpt>
      <trkpt lat="48.69858" lon="1.7405">
        <ele>170.39999389648</ele>
        <time>2015-03-06T09:38:11.000Z</time>
      </trkpt>
      <trkpt lat="48.69855" lon="1.74035">
        <ele>170.39999389648</ele>
        <time>2015-03-06T09:38:17.000Z</time>
      </trkpt>
      <trkpt lat="48.69851" lon="1.74026">
        <ele>170.60000610352</ele>
        <time>2015-03-06T09:38:22.000Z</time>
      </trkpt>
      <trkpt lat="48.69848" lon="1.74015">
        <ele>171</ele>
        <time>2015-03-06T09:38:27.000Z</time>
      </trkpt>
      <trkpt lat="48.69844" lon="1.73999">
        <ele>171.39999389648</ele>
        <time>2015-03-06T09:38:33.000Z</time>
      </trkpt>
      <trkpt lat="48.69843" lon="1.73995">
        <ele>171.39999389648</ele>
        <time>2015-03-06T09:38:35.000Z</time>
      </trkpt>
      <trkpt lat="48.69839" lon="1.73983">
        <ele>171.60000610352</ele>
        <time>2015-03-06T09:38:41.000Z</time>
      </trkpt>
      <trkpt lat="48.69837" lon="1.73979">
        <ele>171.80000305176</ele>
        <time>2015-03-06T09:38:44.000Z</time>
      </trkpt>
      <trkpt lat="48.69836" lon="1.73967">
        <ele>171.80000305176</ele>
        <time>2015-03-06T09:38:48.000Z</time>
      </trkpt>
      <trkpt lat="48.69835" lon="1.73958">
        <ele>172.19999694824</ele>
        <time>2015-03-06T09:38:52.000Z</time>
      </trkpt>
      <trkpt lat="48.6983" lon="1.73942">
        <ele>172.60000610352</ele>
        <time>2015-03-06T09:38:59.000Z</time>
      </trkpt>
      <trkpt lat="48.69824" lon="1.73923">
        <ele>173.19999694824</ele>
        <time>2015-03-06T09:39:08.000Z</time>
      </trkpt>
      <trkpt lat="48.69822" lon="1.7391">
        <ele>173.60000610352</ele>
        <time>2015-03-06T09:39:14.000Z</time>
      </trkpt>
      <trkpt lat="48.6982" lon="1.73901">
        <ele>173.80000305176</ele>
        <time>2015-03-06T09:39:18.000Z</time>
      </trkpt>
      <trkpt lat="48.69815" lon="1.73882">
        <ele>174</ele>
        <time>2015-03-06T09:39:27.000Z</time>
      </trkpt>
      <trkpt lat="48.69811" lon="1.73863">
        <ele>174</ele>
        <time>2015-03-06T09:39:35.000Z</time>
      </trkpt>
      <trkpt lat="48.69808" lon="1.7385">
        <ele>174.19999694824</ele>
        <time>2015-03-06T09:39:41.000Z</time>
      </trkpt>
      <trkpt lat="48.69804" lon="1.73836">
        <ele>174.60000610352</ele>
        <time>2015-03-06T09:39:47.000Z</time>
      </trkpt>
      <trkpt lat="48.69803" lon="1.73827">
        <ele>174.80000305176</ele>
        <time>2015-03-06T09:39:51.000Z</time>
      </trkpt>
      <trkpt lat="48.69801" lon="1.73815">
        <ele>175.19999694824</ele>
        <time>2015-03-06T09:39:57.000Z</time>
      </trkpt>
      <trkpt lat="48.69798" lon="1.73806">
        <ele>175.39999389648</ele>
        <time>2015-03-06T09:40:02.000Z</time>
      </trkpt>
      <trkpt lat="48.69795" lon="1.73797">
        <ele>175.60000610352</ele>
        <time>2015-03-06T09:40:08.000Z</time>
      </trkpt>
      <trkpt lat="48.69791" lon="1.7378">
        <ele>176</ele>
        <time>2015-03-06T09:40:15.000Z</time>
      </trkpt>
      <trkpt lat="48.69789" lon="1.7377">
        <ele>176.19999694824</ele>
        <time>2015-03-06T09:40:19.000Z</time>
      </trkpt>
      <trkpt lat="48.69786" lon="1.73756">
        <ele>176.60000610352</ele>
        <time>2015-03-06T09:40:25.000Z</time>
      </trkpt>
      <trkpt lat="48.69783" lon="1.73744">
        <ele>177</ele>
        <time>2015-03-06T09:40:30.000Z</time>
      </trkpt>
      <trkpt lat="48.69783" lon="1.73742">
        <ele>177</ele>
        <time>2015-03-06T09:40:31.000Z</time>
      </trkpt>
      <trkpt lat="48.69779" lon="1.73727">
        <ele>177.39999389648</ele>
        <time>2015-03-06T09:40:38.000Z</time>
      </trkpt>
      <trkpt lat="48.69776" lon="1.73712">
        <ele>178</ele>
        <time>2015-03-06T09:40:45.000Z</time>
      </trkpt>
      <trkpt lat="48.69773" lon="1.73701">
        <ele>178.39999389648</ele>
        <time>2015-03-06T09:40:51.000Z</time>
      </trkpt>
      <trkpt lat="48.69768" lon="1.73689">
        <ele>178.80000305176</ele>
        <time>2015-03-06T09:40:58.000Z</time>
      </trkpt>
      <trkpt lat="48.69765" lon="1.73677">
        <ele>179.19999694824</ele>
        <time>2015-03-06T09:41:04.000Z</time>
      </trkpt>
      <trkpt lat="48.69755" lon="1.73674">
        <ele>179.19999694824</ele>
        <time>2015-03-06T09:41:11.000Z</time>
      </trkpt>
      <trkpt lat="48.69748" lon="1.73674">
        <ele>179.19999694824</ele>
        <time>2015-03-06T09:41:15.000Z</time>
      </trkpt>
      <trkpt lat="48.69741" lon="1.73673">
        <ele>179.19999694824</ele>
        <time>2015-03-06T09:41:21.000Z</time>
      </trkpt>
      <trkpt lat="48.69734" lon="1.73672">
        <ele>179.39999389648</ele>
        <time>2015-03-06T09:41:25.000Z</time>
      </trkpt>
      <trkpt lat="48.69721" lon="1.73671">
        <ele>179.39999389648</ele>
        <time>2015-03-06T09:41:32.000Z</time>
      </trkpt>
      <trkpt lat="48.69712" lon="1.73671">
        <ele>179.39999389648</ele>
        <time>2015-03-06T09:41:38.000Z</time>
      </trkpt>
      <trkpt lat="48.69704" lon="1.73671">
        <ele>179.39999389648</ele>
        <time>2015-03-06T09:41:44.000Z</time>
      </trkpt>
      <trkpt lat="48.69704" lon="1.7367">
        <ele>179.39999389648</ele>
        <time>2015-03-06T09:41:47.000Z</time>
      </trkpt>
      <trkpt lat="48.69696" lon="1.73666">
        <ele>179.60000610352</ele>
        <time>2015-03-06T09:41:57.000Z</time>
      </trkpt>
      <trkpt lat="48.69688" lon="1.73666">
        <ele>179.80000305176</ele>
        <time>2015-03-06T09:42:01.000Z</time>
      </trkpt>
      <trkpt lat="48.69684" lon="1.73665">
        <ele>179.80000305176</ele>
        <time>2015-03-06T09:42:04.000Z</time>
      </trkpt>
      <trkpt lat="48.69672" lon="1.73669">
        <ele>179.80000305176</ele>
        <time>2015-03-06T09:42:12.000Z</time>
      </trkpt>
      <trkpt lat="48.69658" lon="1.7367">
        <ele>179.80000305176</ele>
        <time>2015-03-06T09:42:20.000Z</time>
      </trkpt>
      <trkpt lat="48.69647" lon="1.73668">
        <ele>179.80000305176</ele>
        <time>2015-03-06T09:42:28.000Z</time>
      </trkpt>
      <trkpt lat="48.69639" lon="1.73665">
        <ele>179.80000305176</ele>
        <time>2015-03-06T09:42:33.000Z</time>
      </trkpt>
      <trkpt lat="48.69631" lon="1.73664">
        <ele>179.80000305176</ele>
        <time>2015-03-06T09:42:38.000Z</time>
      </trkpt>
      <trkpt lat="48.69618" lon="1.73663">
        <ele>179.80000305176</ele>
        <time>2015-03-06T09:42:43.000Z</time>
      </trkpt>
      <trkpt lat="48.69608" lon="1.73662">
        <ele>180</ele>
        <time>2015-03-06T09:42:49.000Z</time>
      </trkpt>
      <trkpt lat="48.69603" lon="1.73657">
        <ele>180</ele>
        <time>2015-03-06T09:42:55.000Z</time>
      </trkpt>
      <trkpt lat="48.69591" lon="1.73653">
        <ele>179</ele>
        <time>2015-03-06T09:43:00.000Z</time>
      </trkpt>
      <trkpt lat="48.69579" lon="1.73652">
        <ele>178.19999694824</ele>
        <time>2015-03-06T09:43:05.000Z</time>
      </trkpt>
      <trkpt lat="48.69565" lon="1.73651">
        <ele>177.19999694824</ele>
        <time>2015-03-06T09:43:12.000Z</time>
      </trkpt>
      <trkpt lat="48.69563" lon="1.73651">
        <ele>177.19999694824</ele>
        <time>2015-03-06T09:43:13.000Z</time>
      </trkpt>
      <trkpt lat="48.69556" lon="1.73654">
        <ele>176.60000610352</ele>
        <time>2015-03-06T09:43:16.000Z</time>
      </trkpt>
      <trkpt lat="48.69547" lon="1.73653">
        <ele>176</ele>
        <time>2015-03-06T09:43:21.000Z</time>
      </trkpt>
      <trkpt lat="48.69537" lon="1.73651">
        <ele>175.19999694824</ele>
        <time>2015-03-06T09:43:28.000Z</time>
      </trkpt>
      <trkpt lat="48.69525" lon="1.73651">
        <ele>174.39999389648</ele>
        <time>2015-03-06T09:43:36.000Z</time>
      </trkpt>
      <trkpt lat="48.69519" lon="1.73648">
        <ele>174</ele>
        <time>2015-03-06T09:43:41.000Z</time>
      </trkpt>
      <trkpt lat="48.69511" lon="1.73647">
        <ele>173.60000610352</ele>
        <time>2015-03-06T09:43:45.000Z</time>
      </trkpt>
      <trkpt lat="48.69502" lon="1.73646">
        <ele>173.39999389648</ele>
        <time>2015-03-06T09:43:51.000Z</time>
      </trkpt>
      <trkpt lat="48.69489" lon="1.73642">
        <ele>172.80000305176</ele>
        <time>2015-03-06T09:43:59.000Z</time>
      </trkpt>
      <trkpt lat="48.69478" lon="1.7364">
        <ele>172.39999389648</ele>
        <time>2015-03-06T09:44:06.000Z</time>
      </trkpt>
      <trkpt lat="48.69464" lon="1.73639">
        <ele>172</ele>
        <time>2015-03-06T09:44:14.000Z</time>
      </trkpt>
      <trkpt lat="48.69452" lon="1.73639">
        <ele>171.60000610352</ele>
        <time>2015-03-06T09:44:21.000Z</time>
      </trkpt>
      <trkpt lat="48.6944" lon="1.73636">
        <ele>171.19999694824</ele>
        <time>2015-03-06T09:44:27.000Z</time>
      </trkpt>
      <trkpt lat="48.6942" lon="1.73636">
        <ele>172</ele>
        <time>2015-03-06T09:44:37.000Z</time>
      </trkpt>
      <trkpt lat="48.694" lon="1.73636">
        <ele>172</ele>
        <time>2015-03-06T09:44:43.000Z</time>
      </trkpt>
      <trkpt lat="48.69383" lon="1.73636">
        <ele>172.19999694824</ele>
        <time>2015-03-06T09:44:48.000Z</time>
      </trkpt>
      <trkpt lat="48.69373" lon="1.73634">
        <ele>172.19999694824</ele>
        <time>2015-03-06T09:44:52.000Z</time>
      </trkpt>
      <trkpt lat="48.69357" lon="1.7363">
        <ele>172.39999389648</ele>
        <time>2015-03-06T09:44:58.000Z</time>
      </trkpt>
      <trkpt lat="48.69338" lon="1.73625">
        <ele>173.39999389648</ele>
        <time>2015-03-06T09:45:04.000Z</time>
      </trkpt>
      <trkpt lat="48.69322" lon="1.73624">
        <ele>174.19999694824</ele>
        <time>2015-03-06T09:45:09.000Z</time>
      </trkpt>
      <trkpt lat="48.69306" lon="1.73624">
        <ele>174.80000305176</ele>
        <time>2015-03-06T09:45:14.000Z</time>
      </trkpt>
      <trkpt lat="48.69287" lon="1.73621">
        <ele>175.80000305176</ele>
        <time>2015-03-06T09:45:20.000Z</time>
      </trkpt>
      <trkpt lat="48.69273" lon="1.7362">
        <ele>176.39999389648</ele>
        <time>2015-03-06T09:45:24.000Z</time>
      </trkpt>
      <trkpt lat="48.69252" lon="1.7362">
        <ele>176.60000610352</ele>
        <time>2015-03-06T09:45:30.000Z</time>
      </trkpt>
      <trkpt lat="48.69229" lon="1.73618">
        <ele>177.19999694824</ele>
        <time>2015-03-06T09:45:37.000Z</time>
      </trkpt>
      <trkpt lat="48.69209" lon="1.73615">
        <ele>178.39999389648</ele>
        <time>2015-03-06T09:45:43.000Z</time>
      </trkpt>
      <trkpt lat="48.6919" lon="1.73615">
        <ele>179.19999694824</ele>
        <time>2015-03-06T09:45:48.000Z</time>
      </trkpt>
      <trkpt lat="48.6916" lon="1.73611">
        <ele>178</ele>
        <time>2015-03-06T09:45:55.000Z</time>
      </trkpt>
      <trkpt lat="48.69136" lon="1.73608">
        <ele>176.80000305176</ele>
        <time>2015-03-06T09:46:01.000Z</time>
      </trkpt>
      <trkpt lat="48.69124" lon="1.73607">
        <ele>176.39999389648</ele>
        <time>2015-03-06T09:46:04.000Z</time>
      </trkpt>
      <trkpt lat="48.69097" lon="1.73605">
        <ele>175.19999694824</ele>
        <time>2015-03-06T09:46:11.000Z</time>
      </trkpt>
      <trkpt lat="48.69082" lon="1.73602">
        <ele>174.39999389648</ele>
        <time>2015-03-06T09:46:16.000Z</time>
      </trkpt>
      <trkpt lat="48.69073" lon="1.73602">
        <ele>173.80000305176</ele>
        <time>2015-03-06T09:46:22.000Z</time>
      </trkpt>
      <trkpt lat="48.69064" lon="1.73602">
        <ele>173.19999694824</ele>
        <time>2015-03-06T09:46:27.000Z</time>
      </trkpt>
      <trkpt lat="48.69058" lon="1.73602">
        <ele>173</ele>
        <time>2015-03-06T09:46:31.000Z</time>
      </trkpt>
      <trkpt lat="48.69055" lon="1.73601">
        <ele>172.80000305176</ele>
        <time>2015-03-06T09:46:33.000Z</time>
      </trkpt>
      <trkpt lat="48.69054" lon="1.73601">
        <ele>172.80000305176</ele>
        <time>2015-03-06T09:46:36.000Z</time>
      </trkpt>
      <trkpt lat="48.69055" lon="1.73603">
        <ele>172.80000305176</ele>
        <time>2015-03-06T09:47:20.000Z</time>
      </trkpt>
      <trkpt lat="48.69057" lon="1.73608">
        <ele>172.80000305176</ele>
        <time>2015-03-06T09:47:21.000Z</time>
      </trkpt>
      <trkpt lat="48.69055" lon="1.73617">
        <ele>173</ele>
        <time>2015-03-06T09:47:27.000Z</time>
      </trkpt>
      <trkpt lat="48.69054" lon="1.73618">
        <ele>173</ele>
        <time>2015-03-06T09:47:28.000Z</time>
      </trkpt>
      <trkpt lat="48.69054" lon="1.73619">
        <ele>173</ele>
        <time>2015-03-06T09:47:31.000Z</time>
      </trkpt>
      <trkpt lat="48.6905" lon="1.73628">
        <ele>173</ele>
        <time>2015-03-06T09:47:38.000Z</time>
      </trkpt>
      <trkpt lat="48.69043" lon="1.73639">
        <ele>173.19999694824</ele>
        <time>2015-03-06T09:47:43.000Z</time>
      </trkpt>
      <trkpt lat="48.69036" lon="1.73651">
        <ele>173.39999389648</ele>
        <time>2015-03-06T09:47:49.000Z</time>
      </trkpt>
      <trkpt lat="48.69024" lon="1.7367">
        <ele>173.39999389648</ele>
        <time>2015-03-06T09:47:59.000Z</time>
      </trkpt>
      <trkpt lat="48.69017" lon="1.73682">
        <ele>173.60000610352</ele>
        <time>2015-03-06T09:48:05.000Z</time>
      </trkpt>
      <trkpt lat="48.69007" lon="1.73698">
        <ele>173.80000305176</ele>
        <time>2015-03-06T09:48:12.000Z</time>
      </trkpt>
      <trkpt lat="48.68999" lon="1.7371">
        <ele>173.80000305176</ele>
        <time>2015-03-06T09:48:18.000Z</time>
      </trkpt>
      <trkpt lat="48.68991" lon="1.73723">
        <ele>173.60000610352</ele>
        <time>2015-03-06T09:48:25.000Z</time>
      </trkpt>
      <trkpt lat="48.68983" lon="1.73738">
        <ele>173.19999694824</ele>
        <time>2015-03-06T09:48:31.000Z</time>
      </trkpt>
      <trkpt lat="48.68977" lon="1.73749">
        <ele>173</ele>
        <time>2015-03-06T09:48:37.000Z</time>
      </trkpt>
      <trkpt lat="48.6897" lon="1.73761">
        <ele>172.60000610352</ele>
        <time>2015-03-06T09:48:43.000Z</time>
      </trkpt>
      <trkpt lat="48.68963" lon="1.73771">
        <ele>172.19999694824</ele>
        <time>2015-03-06T09:48:49.000Z</time>
      </trkpt>
      <trkpt lat="48.68959" lon="1.73777">
        <ele>172</ele>
        <time>2015-03-06T09:48:52.000Z</time>
      </trkpt>
      <trkpt lat="48.68952" lon="1.73788">
        <ele>171.80000305176</ele>
        <time>2015-03-06T09:48:58.000Z</time>
      </trkpt>
      <trkpt lat="48.68951" lon="1.7379">
        <ele>171.60000610352</ele>
        <time>2015-03-06T09:48:59.000Z</time>
      </trkpt>
      <trkpt lat="48.68939" lon="1.73808">
        <ele>171.19999694824</ele>
        <time>2015-03-06T09:49:08.000Z</time>
      </trkpt>
      <trkpt lat="48.6893" lon="1.73824">
        <ele>170.80000305176</ele>
        <time>2015-03-06T09:49:16.000Z</time>
      </trkpt>
      <trkpt lat="48.68928" lon="1.73828">
        <ele>170.60000610352</ele>
        <time>2015-03-06T09:49:18.000Z</time>
      </trkpt>
      <trkpt lat="48.68924" lon="1.73837">
        <ele>170.60000610352</ele>
        <time>2015-03-06T09:49:23.000Z</time>
      </trkpt>
      <trkpt lat="48.68921" lon="1.73845">
        <ele>170.60000610352</ele>
        <time>2015-03-06T09:49:25.000Z</time>
      </trkpt>
      <trkpt lat="48.68911" lon="1.73864">
        <ele>170.19999694824</ele>
        <time>2015-03-06T09:49:33.000Z</time>
      </trkpt>
      <trkpt lat="48.68905" lon="1.73876">
        <ele>170.19999694824</ele>
        <time>2015-03-06T09:49:39.000Z</time>
      </trkpt>
      <trkpt lat="48.68899" lon="1.73886">
        <ele>169.80000305176</ele>
        <time>2015-03-06T09:49:44.000Z</time>
      </trkpt>
      <trkpt lat="48.6889" lon="1.73895">
        <ele>169.19999694824</ele>
        <time>2015-03-06T09:49:50.000Z</time>
      </trkpt>
      <trkpt lat="48.68881" lon="1.7391">
        <ele>168.60000610352</ele>
        <time>2015-03-06T09:49:58.000Z</time>
      </trkpt>
      <trkpt lat="48.68872" lon="1.73925">
        <ele>167.60000610352</ele>
        <time>2015-03-06T09:50:06.000Z</time>
      </trkpt>
      <trkpt lat="48.68867" lon="1.73933">
        <ele>167.19999694824</ele>
        <time>2015-03-06T09:50:10.000Z</time>
      </trkpt>
      <trkpt lat="48.68861" lon="1.73943">
        <ele>166.60000610352</ele>
        <time>2015-03-06T09:50:16.000Z</time>
      </trkpt>
      <trkpt lat="48.68856" lon="1.73957">
        <ele>165.80000305176</ele>
        <time>2015-03-06T09:50:22.000Z</time>
      </trkpt>
      <trkpt lat="48.68854" lon="1.73959">
        <ele>165.80000305176</ele>
        <time>2015-03-06T09:50:23.000Z</time>
      </trkpt>
      <trkpt lat="48.68848" lon="1.7397">
        <ele>165.39999389648</ele>
        <time>2015-03-06T09:50:29.000Z</time>
      </trkpt>
      <trkpt lat="48.68842" lon="1.73982">
        <ele>165</ele>
        <time>2015-03-06T09:50:35.000Z</time>
      </trkpt>
      <trkpt lat="48.68834" lon="1.73994">
        <ele>164.19999694824</ele>
        <time>2015-03-06T09:50:41.000Z</time>
      </trkpt>
      <trkpt lat="48.68825" lon="1.7401">
        <ele>163</ele>
        <time>2015-03-06T09:50:47.000Z</time>
      </trkpt>
      <trkpt lat="48.68822" lon="1.74013">
        <ele>162.80000305176</ele>
        <time>2015-03-06T09:50:49.000Z</time>
      </trkpt>
      <trkpt lat="48.68817" lon="1.7402">
        <ele>162.19999694824</ele>
        <time>2015-03-06T09:50:54.000Z</time>
      </trkpt>
      <trkpt lat="48.68808" lon="1.74035">
        <ele>161</ele>
        <time>2015-03-06T09:51:00.000Z</time>
      </trkpt>
      <trkpt lat="48.68802" lon="1.74042">
        <ele>160.39999389648</ele>
        <time>2015-03-06T09:51:05.000Z</time>
      </trkpt>
      <trkpt lat="48.68798" lon="1.7405">
        <ele>159.80000305176</ele>
        <time>2015-03-06T09:51:10.000Z</time>
      </trkpt>
      <trkpt lat="48.68788" lon="1.74063">
        <ele>158.80000305176</ele>
        <time>2015-03-06T09:51:17.000Z</time>
      </trkpt>
      <trkpt lat="48.68776" lon="1.74079">
        <ele>157.80000305176</ele>
        <time>2015-03-06T09:51:26.000Z</time>
      </trkpt>
      <trkpt lat="48.68764" lon="1.74095">
        <ele>157.19999694824</ele>
        <time>2015-03-06T09:51:35.000Z</time>
      </trkpt>
      <trkpt lat="48.68757" lon="1.74107">
        <ele>157</ele>
        <time>2015-03-06T09:51:40.000Z</time>
      </trkpt>
      <trkpt lat="48.68754" lon="1.74115">
        <ele>156.80000305176</ele>
        <time>2015-03-06T09:51:45.000Z</time>
      </trkpt>
      <trkpt lat="48.68752" lon="1.74118">
        <ele>156.80000305176</ele>
        <time>2015-03-06T09:51:47.000Z</time>
      </trkpt>
      <trkpt lat="48.68742" lon="1.74133">
        <ele>156.60000610352</ele>
        <time>2015-03-06T09:51:54.000Z</time>
      </trkpt>
      <trkpt lat="48.68735" lon="1.74145">
        <ele>156.19999694824</ele>
        <time>2015-03-06T09:52:00.000Z</time>
      </trkpt>
      <trkpt lat="48.68729" lon="1.74153">
        <ele>156</ele>
        <time>2015-03-06T09:52:05.000Z</time>
      </trkpt>
      <trkpt lat="48.68721" lon="1.74165">
        <ele>156.80000305176</ele>
        <time>2015-03-06T09:52:11.000Z</time>
      </trkpt>
      <trkpt lat="48.68712" lon="1.74181">
        <ele>157.60000610352</ele>
        <time>2015-03-06T09:52:19.000Z</time>
      </trkpt>
      <trkpt lat="48.68706" lon="1.74195">
        <ele>157.60000610352</ele>
        <time>2015-03-06T09:52:25.000Z</time>
      </trkpt>
      <trkpt lat="48.68703" lon="1.74208">
        <ele>157.39999389648</ele>
        <time>2015-03-06T09:52:30.000Z</time>
      </trkpt>
      <trkpt lat="48.68704" lon="1.7422">
        <ele>157.19999694824</ele>
        <time>2015-03-06T09:52:35.000Z</time>
      </trkpt>
      <trkpt lat="48.68703" lon="1.74224">
        <ele>157.19999694824</ele>
        <time>2015-03-06T09:52:37.000Z</time>
      </trkpt>
      <trkpt lat="48.68695" lon="1.74237">
        <ele>157</ele>
        <time>2015-03-06T09:52:44.000Z</time>
      </trkpt>
      <trkpt lat="48.68686" lon="1.74241">
        <ele>157</ele>
        <time>2015-03-06T09:52:50.000Z</time>
      </trkpt>
      <trkpt lat="48.68674" lon="1.74242">
        <ele>157.19999694824</ele>
        <time>2015-03-06T09:52:57.000Z</time>
      </trkpt>
      <trkpt lat="48.68666" lon="1.74244">
        <ele>157.39999389648</ele>
        <time>2015-03-06T09:53:02.000Z</time>
      </trkpt>
      <trkpt lat="48.68654" lon="1.74247">
        <ele>157.60000610352</ele>
        <time>2015-03-06T09:53:09.000Z</time>
      </trkpt>
      <trkpt lat="48.68644" lon="1.74253">
        <ele>157.80000305176</ele>
        <time>2015-03-06T09:53:15.000Z</time>
      </trkpt>
      <trkpt lat="48.68632" lon="1.74259">
        <ele>158.19999694824</ele>
        <time>2015-03-06T09:53:22.000Z</time>
      </trkpt>
      <trkpt lat="48.68619" lon="1.74265">
        <ele>157.80000305176</ele>
        <time>2015-03-06T09:53:30.000Z</time>
      </trkpt>
      <trkpt lat="48.68608" lon="1.74271">
        <ele>157</ele>
        <time>2015-03-06T09:53:37.000Z</time>
      </trkpt>
      <trkpt lat="48.68596" lon="1.74281">
        <ele>156.19999694824</ele>
        <time>2015-03-06T09:53:44.000Z</time>
      </trkpt>
      <trkpt lat="48.68585" lon="1.74296">
        <ele>155.39999389648</ele>
        <time>2015-03-06T09:53:52.000Z</time>
      </trkpt>
      <trkpt lat="48.6858" lon="1.74312">
        <ele>155</ele>
        <time>2015-03-06T09:53:59.000Z</time>
      </trkpt>
      <trkpt lat="48.68577" lon="1.74329">
        <ele>154.80000305176</ele>
        <time>2015-03-06T09:54:05.000Z</time>
      </trkpt>
      <trkpt lat="48.68576" lon="1.74344">
        <ele>155</ele>
        <time>2015-03-06T09:54:10.000Z</time>
      </trkpt>
      <trkpt lat="48.68575" lon="1.74363">
        <ele>155.19999694824</ele>
        <time>2015-03-06T09:54:17.000Z</time>
      </trkpt>
      <trkpt lat="48.68574" lon="1.7438">
        <ele>155</ele>
        <time>2015-03-06T09:54:23.000Z</time>
      </trkpt>
      <trkpt lat="48.68572" lon="1.74397">
        <ele>153.80000305176</ele>
        <time>2015-03-06T09:54:30.000Z</time>
      </trkpt>
      <trkpt lat="48.68567" lon="1.74412">
        <ele>153.60000610352</ele>
        <time>2015-03-06T09:54:36.000Z</time>
      </trkpt>
      <trkpt lat="48.68558" lon="1.74426">
        <ele>153.80000305176</ele>
        <time>2015-03-06T09:54:44.000Z</time>
      </trkpt>
      <trkpt lat="48.68558" lon="1.74428">
        <ele>153.80000305176</ele>
        <time>2015-03-06T09:54:45.000Z</time>
      </trkpt>
      <trkpt lat="48.68552" lon="1.74434">
        <ele>154</ele>
        <time>2015-03-06T09:54:49.000Z</time>
      </trkpt>
      <trkpt lat="48.6854" lon="1.74446">
        <ele>153.80000305176</ele>
        <time>2015-03-06T09:54:58.000Z</time>
      </trkpt>
      <trkpt lat="48.6853" lon="1.74455">
        <ele>153.60000610352</ele>
        <time>2015-03-06T09:55:05.000Z</time>
      </trkpt>
      <trkpt lat="48.68521" lon="1.74462">
        <ele>153.19999694824</ele>
        <time>2015-03-06T09:55:10.000Z</time>
      </trkpt>
      <trkpt lat="48.68507" lon="1.74468">
        <ele>154.19999694824</ele>
        <time>2015-03-06T09:55:19.000Z</time>
      </trkpt>
      <trkpt lat="48.685" lon="1.74472">
        <ele>154.39999389648</ele>
        <time>2015-03-06T09:55:24.000Z</time>
      </trkpt>
      <trkpt lat="48.68493" lon="1.74474">
        <ele>154</ele>
        <time>2015-03-06T09:55:28.000Z</time>
      </trkpt>
      <trkpt lat="48.68489" lon="1.74475">
        <ele>153.80000305176</ele>
        <time>2015-03-06T09:55:32.000Z</time>
      </trkpt>
      <trkpt lat="48.68478" lon="1.74483">
        <ele>153</ele>
        <time>2015-03-06T09:55:40.000Z</time>
      </trkpt>
      <trkpt lat="48.68469" lon="1.74489">
        <ele>152.80000305176</ele>
        <time>2015-03-06T09:55:45.000Z</time>
      </trkpt>
      <trkpt lat="48.68468" lon="1.7449">
        <ele>152.80000305176</ele>
        <time>2015-03-06T09:55:46.000Z</time>
      </trkpt>
      <trkpt lat="48.68455" lon="1.74499">
        <ele>153</ele>
        <time>2015-03-06T09:55:53.000Z</time>
      </trkpt>
      <trkpt lat="48.68453" lon="1.74499">
        <ele>153</ele>
        <time>2015-03-06T09:55:54.000Z</time>
      </trkpt>
      <trkpt lat="48.68443" lon="1.74505">
        <ele>152.39999389648</ele>
        <time>2015-03-06T09:56:01.000Z</time>
      </trkpt>
      <trkpt lat="48.68436" lon="1.7451">
        <ele>152</ele>
        <time>2015-03-06T09:56:06.000Z</time>
      </trkpt>
      <trkpt lat="48.68425" lon="1.74517">
        <ele>153</ele>
        <time>2015-03-06T09:56:13.000Z</time>
      </trkpt>
      <trkpt lat="48.68414" lon="1.74525">
        <ele>154.19999694824</ele>
        <time>2015-03-06T09:56:21.000Z</time>
      </trkpt>
      <trkpt lat="48.68403" lon="1.74538">
        <ele>155.60000610352</ele>
        <time>2015-03-06T09:56:28.000Z</time>
      </trkpt>
      <trkpt lat="48.68398" lon="1.74548">
        <ele>155</ele>
        <time>2015-03-06T09:56:32.000Z</time>
      </trkpt>
      <trkpt lat="48.68393" lon="1.7456">
        <ele>154.60000610352</ele>
        <time>2015-03-06T09:56:38.000Z</time>
      </trkpt>
      <trkpt lat="48.68392" lon="1.74561">
        <ele>154.39999389648</ele>
        <time>2015-03-06T09:56:39.000Z</time>
      </trkpt>
      <trkpt lat="48.68384" lon="1.74573">
        <ele>154.19999694824</ele>
        <time>2015-03-06T09:56:45.000Z</time>
      </trkpt>
      <trkpt lat="48.68377" lon="1.74584">
        <ele>154.80000305176</ele>
        <time>2015-03-06T09:56:51.000Z</time>
      </trkpt>
      <trkpt lat="48.68376" lon="1.74586">
        <ele>154.80000305176</ele>
        <time>2015-03-06T09:56:52.000Z</time>
      </trkpt>
      <trkpt lat="48.68371" lon="1.74595">
        <ele>155</ele>
        <time>2015-03-06T09:56:57.000Z</time>
      </trkpt>
      <trkpt lat="48.68367" lon="1.74608">
        <ele>154.60000610352</ele>
        <time>2015-03-06T09:57:02.000Z</time>
      </trkpt>
      <trkpt lat="48.6836" lon="1.7463">
        <ele>153.80000305176</ele>
        <time>2015-03-06T09:57:12.000Z</time>
      </trkpt>
      <trkpt lat="48.68356" lon="1.74642">
        <ele>153.39999389648</ele>
        <time>2015-03-06T09:57:17.000Z</time>
      </trkpt>
      <trkpt lat="48.6835" lon="1.74657">
        <ele>153.39999389648</ele>
        <time>2015-03-06T09:57:24.000Z</time>
      </trkpt>
      <trkpt lat="48.68349" lon="1.74659">
        <ele>153.39999389648</ele>
        <time>2015-03-06T09:57:25.000Z</time>
      </trkpt>
      <trkpt lat="48.68341" lon="1.74677">
        <ele>154.80000305176</ele>
        <time>2015-03-06T09:57:33.000Z</time>
      </trkpt>
      <trkpt lat="48.68334" lon="1.74691">
        <ele>155.60000610352</ele>
        <time>2015-03-06T09:57:39.000Z</time>
      </trkpt>
      <trkpt lat="48.6833" lon="1.74702">
        <ele>156.39999389648</ele>
        <time>2015-03-06T09:57:44.000Z</time>
      </trkpt>
      <trkpt lat="48.68323" lon="1.74713">
        <ele>156.80000305176</ele>
        <time>2015-03-06T09:57:50.000Z</time>
      </trkpt>
      <trkpt lat="48.68312" lon="1.74732">
        <ele>155.39999389648</ele>
        <time>2015-03-06T09:57:57.000Z</time>
      </trkpt>
      <trkpt lat="48.68306" lon="1.74741">
        <ele>155</ele>
        <time>2015-03-06T09:58:02.000Z</time>
      </trkpt>
      <trkpt lat="48.68298" lon="1.74754">
        <ele>155.39999389648</ele>
        <time>2015-03-06T09:58:09.000Z</time>
      </trkpt>
      <trkpt lat="48.6829" lon="1.74765">
        <ele>155.19999694824</ele>
        <time>2015-03-06T09:58:16.000Z</time>
      </trkpt>
      <trkpt lat="48.68285" lon="1.74774">
        <ele>154.60000610352</ele>
        <time>2015-03-06T09:58:21.000Z</time>
      </trkpt>
      <trkpt lat="48.68281" lon="1.74788">
        <ele>153.80000305176</ele>
        <time>2015-03-06T09:58:27.000Z</time>
      </trkpt>
      <trkpt lat="48.68279" lon="1.74792">
        <ele>153.60000610352</ele>
        <time>2015-03-06T09:58:29.000Z</time>
      </trkpt>
      <trkpt lat="48.68274" lon="1.74806">
        <ele>152.80000305176</ele>
        <time>2015-03-06T09:58:35.000Z</time>
      </trkpt>
      <trkpt lat="48.68271" lon="1.74816">
        <ele>152.19999694824</ele>
        <time>2015-03-06T09:58:39.000Z</time>
      </trkpt>
      <trkpt lat="48.68263" lon="1.74834">
        <ele>152.39999389648</ele>
        <time>2015-03-06T09:58:47.000Z</time>
      </trkpt>
      <trkpt lat="48.68256" lon="1.74843">
        <ele>152.80000305176</ele>
        <time>2015-03-06T09:58:52.000Z</time>
      </trkpt>
      <trkpt lat="48.6825" lon="1.74856">
        <ele>153.19999694824</ele>
        <time>2015-03-06T09:58:58.000Z</time>
      </trkpt>
      <trkpt lat="48.68246" lon="1.74868">
        <ele>153.39999389648</ele>
        <time>2015-03-06T09:59:04.000Z</time>
      </trkpt>
      <trkpt lat="48.6824" lon="1.74886">
        <ele>153</ele>
        <time>2015-03-06T09:59:12.000Z</time>
      </trkpt>
      <trkpt lat="48.68235" lon="1.749">
        <ele>152</ele>
        <time>2015-03-06T09:59:17.000Z</time>
      </trkpt>
      <trkpt lat="48.68228" lon="1.7492">
        <ele>152.39999389648</ele>
        <time>2015-03-06T09:59:23.000Z</time>
      </trkpt>
      <trkpt lat="48.68225" lon="1.74928">
        <ele>153</ele>
        <time>2015-03-06T09:59:26.000Z</time>
      </trkpt>
      <trkpt lat="48.68222" lon="1.74943">
        <ele>153.60000610352</ele>
        <time>2015-03-06T09:59:33.000Z</time>
      </trkpt>
      <trkpt lat="48.68219" lon="1.74955">
        <ele>153.19999694824</ele>
        <time>2015-03-06T09:59:38.000Z</time>
      </trkpt>
      <trkpt lat="48.68214" lon="1.74972">
        <ele>152.60000610352</ele>
        <time>2015-03-06T09:59:44.000Z</time>
      </trkpt>
      <trkpt lat="48.68211" lon="1.74984">
        <ele>152.19999694824</ele>
        <time>2015-03-06T09:59:50.000Z</time>
      </trkpt>
      <trkpt lat="48.68207" lon="1.75003">
        <ele>152.60000610352</ele>
        <time>2015-03-06T09:59:57.000Z</time>
      </trkpt>
      <trkpt lat="48.68205" lon="1.75015">
        <ele>152.80000305176</ele>
        <time>2015-03-06T10:00:03.000Z</time>
      </trkpt>
      <trkpt lat="48.68198" lon="1.75028">
        <ele>152</ele>
        <time>2015-03-06T10:00:08.000Z</time>
      </trkpt>
      <trkpt lat="48.68192" lon="1.75042">
        <ele>151.39999389648</ele>
        <time>2015-03-06T10:00:14.000Z</time>
      </trkpt>
      <trkpt lat="48.68189" lon="1.75051">
        <ele>151.19999694824</ele>
        <time>2015-03-06T10:00:18.000Z</time>
      </trkpt>
      <trkpt lat="48.68189" lon="1.75056">
        <ele>151.19999694824</ele>
        <time>2015-03-06T10:00:20.000Z</time>
      </trkpt>
      <trkpt lat="48.68183" lon="1.75071">
        <ele>150.80000305176</ele>
        <time>2015-03-06T10:00:28.000Z</time>
      </trkpt>
      <trkpt lat="48.68177" lon="1.75087">
        <ele>151.39999389648</ele>
        <time>2015-03-06T10:00:35.000Z</time>
      </trkpt>
      <trkpt lat="48.68169" lon="1.75099">
        <ele>151.60000610352</ele>
        <time>2015-03-06T10:00:40.000Z</time>
      </trkpt>
      <trkpt lat="48.68162" lon="1.75113">
        <ele>152</ele>
        <time>2015-03-06T10:00:46.000Z</time>
      </trkpt>
      <trkpt lat="48.6815" lon="1.75129">
        <ele>151.80000305176</ele>
        <time>2015-03-06T10:00:55.000Z</time>
      </trkpt>
      <trkpt lat="48.68144" lon="1.75141">
        <ele>151.60000610352</ele>
        <time>2015-03-06T10:01:01.000Z</time>
      </trkpt>
      <trkpt lat="48.68137" lon="1.7515">
        <ele>151.19999694824</ele>
        <time>2015-03-06T10:01:05.000Z</time>
      </trkpt>
      <trkpt lat="48.68131" lon="1.75159">
        <ele>150.60000610352</ele>
        <time>2015-03-06T10:01:10.000Z</time>
      </trkpt>
      <trkpt lat="48.68122" lon="1.75174">
        <ele>149.80000305176</ele>
        <time>2015-03-06T10:01:17.000Z</time>
      </trkpt>
      <trkpt lat="48.68111" lon="1.75189">
        <ele>149.80000305176</ele>
        <time>2015-03-06T10:01:25.000Z</time>
      </trkpt>
      <trkpt lat="48.68102" lon="1.75206">
        <ele>149.80000305176</ele>
        <time>2015-03-06T10:01:33.000Z</time>
      </trkpt>
      <trkpt lat="48.68093" lon="1.7522">
        <ele>150.19999694824</ele>
        <time>2015-03-06T10:01:40.000Z</time>
      </trkpt>
      <trkpt lat="48.68088" lon="1.75231">
        <ele>150.19999694824</ele>
        <time>2015-03-06T10:01:45.000Z</time>
      </trkpt>
      <trkpt lat="48.68085" lon="1.75238">
        <ele>150.19999694824</ele>
        <time>2015-03-06T10:01:48.000Z</time>
      </trkpt>
      <trkpt lat="48.68081" lon="1.75249">
        <ele>150</ele>
        <time>2015-03-06T10:01:53.000Z</time>
      </trkpt>
      <trkpt lat="48.6808" lon="1.75251">
        <ele>149.80000305176</ele>
        <time>2015-03-06T10:01:54.000Z</time>
      </trkpt>
      <trkpt lat="48.68077" lon="1.7527">
        <ele>149.80000305176</ele>
        <time>2015-03-06T10:02:01.000Z</time>
      </trkpt>
      <trkpt lat="48.68074" lon="1.75283">
        <ele>149.60000610352</ele>
        <time>2015-03-06T10:02:07.000Z</time>
      </trkpt>
      <trkpt lat="48.68072" lon="1.75298">
        <ele>149.60000610352</ele>
        <time>2015-03-06T10:02:13.000Z</time>
      </trkpt>
      <trkpt lat="48.68071" lon="1.75312">
        <ele>149.80000305176</ele>
        <time>2015-03-06T10:02:18.000Z</time>
      </trkpt>
      <trkpt lat="48.6807" lon="1.75322">
        <ele>149.80000305176</ele>
        <time>2015-03-06T10:02:22.000Z</time>
      </trkpt>
      <trkpt lat="48.68068" lon="1.7534">
        <ele>149.60000610352</ele>
        <time>2015-03-06T10:02:29.000Z</time>
      </trkpt>
      <trkpt lat="48.68066" lon="1.75352">
        <ele>149.39999389648</ele>
        <time>2015-03-06T10:02:33.000Z</time>
      </trkpt>
      <trkpt lat="48.68067" lon="1.75368">
        <ele>149.19999694824</ele>
        <time>2015-03-06T10:02:39.000Z</time>
      </trkpt>
      <trkpt lat="48.68064" lon="1.75395">
        <ele>149</ele>
        <time>2015-03-06T10:02:49.000Z</time>
      </trkpt>
      <trkpt lat="48.6806" lon="1.75415">
        <ele>149</ele>
        <time>2015-03-06T10:02:57.000Z</time>
      </trkpt>
      <trkpt lat="48.6806" lon="1.75417">
        <ele>149</ele>
        <time>2015-03-06T10:02:58.000Z</time>
      </trkpt>
      <trkpt lat="48.68057" lon="1.75434">
        <ele>148.80000305176</ele>
        <time>2015-03-06T10:03:05.000Z</time>
      </trkpt>
      <trkpt lat="48.68053" lon="1.75456">
        <ele>148.39999389648</ele>
        <time>2015-03-06T10:03:13.000Z</time>
      </trkpt>
      <trkpt lat="48.6805" lon="1.75475">
        <ele>147.80000305176</ele>
        <time>2015-03-06T10:03:20.000Z</time>
      </trkpt>
      <trkpt lat="48.68046" lon="1.75498">
        <ele>147.19999694824</ele>
        <time>2015-03-06T10:03:28.000Z</time>
      </trkpt>
      <trkpt lat="48.68046" lon="1.75515">
        <ele>147.19999694824</ele>
        <time>2015-03-06T10:03:35.000Z</time>
      </trkpt>
      <trkpt lat="48.68046" lon="1.75517">
        <ele>147.19999694824</ele>
        <time>2015-03-06T10:03:36.000Z</time>
      </trkpt>
      <trkpt lat="48.68055" lon="1.75526">
        <ele>147.60000610352</ele>
        <time>2015-03-06T10:03:42.000Z</time>
      </trkpt>
      <trkpt lat="48.6807" lon="1.75536">
        <ele>148.39999389648</ele>
        <time>2015-03-06T10:03:50.000Z</time>
      </trkpt>
      <trkpt lat="48.68075" lon="1.75538">
        <ele>148.60000610352</ele>
        <time>2015-03-06T10:03:53.000Z</time>
      </trkpt>
      <trkpt lat="48.68082" lon="1.75545">
        <ele>149</ele>
        <time>2015-03-06T10:03:59.000Z</time>
      </trkpt>
      <trkpt lat="48.6809" lon="1.75553">
        <ele>149.39999389648</ele>
        <time>2015-03-06T10:04:06.000Z</time>
      </trkpt>
      <trkpt lat="48.68098" lon="1.75557">
        <ele>149.80000305176</ele>
        <time>2015-03-06T10:04:11.000Z</time>
      </trkpt>
      <trkpt lat="48.68105" lon="1.75563">
        <ele>150</ele>
        <time>2015-03-06T10:04:16.000Z</time>
      </trkpt>
      <trkpt lat="48.68107" lon="1.75564">
        <ele>150</ele>
        <time>2015-03-06T10:04:17.000Z</time>
      </trkpt>
      <trkpt lat="48.68119" lon="1.75574">
        <ele>150.39999389648</ele>
        <time>2015-03-06T10:04:25.000Z</time>
      </trkpt>
      <trkpt lat="48.68129" lon="1.7558">
        <ele>150.60000610352</ele>
        <time>2015-03-06T10:04:31.000Z</time>
      </trkpt>
      <trkpt lat="48.68141" lon="1.75589">
        <ele>151</ele>
        <time>2015-03-06T10:04:39.000Z</time>
      </trkpt>
      <trkpt lat="48.68153" lon="1.75595">
        <ele>151.19999694824</ele>
        <time>2015-03-06T10:04:47.000Z</time>
      </trkpt>
      <trkpt lat="48.68166" lon="1.75603">
        <ele>151.39999389648</ele>
        <time>2015-03-06T10:04:55.000Z</time>
      </trkpt>
      <trkpt lat="48.68174" lon="1.75608">
        <ele>151.80000305176</ele>
        <time>2015-03-06T10:05:01.000Z</time>
      </trkpt>
      <trkpt lat="48.68187" lon="1.75614">
        <ele>152</ele>
        <time>2015-03-06T10:05:09.000Z</time>
      </trkpt>
      <trkpt lat="48.68199" lon="1.75618">
        <ele>152.19999694824</ele>
        <time>2015-03-06T10:05:16.000Z</time>
      </trkpt>
      <trkpt lat="48.68208" lon="1.7562">
        <ele>152.19999694824</ele>
        <time>2015-03-06T10:05:22.000Z</time>
      </trkpt>
      <trkpt lat="48.68219" lon="1.75622">
        <ele>152.39999389648</ele>
        <time>2015-03-06T10:05:29.000Z</time>
      </trkpt>
      <trkpt lat="48.68229" lon="1.75625">
        <ele>152.60000610352</ele>
        <time>2015-03-06T10:05:35.000Z</time>
      </trkpt>
      <trkpt lat="48.68241" lon="1.7563">
        <ele>152.60000610352</ele>
        <time>2015-03-06T10:05:42.000Z</time>
      </trkpt>
      <trkpt lat="48.68249" lon="1.75631">
        <ele>152.80000305176</ele>
        <time>2015-03-06T10:05:47.000Z</time>
      </trkpt>
      <trkpt lat="48.68261" lon="1.75636">
        <ele>152.80000305176</ele>
        <time>2015-03-06T10:05:54.000Z</time>
      </trkpt>
      <trkpt lat="48.68277" lon="1.7564">
        <ele>153</ele>
        <time>2015-03-06T10:06:04.000Z</time>
      </trkpt>
      <trkpt lat="48.68288" lon="1.75643">
        <ele>152.80000305176</ele>
        <time>2015-03-06T10:06:11.000Z</time>
      </trkpt>
      <trkpt lat="48.68296" lon="1.75646">
        <ele>152.60000610352</ele>
        <time>2015-03-06T10:06:16.000Z</time>
      </trkpt>
      <trkpt lat="48.68305" lon="1.75647">
        <ele>152.60000610352</ele>
        <time>2015-03-06T10:06:21.000Z</time>
      </trkpt>
      <trkpt lat="48.68313" lon="1.75647">
        <ele>152.39999389648</ele>
        <time>2015-03-06T10:06:26.000Z</time>
      </trkpt>
      <trkpt lat="48.68321" lon="1.75646">
        <ele>152.39999389648</ele>
        <time>2015-03-06T10:06:31.000Z</time>
      </trkpt>
      <trkpt lat="48.68337" lon="1.75637">
        <ele>152.19999694824</ele>
        <time>2015-03-06T10:06:40.000Z</time>
      </trkpt>
      <trkpt lat="48.68344" lon="1.7563">
        <ele>152.19999694824</ele>
        <time>2015-03-06T10:06:44.000Z</time>
      </trkpt>
      <trkpt lat="48.68352" lon="1.75623">
        <ele>152.39999389648</ele>
        <time>2015-03-06T10:06:49.000Z</time>
      </trkpt>
      <trkpt lat="48.68364" lon="1.75614">
        <ele>152.80000305176</ele>
        <time>2015-03-06T10:06:56.000Z</time>
      </trkpt>
      <trkpt lat="48.68374" lon="1.75611">
        <ele>153</ele>
        <time>2015-03-06T10:07:01.000Z</time>
      </trkpt>
      <trkpt lat="48.68382" lon="1.75607">
        <ele>153.19999694824</ele>
        <time>2015-03-06T10:07:06.000Z</time>
      </trkpt>
      <trkpt lat="48.6839" lon="1.75601">
        <ele>153.60000610352</ele>
        <time>2015-03-06T10:07:12.000Z</time>
      </trkpt>
      <trkpt lat="48.68402" lon="1.75593">
        <ele>154</ele>
        <time>2015-03-06T10:07:20.000Z</time>
      </trkpt>
      <trkpt lat="48.68411" lon="1.75588">
        <ele>154.19999694824</ele>
        <time>2015-03-06T10:07:25.000Z</time>
      </trkpt>
      <trkpt lat="48.68414" lon="1.75587">
        <ele>154.19999694824</ele>
        <time>2015-03-06T10:07:27.000Z</time>
      </trkpt>
      <trkpt lat="48.6842" lon="1.75583">
        <ele>154.39999389648</ele>
        <time>2015-03-06T10:07:31.000Z</time>
      </trkpt>
      <trkpt lat="48.68431" lon="1.75579">
        <ele>154.80000305176</ele>
        <time>2015-03-06T10:07:37.000Z</time>
      </trkpt>
      <trkpt lat="48.68439" lon="1.75575">
        <ele>155</ele>
        <time>2015-03-06T10:07:42.000Z</time>
      </trkpt>
      <trkpt lat="48.68448" lon="1.75571">
        <ele>155</ele>
        <time>2015-03-06T10:07:48.000Z</time>
      </trkpt>
      <trkpt lat="48.68458" lon="1.75564">
        <ele>155.60000610352</ele>
        <time>2015-03-06T10:07:54.000Z</time>
      </trkpt>
      <trkpt lat="48.68468" lon="1.7556">
        <ele>155.80000305176</ele>
        <time>2015-03-06T10:08:00.000Z</time>
      </trkpt>
      <trkpt lat="48.68475" lon="1.75556">
        <ele>156</ele>
        <time>2015-03-06T10:08:05.000Z</time>
      </trkpt>
      <trkpt lat="48.68485" lon="1.75549">
        <ele>156.60000610352</ele>
        <time>2015-03-06T10:08:11.000Z</time>
      </trkpt>
      <trkpt lat="48.68495" lon="1.75545">
        <ele>156.80000305176</ele>
        <time>2015-03-06T10:08:17.000Z</time>
      </trkpt>
      <trkpt lat="48.68497" lon="1.75544">
        <ele>156.80000305176</ele>
        <time>2015-03-06T10:08:18.000Z</time>
      </trkpt>
      <trkpt lat="48.68502" lon="1.7554">
        <ele>156.80000305176</ele>
        <time>2015-03-06T10:08:21.000Z</time>
      </trkpt>
      <trkpt lat="48.68506" lon="1.7554">
        <ele>156.80000305176</ele>
        <time>2015-03-06T10:08:25.000Z</time>
      </trkpt>
      <trkpt lat="48.68508" lon="1.75541">
        <ele>156.80000305176</ele>
        <time>2015-03-06T10:08:29.000Z</time>
      </trkpt>
      <trkpt lat="48.68516" lon="1.75537">
        <ele>156.80000305176</ele>
        <time>2015-03-06T10:08:42.000Z</time>
      </trkpt>
      <trkpt lat="48.68525" lon="1.75531">
        <ele>157.19999694824</ele>
        <time>2015-03-06T10:08:48.000Z</time>
      </trkpt>
      <trkpt lat="48.68534" lon="1.75528">
        <ele>157.80000305176</ele>
        <time>2015-03-06T10:08:53.000Z</time>
      </trkpt>
      <trkpt lat="48.68541" lon="1.75525">
        <ele>158.19999694824</ele>
        <time>2015-03-06T10:08:57.000Z</time>
      </trkpt>
      <trkpt lat="48.68552" lon="1.75519">
        <ele>159</ele>
        <time>2015-03-06T10:09:03.000Z</time>
      </trkpt>
      <trkpt lat="48.68565" lon="1.75512">
        <ele>159</ele>
        <time>2015-03-06T10:09:09.000Z</time>
      </trkpt>
      <trkpt lat="48.68571" lon="1.75508">
        <ele>159</ele>
        <time>2015-03-06T10:09:12.000Z</time>
      </trkpt>
      <trkpt lat="48.68579" lon="1.75503">
        <ele>159</ele>
        <time>2015-03-06T10:09:17.000Z</time>
      </trkpt>
      <trkpt lat="48.68589" lon="1.75499">
        <ele>159</ele>
        <time>2015-03-06T10:09:23.000Z</time>
      </trkpt>
      <trkpt lat="48.68593" lon="1.75497">
        <ele>159</ele>
        <time>2015-03-06T10:09:25.000Z</time>
      </trkpt>
      <trkpt lat="48.68597" lon="1.75495">
        <ele>159</ele>
        <time>2015-03-06T10:09:27.000Z</time>
      </trkpt>
      <trkpt lat="48.68606" lon="1.7549">
        <ele>159</ele>
        <time>2015-03-06T10:09:33.000Z</time>
      </trkpt>
      <trkpt lat="48.68615" lon="1.75484">
        <ele>159.19999694824</ele>
        <time>2015-03-06T10:09:38.000Z</time>
      </trkpt>
      <trkpt lat="48.6863" lon="1.75476">
        <ele>159.39999389648</ele>
        <time>2015-03-06T10:09:46.000Z</time>
      </trkpt>
      <trkpt lat="48.6864" lon="1.75469">
        <ele>159.60000610352</ele>
        <time>2015-03-06T10:09:52.000Z</time>
      </trkpt>
      <trkpt lat="48.6865" lon="1.75462">
        <ele>159.80000305176</ele>
        <time>2015-03-06T10:09:59.000Z</time>
      </trkpt>
      <trkpt lat="48.68659" lon="1.75455">
        <ele>159.80000305176</ele>
        <time>2015-03-06T10:10:05.000Z</time>
      </trkpt>
      <trkpt lat="48.68667" lon="1.75452">
        <ele>159.39999389648</ele>
        <time>2015-03-06T10:10:10.000Z</time>
      </trkpt>
      <trkpt lat="48.68671" lon="1.75449">
        <ele>159.19999694824</ele>
        <time>2015-03-06T10:10:13.000Z</time>
      </trkpt>
      <trkpt lat="48.68679" lon="1.75442">
        <ele>158.60000610352</ele>
        <time>2015-03-06T10:10:18.000Z</time>
      </trkpt>
      <trkpt lat="48.68682" lon="1.75439">
        <ele>158.39999389648</ele>
        <time>2015-03-06T10:10:20.000Z</time>
      </trkpt>
      <trkpt lat="48.68689" lon="1.75436">
        <ele>158.19999694824</ele>
        <time>2015-03-06T10:10:26.000Z</time>
      </trkpt>
      <trkpt lat="48.68696" lon="1.75433">
        <ele>158</ele>
        <time>2015-03-06T10:10:29.000Z</time>
      </trkpt>
      <trkpt lat="48.68703" lon="1.75434">
        <ele>157.80000305176</ele>
        <time>2015-03-06T10:10:32.000Z</time>
      </trkpt>
      <trkpt lat="48.6871" lon="1.75431">
        <ele>157.60000610352</ele>
        <time>2015-03-06T10:10:36.000Z</time>
      </trkpt>
      <trkpt lat="48.68726" lon="1.75424">
        <ele>157.39999389648</ele>
        <time>2015-03-06T10:10:45.000Z</time>
      </trkpt>
      <trkpt lat="48.68734" lon="1.7542">
        <ele>157.39999389648</ele>
        <time>2015-03-06T10:10:50.000Z</time>
      </trkpt>
      <trkpt lat="48.68743" lon="1.75413">
        <ele>157.19999694824</ele>
        <time>2015-03-06T10:10:56.000Z</time>
      </trkpt>
      <trkpt lat="48.68752" lon="1.75407">
        <ele>157</ele>
        <time>2015-03-06T10:11:02.000Z</time>
      </trkpt>
      <trkpt lat="48.68757" lon="1.75405">
        <ele>157</ele>
        <time>2015-03-06T10:11:06.000Z</time>
      </trkpt>
      <trkpt lat="48.68767" lon="1.75398">
        <ele>156.80000305176</ele>
        <time>2015-03-06T10:11:13.000Z</time>
      </trkpt>
      <trkpt lat="48.68773" lon="1.75396">
        <ele>156.80000305176</ele>
        <time>2015-03-06T10:11:17.000Z</time>
      </trkpt>
      <trkpt lat="48.68786" lon="1.75388">
        <ele>156.80000305176</ele>
        <time>2015-03-06T10:11:23.000Z</time>
      </trkpt>
      <trkpt lat="48.68798" lon="1.75383">
        <ele>156.80000305176</ele>
        <time>2015-03-06T10:11:29.000Z</time>
      </trkpt>
      <trkpt lat="48.68802" lon="1.75379">
        <ele>156.80000305176</ele>
        <time>2015-03-06T10:11:32.000Z</time>
      </trkpt>
      <trkpt lat="48.68816" lon="1.75372">
        <ele>156.80000305176</ele>
        <time>2015-03-06T10:11:39.000Z</time>
      </trkpt>
      <trkpt lat="48.68826" lon="1.75364">
        <ele>156.60000610352</ele>
        <time>2015-03-06T10:11:45.000Z</time>
      </trkpt>
      <trkpt lat="48.68836" lon="1.75359">
        <ele>156.39999389648</ele>
        <time>2015-03-06T10:11:51.000Z</time>
      </trkpt>
      <trkpt lat="48.68846" lon="1.75353">
        <ele>156.19999694824</ele>
        <time>2015-03-06T10:11:57.000Z</time>
      </trkpt>
      <trkpt lat="48.68855" lon="1.75346">
        <ele>155.80000305176</ele>
        <time>2015-03-06T10:12:03.000Z</time>
      </trkpt>
      <trkpt lat="48.68865" lon="1.75342">
        <ele>155.60000610352</ele>
        <time>2015-03-06T10:12:08.000Z</time>
      </trkpt>
      <trkpt lat="48.68876" lon="1.75335">
        <ele>155.19999694824</ele>
        <time>2015-03-06T10:12:14.000Z</time>
      </trkpt>
      <trkpt lat="48.68886" lon="1.7533">
        <ele>155</ele>
        <time>2015-03-06T10:12:20.000Z</time>
      </trkpt>
      <trkpt lat="48.68895" lon="1.75328">
        <ele>154.80000305176</ele>
        <time>2015-03-06T10:12:26.000Z</time>
      </trkpt>
      <trkpt lat="48.68903" lon="1.75324">
        <ele>154.60000610352</ele>
        <time>2015-03-06T10:12:32.000Z</time>
      </trkpt>
      <trkpt lat="48.68913" lon="1.7532">
        <ele>154.19999694824</ele>
        <time>2015-03-06T10:12:38.000Z</time>
      </trkpt>
      <trkpt lat="48.68921" lon="1.75316">
        <ele>154.19999694824</ele>
        <time>2015-03-06T10:12:44.000Z</time>
      </trkpt>
      <trkpt lat="48.68931" lon="1.7531">
        <ele>154</ele>
        <time>2015-03-06T10:12:50.000Z</time>
      </trkpt>
      <trkpt lat="48.68937" lon="1.75307">
        <ele>153.80000305176</ele>
        <time>2015-03-06T10:12:53.000Z</time>
      </trkpt>
      <trkpt lat="48.68945" lon="1.75302">
        <ele>154</ele>
        <time>2015-03-06T10:12:58.000Z</time>
      </trkpt>
      <trkpt lat="48.68948" lon="1.75302">
        <ele>154.19999694824</ele>
        <time>2015-03-06T10:13:04.000Z</time>
      </trkpt>
      <trkpt lat="48.6895" lon="1.75301">
        <ele>154.19999694824</ele>
        <time>2015-03-06T10:13:07.000Z</time>
      </trkpt>
      <trkpt lat="48.68951" lon="1.75301">
        <ele>154.19999694824</ele>
        <time>2015-03-06T10:13:08.000Z</time>
      </trkpt>
      <trkpt lat="48.68952" lon="1.753">
        <ele>154.19999694824</ele>
        <time>2015-03-06T10:13:11.000Z</time>
      </trkpt>
      <trkpt lat="48.68952" lon="1.75307">
        <ele>154.39999389648</ele>
        <time>2015-03-06T10:13:20.000Z</time>
      </trkpt>
      <trkpt lat="48.68945" lon="1.75321">
        <ele>154.39999389648</ele>
        <time>2015-03-06T10:13:25.000Z</time>
      </trkpt>
      <trkpt lat="48.68938" lon="1.75334">
        <ele>154.39999389648</ele>
        <time>2015-03-06T10:13:32.000Z</time>
      </trkpt>
      <trkpt lat="48.68931" lon="1.7535">
        <ele>155.19999694824</ele>
        <time>2015-03-06T10:13:40.000Z</time>
      </trkpt>
      <trkpt lat="48.68925" lon="1.75363">
        <ele>155.60000610352</ele>
        <time>2015-03-06T10:13:46.000Z</time>
      </trkpt>
      <trkpt lat="48.68919" lon="1.75383">
        <ele>156.39999389648</ele>
        <time>2015-03-06T10:13:53.000Z</time>
      </trkpt>
      <trkpt lat="48.68918" lon="1.75394">
        <ele>156.80000305176</ele>
        <time>2015-03-06T10:13:57.000Z</time>
      </trkpt>
      <trkpt lat="48.68914" lon="1.75412">
        <ele>157.60000610352</ele>
        <time>2015-03-06T10:14:04.000Z</time>
      </trkpt>
      <trkpt lat="48.6891" lon="1.75434">
        <ele>158.39999389648</ele>
        <time>2015-03-06T10:14:12.000Z</time>
      </trkpt>
      <trkpt lat="48.68907" lon="1.75452">
        <ele>159</ele>
        <time>2015-03-06T10:14:19.000Z</time>
      </trkpt>
      <trkpt lat="48.68903" lon="1.75467">
        <ele>159.39999389648</ele>
        <time>2015-03-06T10:14:24.000Z</time>
      </trkpt>
      <trkpt lat="48.68899" lon="1.75484">
        <ele>159.60000610352</ele>
        <time>2015-03-06T10:14:30.000Z</time>
      </trkpt>
      <trkpt lat="48.68896" lon="1.75499">
        <ele>160</ele>
        <time>2015-03-06T10:14:36.000Z</time>
      </trkpt>
      <trkpt lat="48.68892" lon="1.75522">
        <ele>161.19999694824</ele>
        <time>2015-03-06T10:14:44.000Z</time>
      </trkpt>
      <trkpt lat="48.68887" lon="1.75553">
        <ele>161.80000305176</ele>
        <time>2015-03-06T10:14:50.000Z</time>
      </trkpt>
      <trkpt lat="48.68881" lon="1.75581">
        <ele>162.19999694824</ele>
        <time>2015-03-06T10:14:54.000Z</time>
      </trkpt>
      <trkpt lat="48.68873" lon="1.75626">
        <ele>162.39999389648</ele>
        <time>2015-03-06T10:14:59.000Z</time>
      </trkpt>
      <trkpt lat="48.68866" lon="1.75672">
        <ele>162.60000610352</ele>
        <time>2015-03-06T10:15:04.000Z</time>
      </trkpt>
      <trkpt lat="48.68864" lon="1.75682">
        <ele>162.80000305176</ele>
        <time>2015-03-06T10:15:05.000Z</time>
      </trkpt>
      <trkpt lat="48.68855" lon="1.75733">
        <ele>163</ele>
        <time>2015-03-06T10:15:10.000Z</time>
      </trkpt>
      <trkpt lat="48.68852" lon="1.75754">
        <ele>163.19999694824</ele>
        <time>2015-03-06T10:15:12.000Z</time>
      </trkpt>
      <trkpt lat="48.68838" lon="1.75802">
        <ele>163.19999694824</ele>
        <time>2015-03-06T10:15:18.000Z</time>
      </trkpt>
      <trkpt lat="48.68827" lon="1.75852">
        <ele>163</ele>
        <time>2015-03-06T10:15:24.000Z</time>
      </trkpt>
      <trkpt lat="48.68825" lon="1.7586">
        <ele>163</ele>
        <time>2015-03-06T10:15:25.000Z</time>
      </trkpt>
      <trkpt lat="48.68816" lon="1.75902">
        <ele>163.60000610352</ele>
        <time>2015-03-06T10:15:30.000Z</time>
      </trkpt>
      <trkpt lat="48.68812" lon="1.75925">
        <ele>164</ele>
        <time>2015-03-06T10:15:33.000Z</time>
      </trkpt>
      <trkpt lat="48.68808" lon="1.75941">
        <ele>164.39999389648</ele>
        <time>2015-03-06T10:15:35.000Z</time>
      </trkpt>
      <trkpt lat="48.688" lon="1.75978">
        <ele>164</ele>
        <time>2015-03-06T10:15:40.000Z</time>
      </trkpt>
      <trkpt lat="48.68796" lon="1.75995">
        <ele>164</ele>
        <time>2015-03-06T10:15:42.000Z</time>
      </trkpt>
      <trkpt lat="48.68784" lon="1.76049">
        <ele>164.19999694824</ele>
        <time>2015-03-06T10:15:49.000Z</time>
      </trkpt>
      <trkpt lat="48.68781" lon="1.76065">
        <ele>164.39999389648</ele>
        <time>2015-03-06T10:15:51.000Z</time>
      </trkpt>
      <trkpt lat="48.68776" lon="1.76104">
        <ele>164.19999694824</ele>
        <time>2015-03-06T10:15:56.000Z</time>
      </trkpt>
      <trkpt lat="48.68773" lon="1.76117">
        <ele>163.80000305176</ele>
        <time>2015-03-06T10:15:58.000Z</time>
      </trkpt>
      <trkpt lat="48.68768" lon="1.76156">
        <ele>162.80000305176</ele>
        <time>2015-03-06T10:16:03.000Z</time>
      </trkpt>
      <trkpt lat="48.68765" lon="1.7619">
        <ele>162.19999694824</ele>
        <time>2015-03-06T10:16:07.000Z</time>
      </trkpt>
      <trkpt lat="48.68764" lon="1.76205">
        <ele>162</ele>
        <time>2015-03-06T10:16:09.000Z</time>
      </trkpt>
      <trkpt lat="48.68761" lon="1.76246">
        <ele>161.60000610352</ele>
        <time>2015-03-06T10:16:14.000Z</time>
      </trkpt>
      <trkpt lat="48.6876" lon="1.76259">
        <ele>161.60000610352</ele>
        <time>2015-03-06T10:16:16.000Z</time>
      </trkpt>
      <trkpt lat="48.68758" lon="1.76303">
        <ele>162</ele>
        <time>2015-03-06T10:16:23.000Z</time>
      </trkpt>
      <trkpt lat="48.68754" lon="1.76346">
        <ele>162.19999694824</ele>
        <time>2015-03-06T10:16:31.000Z</time>
      </trkpt>
      <trkpt lat="48.68752" lon="1.76373">
        <ele>162.19999694824</ele>
        <time>2015-03-06T10:16:37.000Z</time>
      </trkpt>
      <trkpt lat="48.68752" lon="1.76384">
        <ele>162.19999694824</ele>
        <time>2015-03-06T10:16:41.000Z</time>
      </trkpt>
      <trkpt lat="48.68753" lon="1.76385">
        <ele>162.19999694824</ele>
        <time>2015-03-06T10:16:43.000Z</time>
      </trkpt>
      <trkpt lat="48.68755" lon="1.76383">
        <ele>162.19999694824</ele>
        <time>2015-03-06T10:16:46.000Z</time>
      </trkpt>
      <trkpt lat="48.68754" lon="1.76392">
        <ele>162.19999694824</ele>
        <time>2015-03-06T10:16:53.000Z</time>
      </trkpt>
      <trkpt lat="48.68752" lon="1.76416">
        <ele>161.60000610352</ele>
        <time>2015-03-06T10:17:01.000Z</time>
      </trkpt>
      <trkpt lat="48.68752" lon="1.76412">
        <ele>162</ele>
        <time>2015-03-06T10:17:06.000Z</time>
      </trkpt>
      <trkpt lat="48.68751" lon="1.76401">
        <ele>162.19999694824</ele>
        <time>2015-03-06T10:17:11.000Z</time>
      </trkpt>
      <trkpt lat="48.68751" lon="1.76398">
        <ele>162.19999694824</ele>
        <time>2015-03-06T10:17:12.000Z</time>
      </trkpt>
      <trkpt lat="48.68752" lon="1.76379">
        <ele>162.19999694824</ele>
        <time>2015-03-06T10:17:19.000Z</time>
      </trkpt>
      <trkpt lat="48.68756" lon="1.76362">
        <ele>162.39999389648</ele>
        <time>2015-03-06T10:17:26.000Z</time>
      </trkpt>
      <trkpt lat="48.68756" lon="1.76346">
        <ele>162.39999389648</ele>
        <time>2015-03-06T10:17:32.000Z</time>
      </trkpt>
      <trkpt lat="48.68756" lon="1.76325">
        <ele>162.39999389648</ele>
        <time>2015-03-06T10:17:40.000Z</time>
      </trkpt>
      <trkpt lat="48.68756" lon="1.76303">
        <ele>162</ele>
        <time>2015-03-06T10:17:48.000Z</time>
      </trkpt>
      <trkpt lat="48.68756" lon="1.76284">
        <ele>161.80000305176</ele>
        <time>2015-03-06T10:17:55.000Z</time>
      </trkpt>
      <trkpt lat="48.68756" lon="1.76265">
        <ele>161.60000610352</ele>
        <time>2015-03-06T10:18:02.000Z</time>
      </trkpt>
      <trkpt lat="48.68758" lon="1.76241">
        <ele>161.39999389648</ele>
        <time>2015-03-06T10:18:11.000Z</time>
      </trkpt>
      <trkpt lat="48.68759" lon="1.76222">
        <ele>161.39999389648</ele>
        <time>2015-03-06T10:18:18.000Z</time>
      </trkpt>
      <trkpt lat="48.68759" lon="1.76203">
        <ele>161.60000610352</ele>
        <time>2015-03-06T10:18:25.000Z</time>
      </trkpt>
      <trkpt lat="48.68762" lon="1.76184">
        <ele>162</ele>
        <time>2015-03-06T10:18:32.000Z</time>
      </trkpt>
      <trkpt lat="48.68765" lon="1.76164">
        <ele>162.60000610352</ele>
        <time>2015-03-06T10:18:40.000Z</time>
      </trkpt>
      <trkpt lat="48.68768" lon="1.7615">
        <ele>163</ele>
        <time>2015-03-06T10:18:47.000Z</time>
      </trkpt>
      <trkpt lat="48.68768" lon="1.76148">
        <ele>163</ele>
        <time>2015-03-06T10:18:50.000Z</time>
      </trkpt>
      <trkpt lat="48.68769" lon="1.76156">
        <ele>163</ele>
        <time>2015-03-06T10:18:55.000Z</time>
      </trkpt>
      <trkpt lat="48.68768" lon="1.7617">
        <ele>162.60000610352</ele>
        <time>2015-03-06T10:18:59.000Z</time>
      </trkpt>
      <trkpt lat="48.68768" lon="1.76173">
        <ele>162.60000610352</ele>
        <time>2015-03-06T10:19:00.000Z</time>
      </trkpt>
      <trkpt lat="48.68767" lon="1.7619">
        <ele>162.39999389648</ele>
        <time>2015-03-06T10:19:07.000Z</time>
      </trkpt>
      <trkpt lat="48.68766" lon="1.76212">
        <ele>162</ele>
        <time>2015-03-06T10:19:15.000Z</time>
      </trkpt>
      <trkpt lat="48.68765" lon="1.7623">
        <ele>161.80000305176</ele>
        <time>2015-03-06T10:19:22.000Z</time>
      </trkpt>
      <trkpt lat="48.68765" lon="1.7625">
        <ele>161.80000305176</ele>
        <time>2015-03-06T10:19:30.000Z</time>
      </trkpt>
      <trkpt lat="48.68763" lon="1.76271">
        <ele>162</ele>
        <time>2015-03-06T10:19:36.000Z</time>
      </trkpt>
      <trkpt lat="48.6876" lon="1.76294">
        <ele>162.19999694824</ele>
        <time>2015-03-06T10:19:42.000Z</time>
      </trkpt>
      <trkpt lat="48.68759" lon="1.76312">
        <ele>162.19999694824</ele>
        <time>2015-03-06T10:19:48.000Z</time>
      </trkpt>
      <trkpt lat="48.68757" lon="1.76328">
        <ele>162.39999389648</ele>
        <time>2015-03-06T10:19:54.000Z</time>
      </trkpt>
      <trkpt lat="48.68756" lon="1.76343">
        <ele>162.39999389648</ele>
        <time>2015-03-06T10:19:59.000Z</time>
      </trkpt>
      <trkpt lat="48.68755" lon="1.76355">
        <ele>162.39999389648</ele>
        <time>2015-03-06T10:20:03.000Z</time>
      </trkpt>
      <trkpt lat="48.68754" lon="1.7637">
        <ele>162.19999694824</ele>
        <time>2015-03-06T10:20:09.000Z</time>
      </trkpt>
      <trkpt lat="48.68754" lon="1.76371">
        <ele>162.19999694824</ele>
        <time>2015-03-06T10:20:11.000Z</time>
      </trkpt>
      <trkpt lat="48.68752" lon="1.76376">
        <ele>162.19999694824</ele>
        <time>2015-03-06T10:20:15.000Z</time>
      </trkpt>
      <trkpt lat="48.68751" lon="1.76392">
        <ele>162.19999694824</ele>
        <time>2015-03-06T10:20:21.000Z</time>
      </trkpt>
      <trkpt lat="48.68751" lon="1.76407">
        <ele>162.19999694824</ele>
        <time>2015-03-06T10:20:28.000Z</time>
      </trkpt>
      <trkpt lat="48.68749" lon="1.76424">
        <ele>161</ele>
        <time>2015-03-06T10:20:34.000Z</time>
      </trkpt>
      <trkpt lat="48.68749" lon="1.76433">
        <ele>160.60000610352</ele>
        <time>2015-03-06T10:20:37.000Z</time>
      </trkpt>
      <trkpt lat="48.68748" lon="1.76452">
        <ele>159.39999389648</ele>
        <time>2015-03-06T10:20:43.000Z</time>
      </trkpt>
      <trkpt lat="48.68748" lon="1.76473">
        <ele>158.39999389648</ele>
        <time>2015-03-06T10:20:51.000Z</time>
      </trkpt>
      <trkpt lat="48.68747" lon="1.7649">
        <ele>158.19999694824</ele>
        <time>2015-03-06T10:20:57.000Z</time>
      </trkpt>
      <trkpt lat="48.68743" lon="1.76518">
        <ele>158</ele>
        <time>2015-03-06T10:21:06.000Z</time>
      </trkpt>
      <trkpt lat="48.6874" lon="1.76534">
        <ele>157.80000305176</ele>
        <time>2015-03-06T10:21:12.000Z</time>
      </trkpt>
      <trkpt lat="48.6874" lon="1.76553">
        <ele>157.60000610352</ele>
        <time>2015-03-06T10:21:19.000Z</time>
      </trkpt>
      <trkpt lat="48.68741" lon="1.76571">
        <ele>157.39999389648</ele>
        <time>2015-03-06T10:21:26.000Z</time>
      </trkpt>
      <trkpt lat="48.68741" lon="1.76589">
        <ele>157</ele>
        <time>2015-03-06T10:21:33.000Z</time>
      </trkpt>
      <trkpt lat="48.68739" lon="1.76607">
        <ele>156.60000610352</ele>
        <time>2015-03-06T10:21:40.000Z</time>
      </trkpt>
      <trkpt lat="48.68736" lon="1.76628">
        <ele>156.19999694824</ele>
        <time>2015-03-06T10:21:48.000Z</time>
      </trkpt>
      <trkpt lat="48.68734" lon="1.76649">
        <ele>156</ele>
        <time>2015-03-06T10:21:57.000Z</time>
      </trkpt>
      <trkpt lat="48.68734" lon="1.76651">
        <ele>155.80000305176</ele>
        <time>2015-03-06T10:21:58.000Z</time>
      </trkpt>
      <trkpt lat="48.68735" lon="1.76652">
        <ele>155.80000305176</ele>
        <time>2015-03-06T10:22:01.000Z</time>
      </trkpt>
      <trkpt lat="48.68732" lon="1.76661">
        <ele>156</ele>
        <time>2015-03-06T10:22:10.000Z</time>
      </trkpt>
      <trkpt lat="48.68733" lon="1.76679">
        <ele>156.19999694824</ele>
        <time>2015-03-06T10:22:17.000Z</time>
      </trkpt>
      <trkpt lat="48.68735" lon="1.76697">
        <ele>156.39999389648</ele>
        <time>2015-03-06T10:22:25.000Z</time>
      </trkpt>
      <trkpt lat="48.68733" lon="1.76715">
        <ele>156.39999389648</ele>
        <time>2015-03-06T10:22:32.000Z</time>
      </trkpt>
      <trkpt lat="48.6873" lon="1.76732">
        <ele>156.39999389648</ele>
        <time>2015-03-06T10:22:39.000Z</time>
      </trkpt>
      <trkpt lat="48.68728" lon="1.76754">
        <ele>156.39999389648</ele>
        <time>2015-03-06T10:22:48.000Z</time>
      </trkpt>
      <trkpt lat="48.68727" lon="1.76775">
        <ele>156</ele>
        <time>2015-03-06T10:22:57.000Z</time>
      </trkpt>
      <trkpt lat="48.68724" lon="1.76791">
        <ele>156</ele>
        <time>2015-03-06T10:23:04.000Z</time>
      </trkpt>
      <trkpt lat="48.68724" lon="1.7681">
        <ele>155.60000610352</ele>
        <time>2015-03-06T10:23:12.000Z</time>
      </trkpt>
      <trkpt lat="48.68724" lon="1.76816">
        <ele>155.60000610352</ele>
        <time>2015-03-06T10:23:15.000Z</time>
      </trkpt>
      <trkpt lat="48.68724" lon="1.76829">
        <ele>155.39999389648</ele>
        <time>2015-03-06T10:23:21.000Z</time>
      </trkpt>
      <trkpt lat="48.68724" lon="1.76833">
        <ele>155.19999694824</ele>
        <time>2015-03-06T10:23:23.000Z</time>
      </trkpt>
      <trkpt lat="48.68722" lon="1.76847">
        <ele>155</ele>
        <time>2015-03-06T10:23:30.000Z</time>
      </trkpt>
      <trkpt lat="48.68721" lon="1.76855">
        <ele>154.80000305176</ele>
        <time>2015-03-06T10:23:34.000Z</time>
      </trkpt>
      <trkpt lat="48.6872" lon="1.76861">
        <ele>154.60000610352</ele>
        <time>2015-03-06T10:23:37.000Z</time>
      </trkpt>
      <trkpt lat="48.68716" lon="1.76884">
        <ele>154.19999694824</ele>
        <time>2015-03-06T10:23:45.000Z</time>
      </trkpt>
      <trkpt lat="48.68716" lon="1.76895">
        <ele>153.80000305176</ele>
        <time>2015-03-06T10:23:51.000Z</time>
      </trkpt>
      <trkpt lat="48.68714" lon="1.76913">
        <ele>153.39999389648</ele>
        <time>2015-03-06T10:23:58.000Z</time>
      </trkpt>
      <trkpt lat="48.68713" lon="1.76922">
        <ele>153.19999694824</ele>
        <time>2015-03-06T10:24:02.000Z</time>
      </trkpt>
      <trkpt lat="48.68714" lon="1.76939">
        <ele>153</ele>
        <time>2015-03-06T10:24:09.000Z</time>
      </trkpt>
      <trkpt lat="48.68714" lon="1.76945">
        <ele>152.80000305176</ele>
        <time>2015-03-06T10:24:11.000Z</time>
      </trkpt>
      <trkpt lat="48.68717" lon="1.76952">
        <ele>152.80000305176</ele>
        <time>2015-03-06T10:24:15.000Z</time>
      </trkpt>
      <trkpt lat="48.68715" lon="1.76973">
        <ele>152.39999389648</ele>
        <time>2015-03-06T10:24:24.000Z</time>
      </trkpt>
      <trkpt lat="48.68711" lon="1.76995">
        <ele>152.39999389648</ele>
        <time>2015-03-06T10:24:33.000Z</time>
      </trkpt>
      <trkpt lat="48.68709" lon="1.77013">
        <ele>152.39999389648</ele>
        <time>2015-03-06T10:24:40.000Z</time>
      </trkpt>
      <trkpt lat="48.68706" lon="1.77022">
        <ele>152.39999389648</ele>
        <time>2015-03-06T10:24:44.000Z</time>
      </trkpt>
      <trkpt lat="48.68706" lon="1.77038">
        <ele>152.19999694824</ele>
        <time>2015-03-06T10:24:51.000Z</time>
      </trkpt>
      <trkpt lat="48.68704" lon="1.77055">
        <ele>152</ele>
        <time>2015-03-06T10:24:58.000Z</time>
      </trkpt>
      <trkpt lat="48.68705" lon="1.77069">
        <ele>151.80000305176</ele>
        <time>2015-03-06T10:25:04.000Z</time>
      </trkpt>
      <trkpt lat="48.68705" lon="1.77086">
        <ele>152.19999694824</ele>
        <time>2015-03-06T10:25:11.000Z</time>
      </trkpt>
      <trkpt lat="48.68705" lon="1.77092">
        <ele>152.19999694824</ele>
        <time>2015-03-06T10:25:16.000Z</time>
      </trkpt>
      <trkpt lat="48.68705" lon="1.77096">
        <ele>152.19999694824</ele>
        <time>2015-03-06T10:25:28.000Z</time>
      </trkpt>
      <trkpt lat="48.68707" lon="1.77113">
        <ele>152</ele>
        <time>2015-03-06T10:25:32.000Z</time>
      </trkpt>
      <trkpt lat="48.6871" lon="1.77122">
        <ele>152</ele>
        <time>2015-03-06T10:25:37.000Z</time>
      </trkpt>
      <trkpt lat="48.68716" lon="1.77136">
        <ele>152</ele>
        <time>2015-03-06T10:25:44.000Z</time>
      </trkpt>
      <trkpt lat="48.68718" lon="1.77142">
        <ele>152</ele>
        <time>2015-03-06T10:25:50.000Z</time>
      </trkpt>
      <trkpt lat="48.6872" lon="1.77145">
        <ele>152</ele>
        <time>2015-03-06T10:25:52.000Z</time>
      </trkpt>
      <trkpt lat="48.68722" lon="1.7715">
        <ele>151.80000305176</ele>
        <time>2015-03-06T10:25:55.000Z</time>
      </trkpt>
      <trkpt lat="48.68725" lon="1.77154">
        <ele>152</ele>
        <time>2015-03-06T10:26:00.000Z</time>
      </trkpt>
      <trkpt lat="48.68726" lon="1.77156">
        <ele>152</ele>
        <time>2015-03-06T10:26:02.000Z</time>
      </trkpt>
      <trkpt lat="48.68725" lon="1.77158">
        <ele>152</ele>
        <time>2015-03-06T10:26:05.000Z</time>
      </trkpt>
      <trkpt lat="48.68722" lon="1.77165">
        <ele>152.19999694824</ele>
        <time>2015-03-06T10:26:12.000Z</time>
      </trkpt>
      <trkpt lat="48.68716" lon="1.7718">
        <ele>152.60000610352</ele>
        <time>2015-03-06T10:26:18.000Z</time>
      </trkpt>
      <trkpt lat="48.68712" lon="1.7719">
        <ele>152.80000305176</ele>
        <time>2015-03-06T10:26:23.000Z</time>
      </trkpt>
      <trkpt lat="48.68703" lon="1.77204">
        <ele>152.80000305176</ele>
        <time>2015-03-06T10:26:31.000Z</time>
      </trkpt>
      <trkpt lat="48.687" lon="1.77214">
        <ele>153</ele>
        <time>2015-03-06T10:26:36.000Z</time>
      </trkpt>
      <trkpt lat="48.687" lon="1.77228">
        <ele>153.19999694824</ele>
        <time>2015-03-06T10:26:42.000Z</time>
      </trkpt>
      <trkpt lat="48.687" lon="1.77242">
        <ele>153.60000610352</ele>
        <time>2015-03-06T10:26:49.000Z</time>
      </trkpt>
      <trkpt lat="48.68701" lon="1.77248">
        <ele>153.80000305176</ele>
        <time>2015-03-06T10:26:52.000Z</time>
      </trkpt>
      <trkpt lat="48.68701" lon="1.77265">
        <ele>154.80000305176</ele>
        <time>2015-03-06T10:26:59.000Z</time>
      </trkpt>
      <trkpt lat="48.68701" lon="1.7727">
        <ele>155</ele>
        <time>2015-03-06T10:27:01.000Z</time>
      </trkpt>
      <trkpt lat="48.687" lon="1.77281">
        <ele>155.80000305176</ele>
        <time>2015-03-06T10:27:06.000Z</time>
      </trkpt>
      <trkpt lat="48.68697" lon="1.77293">
        <ele>156.39999389648</ele>
        <time>2015-03-06T10:27:12.000Z</time>
      </trkpt>
      <trkpt lat="48.68697" lon="1.773">
        <ele>156.80000305176</ele>
        <time>2015-03-06T10:27:15.000Z</time>
      </trkpt>
      <trkpt lat="48.68695" lon="1.7731">
        <ele>157.39999389648</ele>
        <time>2015-03-06T10:27:19.000Z</time>
      </trkpt>
      <trkpt lat="48.68698" lon="1.77325">
        <ele>158.19999694824</ele>
        <time>2015-03-06T10:27:27.000Z</time>
      </trkpt>
      <trkpt lat="48.68699" lon="1.77327">
        <ele>158.39999389648</ele>
        <time>2015-03-06T10:27:28.000Z</time>
      </trkpt>
      <trkpt lat="48.68698" lon="1.77339">
        <ele>159</ele>
        <time>2015-03-06T10:27:33.000Z</time>
      </trkpt>
      <trkpt lat="48.68698" lon="1.7735">
        <ele>159.60000610352</ele>
        <time>2015-03-06T10:27:37.000Z</time>
      </trkpt>
      <trkpt lat="48.68697" lon="1.77368">
        <ele>160.80000305176</ele>
        <time>2015-03-06T10:27:44.000Z</time>
      </trkpt>
      <trkpt lat="48.68695" lon="1.77386">
        <ele>161.80000305176</ele>
        <time>2015-03-06T10:27:50.000Z</time>
      </trkpt>
      <trkpt lat="48.68692" lon="1.77403">
        <ele>162.80000305176</ele>
        <time>2015-03-06T10:27:57.000Z</time>
      </trkpt>
      <trkpt lat="48.68691" lon="1.77407">
        <ele>163</ele>
        <time>2015-03-06T10:27:59.000Z</time>
      </trkpt>
      <trkpt lat="48.68689" lon="1.77424">
        <ele>163.19999694824</ele>
        <time>2015-03-06T10:28:07.000Z</time>
      </trkpt>
      <trkpt lat="48.68687" lon="1.77437">
        <ele>163.39999389648</ele>
        <time>2015-03-06T10:28:13.000Z</time>
      </trkpt>
      <trkpt lat="48.68687" lon="1.77439">
        <ele>163.39999389648</ele>
        <time>2015-03-06T10:28:14.000Z</time>
      </trkpt>
      <trkpt lat="48.68684" lon="1.77459">
        <ele>163.39999389648</ele>
        <time>2015-03-06T10:28:22.000Z</time>
      </trkpt>
      <trkpt lat="48.68685" lon="1.77464">
        <ele>163.60000610352</ele>
        <time>2015-03-06T10:28:25.000Z</time>
      </trkpt>
      <trkpt lat="48.68684" lon="1.77473">
        <ele>163.60000610352</ele>
        <time>2015-03-06T10:28:29.000Z</time>
      </trkpt>
      <trkpt lat="48.68684" lon="1.77478">
        <ele>163.60000610352</ele>
        <time>2015-03-06T10:28:31.000Z</time>
      </trkpt>
      <trkpt lat="48.68684" lon="1.77488">
        <ele>163.80000305176</ele>
        <time>2015-03-06T10:28:36.000Z</time>
      </trkpt>
      <trkpt lat="48.68684" lon="1.77493">
        <ele>164</ele>
        <time>2015-03-06T10:28:38.000Z</time>
      </trkpt>
      <trkpt lat="48.68685" lon="1.77497">
        <ele>164</ele>
        <time>2015-03-06T10:28:41.000Z</time>
      </trkpt>
      <trkpt lat="48.68685" lon="1.77512">
        <ele>164.19999694824</ele>
        <time>2015-03-06T10:28:46.000Z</time>
      </trkpt>
      <trkpt lat="48.68685" lon="1.7753">
        <ele>164.39999389648</ele>
        <time>2015-03-06T10:28:53.000Z</time>
      </trkpt>
      <trkpt lat="48.68686" lon="1.77545">
        <ele>164.60000610352</ele>
        <time>2015-03-06T10:28:59.000Z</time>
      </trkpt>
      <trkpt lat="48.68682" lon="1.77568">
        <ele>164.60000610352</ele>
        <time>2015-03-06T10:29:07.000Z</time>
      </trkpt>
      <trkpt lat="48.6868" lon="1.77582">
        <ele>165</ele>
        <time>2015-03-06T10:29:13.000Z</time>
      </trkpt>
      <trkpt lat="48.68681" lon="1.77596">
        <ele>165.39999389648</ele>
        <time>2015-03-06T10:29:19.000Z</time>
      </trkpt>
      <trkpt lat="48.6868" lon="1.77602">
        <ele>165.39999389648</ele>
        <time>2015-03-06T10:29:23.000Z</time>
      </trkpt>
      <trkpt lat="48.68683" lon="1.77615">
        <ele>165.80000305176</ele>
        <time>2015-03-06T10:29:29.000Z</time>
      </trkpt>
      <trkpt lat="48.68684" lon="1.77627">
        <ele>166.19999694824</ele>
        <time>2015-03-06T10:29:34.000Z</time>
      </trkpt>
      <trkpt lat="48.68688" lon="1.77645">
        <ele>166.80000305176</ele>
        <time>2015-03-06T10:29:41.000Z</time>
      </trkpt>
      <trkpt lat="48.6869" lon="1.77663">
        <ele>167.19999694824</ele>
        <time>2015-03-06T10:29:48.000Z</time>
      </trkpt>
      <trkpt lat="48.68692" lon="1.77679">
        <ele>167.60000610352</ele>
        <time>2015-03-06T10:29:54.000Z</time>
      </trkpt>
      <trkpt lat="48.68693" lon="1.77686">
        <ele>167.80000305176</ele>
        <time>2015-03-06T10:29:57.000Z</time>
      </trkpt>
      <trkpt lat="48.68697" lon="1.77704">
        <ele>168.39999389648</ele>
        <time>2015-03-06T10:30:05.000Z</time>
      </trkpt>
      <trkpt lat="48.68699" lon="1.77721">
        <ele>168.80000305176</ele>
        <time>2015-03-06T10:30:12.000Z</time>
      </trkpt>
      <trkpt lat="48.68703" lon="1.77728">
        <ele>169</ele>
        <time>2015-03-06T10:30:15.000Z</time>
      </trkpt>
      <trkpt lat="48.68702" lon="1.77733">
        <ele>169</ele>
        <time>2015-03-06T10:30:17.000Z</time>
      </trkpt>
      <trkpt lat="48.68703" lon="1.77749">
        <ele>169.39999389648</ele>
        <time>2015-03-06T10:30:24.000Z</time>
      </trkpt>
      <trkpt lat="48.68704" lon="1.77761">
        <ele>169.60000610352</ele>
        <time>2015-03-06T10:30:29.000Z</time>
      </trkpt>
      <trkpt lat="48.68705" lon="1.77779">
        <ele>170.19999694824</ele>
        <time>2015-03-06T10:30:36.000Z</time>
      </trkpt>
      <trkpt lat="48.68706" lon="1.77789">
        <ele>170.60000610352</ele>
        <time>2015-03-06T10:30:40.000Z</time>
      </trkpt>
      <trkpt lat="48.68711" lon="1.77802">
        <ele>171</ele>
        <time>2015-03-06T10:30:46.000Z</time>
      </trkpt>
      <trkpt lat="48.68713" lon="1.77809">
        <ele>171.19999694824</ele>
        <time>2015-03-06T10:30:49.000Z</time>
      </trkpt>
      <trkpt lat="48.68713" lon="1.77821">
        <ele>171.60000610352</ele>
        <time>2015-03-06T10:30:54.000Z</time>
      </trkpt>
      <trkpt lat="48.68715" lon="1.77835">
        <ele>172.80000305176</ele>
        <time>2015-03-06T10:31:00.000Z</time>
      </trkpt>
      <trkpt lat="48.68715" lon="1.77844">
        <ele>173.60000610352</ele>
        <time>2015-03-06T10:31:04.000Z</time>
      </trkpt>
      <trkpt lat="48.68717" lon="1.77851">
        <ele>174</ele>
        <time>2015-03-06T10:31:07.000Z</time>
      </trkpt>
      <trkpt lat="48.68718" lon="1.77865">
        <ele>175.39999389648</ele>
        <time>2015-03-06T10:31:13.000Z</time>
      </trkpt>
      <trkpt lat="48.68718" lon="1.77874">
        <ele>176</ele>
        <time>2015-03-06T10:31:17.000Z</time>
      </trkpt>
      <trkpt lat="48.68717" lon="1.77892">
        <ele>177.60000610352</ele>
        <time>2015-03-06T10:31:24.000Z</time>
      </trkpt>
      <trkpt lat="48.68715" lon="1.77902">
        <ele>178.39999389648</ele>
        <time>2015-03-06T10:31:30.000Z</time>
      </trkpt>
      <trkpt lat="48.68717" lon="1.77913">
        <ele>179</ele>
        <time>2015-03-06T10:31:35.000Z</time>
      </trkpt>
      <trkpt lat="48.6872" lon="1.77931">
        <ele>179.80000305176</ele>
        <time>2015-03-06T10:31:43.000Z</time>
      </trkpt>
      <trkpt lat="48.68722" lon="1.77935">
        <ele>180</ele>
        <time>2015-03-06T10:31:45.000Z</time>
      </trkpt>
      <trkpt lat="48.68724" lon="1.77946">
        <ele>180.39999389648</ele>
        <time>2015-03-06T10:31:50.000Z</time>
      </trkpt>
      <trkpt lat="48.68725" lon="1.77955">
        <ele>180.80000305176</ele>
        <time>2015-03-06T10:31:54.000Z</time>
      </trkpt>
      <trkpt lat="48.68728" lon="1.77966">
        <ele>181.19999694824</ele>
        <time>2015-03-06T10:31:59.000Z</time>
      </trkpt>
      <trkpt lat="48.68729" lon="1.77982">
        <ele>181.80000305176</ele>
        <time>2015-03-06T10:32:05.000Z</time>
      </trkpt>
      <trkpt lat="48.68729" lon="1.77995">
        <ele>182</ele>
        <time>2015-03-06T10:32:10.000Z</time>
      </trkpt>
      <trkpt lat="48.68727" lon="1.78007">
        <ele>182</ele>
        <time>2015-03-06T10:32:15.000Z</time>
      </trkpt>
      <trkpt lat="48.68729" lon="1.78018">
        <ele>182</ele>
        <time>2015-03-06T10:32:20.000Z</time>
      </trkpt>
      <trkpt lat="48.68731" lon="1.78029">
        <ele>182</ele>
        <time>2015-03-06T10:32:25.000Z</time>
      </trkpt>
      <trkpt lat="48.68739" lon="1.78045">
        <ele>182</ele>
        <time>2015-03-06T10:32:34.000Z</time>
      </trkpt>
      <trkpt lat="48.6874" lon="1.78047">
        <ele>182</ele>
        <time>2015-03-06T10:32:42.000Z</time>
      </trkpt>
      <trkpt lat="48.68746" lon="1.78052">
        <ele>182</ele>
        <time>2015-03-06T10:34:29.000Z</time>
      </trkpt>
      <trkpt lat="48.68739" lon="1.78047">
        <ele>182</ele>
        <time>2015-03-06T10:34:33.000Z</time>
      </trkpt>
      <trkpt lat="48.68734" lon="1.78042">
        <ele>182</ele>
        <time>2015-03-06T10:34:38.000Z</time>
      </trkpt>
      <trkpt lat="48.68726" lon="1.78039">
        <ele>182</ele>
        <time>2015-03-06T10:34:43.000Z</time>
      </trkpt>
      <trkpt lat="48.6872" lon="1.78036">
        <ele>182</ele>
        <time>2015-03-06T10:34:48.000Z</time>
      </trkpt>
      <trkpt lat="48.68711" lon="1.78032">
        <ele>182</ele>
        <time>2015-03-06T10:34:53.000Z</time>
      </trkpt>
      <trkpt lat="48.68697" lon="1.78024">
        <ele>182</ele>
        <time>2015-03-06T10:35:01.000Z</time>
      </trkpt>
      <trkpt lat="48.68678" lon="1.78012">
        <ele>181.39999389648</ele>
        <time>2015-03-06T10:35:08.000Z</time>
      </trkpt>
      <trkpt lat="48.68668" lon="1.78009">
        <ele>180.39999389648</ele>
        <time>2015-03-06T10:35:13.000Z</time>
      </trkpt>
      <trkpt lat="48.68665" lon="1.78007">
        <ele>180.19999694824</ele>
        <time>2015-03-06T10:35:16.000Z</time>
      </trkpt>
      <trkpt lat="48.68656" lon="1.78007">
        <ele>179.39999389648</ele>
        <time>2015-03-06T10:35:23.000Z</time>
      </trkpt>
      <trkpt lat="48.68652" lon="1.78009">
        <ele>179</ele>
        <time>2015-03-06T10:35:26.000Z</time>
      </trkpt>
      <trkpt lat="48.68647" lon="1.78009">
        <ele>178.60000610352</ele>
        <time>2015-03-06T10:35:31.000Z</time>
      </trkpt>
      <trkpt lat="48.68639" lon="1.78016">
        <ele>178</ele>
        <time>2015-03-06T10:35:36.000Z</time>
      </trkpt>
      <trkpt lat="48.68633" lon="1.78022">
        <ele>177.60000610352</ele>
        <time>2015-03-06T10:35:42.000Z</time>
      </trkpt>
      <trkpt lat="48.68626" lon="1.7803">
        <ele>177.39999389648</ele>
        <time>2015-03-06T10:35:48.000Z</time>
      </trkpt>
      <trkpt lat="48.68619" lon="1.78039">
        <ele>177.19999694824</ele>
        <time>2015-03-06T10:35:52.000Z</time>
      </trkpt>
      <trkpt lat="48.68615" lon="1.78045">
        <ele>177</ele>
        <time>2015-03-06T10:35:55.000Z</time>
      </trkpt>
      <trkpt lat="48.68607" lon="1.78056">
        <ele>176.80000305176</ele>
        <time>2015-03-06T10:36:03.000Z</time>
      </trkpt>
      <trkpt lat="48.68599" lon="1.78064">
        <ele>176.39999389648</ele>
        <time>2015-03-06T10:36:09.000Z</time>
      </trkpt>
      <trkpt lat="48.68594" lon="1.78068">
        <ele>176</ele>
        <time>2015-03-06T10:36:13.000Z</time>
      </trkpt>
      <trkpt lat="48.68586" lon="1.78081">
        <ele>174.60000610352</ele>
        <time>2015-03-06T10:36:19.000Z</time>
      </trkpt>
      <trkpt lat="48.6858" lon="1.78092">
        <ele>173.39999389648</ele>
        <time>2015-03-06T10:36:25.000Z</time>
      </trkpt>
      <trkpt lat="48.68573" lon="1.78103">
        <ele>172.19999694824</ele>
        <time>2015-03-06T10:36:31.000Z</time>
      </trkpt>
      <trkpt lat="48.68568" lon="1.78109">
        <ele>171.39999389648</ele>
        <time>2015-03-06T10:36:36.000Z</time>
      </trkpt>
      <trkpt lat="48.68562" lon="1.78119">
        <ele>170.60000610352</ele>
        <time>2015-03-06T10:36:41.000Z</time>
      </trkpt>
      <trkpt lat="48.68554" lon="1.78131">
        <ele>170</ele>
        <time>2015-03-06T10:36:47.000Z</time>
      </trkpt>
      <trkpt lat="48.68553" lon="1.78132">
        <ele>170</ele>
        <time>2015-03-06T10:36:48.000Z</time>
      </trkpt>
      <trkpt lat="48.68544" lon="1.78143">
        <ele>169.39999389648</ele>
        <time>2015-03-06T10:36:55.000Z</time>
      </trkpt>
      <trkpt lat="48.68536" lon="1.78154">
        <ele>169</ele>
        <time>2015-03-06T10:37:00.000Z</time>
      </trkpt>
      <trkpt lat="48.68528" lon="1.78166">
        <ele>168.39999389648</ele>
        <time>2015-03-06T10:37:04.000Z</time>
      </trkpt>
      <trkpt lat="48.68511" lon="1.78193">
        <ele>169</ele>
        <time>2015-03-06T10:37:12.000Z</time>
      </trkpt>
      <trkpt lat="48.68503" lon="1.78201">
        <ele>169</ele>
        <time>2015-03-06T10:37:17.000Z</time>
      </trkpt>
      <trkpt lat="48.68493" lon="1.78213">
        <ele>169.19999694824</ele>
        <time>2015-03-06T10:37:23.000Z</time>
      </trkpt>
      <trkpt lat="48.68485" lon="1.78224">
        <ele>170.80000305176</ele>
        <time>2015-03-06T10:37:30.000Z</time>
      </trkpt>
      <trkpt lat="48.68483" lon="1.78227">
        <ele>171</ele>
        <time>2015-03-06T10:37:32.000Z</time>
      </trkpt>
      <trkpt lat="48.68477" lon="1.78231">
        <ele>171.80000305176</ele>
        <time>2015-03-06T10:37:39.000Z</time>
      </trkpt>
      <trkpt lat="48.6847" lon="1.78239">
        <ele>172.80000305176</ele>
        <time>2015-03-06T10:37:45.000Z</time>
      </trkpt>
      <trkpt lat="48.68459" lon="1.78259">
        <ele>174.80000305176</ele>
        <time>2015-03-06T10:37:52.000Z</time>
      </trkpt>
      <trkpt lat="48.6845" lon="1.78277">
        <ele>176</ele>
        <time>2015-03-06T10:37:59.000Z</time>
      </trkpt>
      <trkpt lat="48.68446" lon="1.78281">
        <ele>176.39999389648</ele>
        <time>2015-03-06T10:38:04.000Z</time>
      </trkpt>
      <trkpt lat="48.68438" lon="1.78292">
        <ele>177.19999694824</ele>
        <time>2015-03-06T10:38:10.000Z</time>
      </trkpt>
      <trkpt lat="48.68431" lon="1.78302">
        <ele>177.39999389648</ele>
        <time>2015-03-06T10:38:16.000Z</time>
      </trkpt>
      <trkpt lat="48.68423" lon="1.78313">
        <ele>177.80000305176</ele>
        <time>2015-03-06T10:38:22.000Z</time>
      </trkpt>
      <trkpt lat="48.68414" lon="1.78323">
        <ele>178</ele>
        <time>2015-03-06T10:38:28.000Z</time>
      </trkpt>
      <trkpt lat="48.68404" lon="1.78336">
        <ele>178.19999694824</ele>
        <time>2015-03-06T10:38:32.000Z</time>
      </trkpt>
      <trkpt lat="48.68396" lon="1.78346">
        <ele>178.19999694824</ele>
        <time>2015-03-06T10:38:38.000Z</time>
      </trkpt>
      <trkpt lat="48.68391" lon="1.78352">
        <ele>178.19999694824</ele>
        <time>2015-03-06T10:38:43.000Z</time>
      </trkpt>
      <trkpt lat="48.68385" lon="1.78369">
        <ele>178.19999694824</ele>
        <time>2015-03-06T10:38:49.000Z</time>
      </trkpt>
      <trkpt lat="48.68386" lon="1.78376">
        <ele>178.39999389648</ele>
        <time>2015-03-06T10:38:52.000Z</time>
      </trkpt>
      <trkpt lat="48.68385" lon="1.7838">
        <ele>178.39999389648</ele>
        <time>2015-03-06T10:38:54.000Z</time>
      </trkpt>
      <trkpt lat="48.68382" lon="1.78386">
        <ele>178.19999694824</ele>
        <time>2015-03-06T10:38:58.000Z</time>
      </trkpt>
      <trkpt lat="48.68377" lon="1.78399">
        <ele>178</ele>
        <time>2015-03-06T10:39:04.000Z</time>
      </trkpt>
      <trkpt lat="48.68374" lon="1.78408">
        <ele>177.80000305176</ele>
        <time>2015-03-06T10:39:08.000Z</time>
      </trkpt>
      <trkpt lat="48.68371" lon="1.78416">
        <ele>177.60000610352</ele>
        <time>2015-03-06T10:39:11.000Z</time>
      </trkpt>
      <trkpt lat="48.68364" lon="1.78432">
        <ele>177.60000610352</ele>
        <time>2015-03-06T10:39:18.000Z</time>
      </trkpt>
      <trkpt lat="48.68358" lon="1.78448">
        <ele>177.80000305176</ele>
        <time>2015-03-06T10:39:25.000Z</time>
      </trkpt>
      <trkpt lat="48.68353" lon="1.78464">
        <ele>178.19999694824</ele>
        <time>2015-03-06T10:39:32.000Z</time>
      </trkpt>
      <trkpt lat="48.68346" lon="1.78477">
        <ele>178</ele>
        <time>2015-03-06T10:39:38.000Z</time>
      </trkpt>
      <trkpt lat="48.68339" lon="1.78492">
        <ele>177.19999694824</ele>
        <time>2015-03-06T10:39:45.000Z</time>
      </trkpt>
      <trkpt lat="48.68333" lon="1.78502">
        <ele>176.39999389648</ele>
        <time>2015-03-06T10:39:51.000Z</time>
      </trkpt>
      <trkpt lat="48.68328" lon="1.78513">
        <ele>176</ele>
        <time>2015-03-06T10:39:57.000Z</time>
      </trkpt>
      <trkpt lat="48.68323" lon="1.78526">
        <ele>175.60000610352</ele>
        <time>2015-03-06T10:40:05.000Z</time>
      </trkpt>
      <trkpt lat="48.68318" lon="1.78536">
        <ele>174.80000305176</ele>
        <time>2015-03-06T10:40:09.000Z</time>
      </trkpt>
      <trkpt lat="48.6831" lon="1.78554">
        <ele>173.80000305176</ele>
        <time>2015-03-06T10:40:16.000Z</time>
      </trkpt>
      <trkpt lat="48.68305" lon="1.78564">
        <ele>173</ele>
        <time>2015-03-06T10:40:21.000Z</time>
      </trkpt>
      <trkpt lat="48.68299" lon="1.78581">
        <ele>172.39999389648</ele>
        <time>2015-03-06T10:40:27.000Z</time>
      </trkpt>
      <trkpt lat="48.68294" lon="1.78593">
        <ele>171.60000610352</ele>
        <time>2015-03-06T10:40:33.000Z</time>
      </trkpt>
      <trkpt lat="48.68289" lon="1.78605">
        <ele>171.80000305176</ele>
        <time>2015-03-06T10:40:38.000Z</time>
      </trkpt>
      <trkpt lat="48.68287" lon="1.78612">
        <ele>172</ele>
        <time>2015-03-06T10:40:42.000Z</time>
      </trkpt>
      <trkpt lat="48.6828" lon="1.78633">
        <ele>172.60000610352</ele>
        <time>2015-03-06T10:40:50.000Z</time>
      </trkpt>
      <trkpt lat="48.68276" lon="1.78644">
        <ele>173</ele>
        <time>2015-03-06T10:40:55.000Z</time>
      </trkpt>
      <trkpt lat="48.68272" lon="1.78651">
        <ele>173</ele>
        <time>2015-03-06T10:40:59.000Z</time>
      </trkpt>
      <trkpt lat="48.68267" lon="1.78664">
        <ele>173.39999389648</ele>
        <time>2015-03-06T10:41:05.000Z</time>
      </trkpt>
      <trkpt lat="48.6826" lon="1.78677">
        <ele>174</ele>
        <time>2015-03-06T10:41:10.000Z</time>
      </trkpt>
      <trkpt lat="48.68256" lon="1.7869">
        <ele>174.80000305176</ele>
        <time>2015-03-06T10:41:16.000Z</time>
      </trkpt>
      <trkpt lat="48.6825" lon="1.78704">
        <ele>175.39999389648</ele>
        <time>2015-03-06T10:41:22.000Z</time>
      </trkpt>
      <trkpt lat="48.68247" lon="1.78714">
        <ele>176</ele>
        <time>2015-03-06T10:41:27.000Z</time>
      </trkpt>
      <trkpt lat="48.68241" lon="1.78726">
        <ele>176.19999694824</ele>
        <time>2015-03-06T10:41:34.000Z</time>
      </trkpt>
      <trkpt lat="48.68236" lon="1.78738">
        <ele>176.39999389648</ele>
        <time>2015-03-06T10:41:39.000Z</time>
      </trkpt>
      <trkpt lat="48.6823" lon="1.7875">
        <ele>176.60000610352</ele>
        <time>2015-03-06T10:41:46.000Z</time>
      </trkpt>
      <trkpt lat="48.68226" lon="1.78758">
        <ele>176.60000610352</ele>
        <time>2015-03-06T10:41:51.000Z</time>
      </trkpt>
      <trkpt lat="48.68218" lon="1.78779">
        <ele>176.80000305176</ele>
        <time>2015-03-06T10:41:58.000Z</time>
      </trkpt>
      <trkpt lat="48.6821" lon="1.78799">
        <ele>176.80000305176</ele>
        <time>2015-03-06T10:42:05.000Z</time>
      </trkpt>
      <trkpt lat="48.68204" lon="1.78813">
        <ele>176.80000305176</ele>
        <time>2015-03-06T10:42:11.000Z</time>
      </trkpt>
      <trkpt lat="48.68196" lon="1.78829">
        <ele>176.80000305176</ele>
        <time>2015-03-06T10:42:18.000Z</time>
      </trkpt>
      <trkpt lat="48.6819" lon="1.78841">
        <ele>176.80000305176</ele>
        <time>2015-03-06T10:42:24.000Z</time>
      </trkpt>
      <trkpt lat="48.68185" lon="1.78855">
        <ele>176.80000305176</ele>
        <time>2015-03-06T10:42:31.000Z</time>
      </trkpt>
      <trkpt lat="48.6818" lon="1.78869">
        <ele>177</ele>
        <time>2015-03-06T10:42:37.000Z</time>
      </trkpt>
      <trkpt lat="48.68179" lon="1.78885">
        <ele>177.19999694824</ele>
        <time>2015-03-06T10:42:45.000Z</time>
      </trkpt>
      <trkpt lat="48.68181" lon="1.78894">
        <ele>177.60000610352</ele>
        <time>2015-03-06T10:42:49.000Z</time>
      </trkpt>
      <trkpt lat="48.6818" lon="1.78903">
        <ele>177.60000610352</ele>
        <time>2015-03-06T10:42:53.000Z</time>
      </trkpt>
      <trkpt lat="48.68178" lon="1.78918">
        <ele>177.39999389648</ele>
        <time>2015-03-06T10:43:00.000Z</time>
      </trkpt>
      <trkpt lat="48.68177" lon="1.78928">
        <ele>177.39999389648</ele>
        <time>2015-03-06T10:43:04.000Z</time>
      </trkpt>
      <trkpt lat="48.68176" lon="1.78934">
        <ele>177.39999389648</ele>
        <time>2015-03-06T10:43:07.000Z</time>
      </trkpt>
      <trkpt lat="48.68173" lon="1.78946">
        <ele>177.39999389648</ele>
        <time>2015-03-06T10:43:12.000Z</time>
      </trkpt>
      <trkpt lat="48.68173" lon="1.78957">
        <ele>177.60000610352</ele>
        <time>2015-03-06T10:43:17.000Z</time>
      </trkpt>
      <trkpt lat="48.68171" lon="1.78976">
        <ele>177.60000610352</ele>
        <time>2015-03-06T10:43:22.000Z</time>
      </trkpt>
      <trkpt lat="48.68171" lon="1.78992">
        <ele>177.60000610352</ele>
        <time>2015-03-06T10:43:27.000Z</time>
      </trkpt>
      <trkpt lat="48.68171" lon="1.78995">
        <ele>177.60000610352</ele>
        <time>2015-03-06T10:43:29.000Z</time>
      </trkpt>
      <trkpt lat="48.68172" lon="1.79007">
        <ele>177.80000305176</ele>
        <time>2015-03-06T10:43:34.000Z</time>
      </trkpt>
      <trkpt lat="48.68171" lon="1.79019">
        <ele>178</ele>
        <time>2015-03-06T10:43:39.000Z</time>
      </trkpt>
      <trkpt lat="48.6817" lon="1.79027">
        <ele>178</ele>
        <time>2015-03-06T10:43:42.000Z</time>
      </trkpt>
      <trkpt lat="48.68169" lon="1.79045">
        <ele>178</ele>
        <time>2015-03-06T10:43:49.000Z</time>
      </trkpt>
      <trkpt lat="48.68169" lon="1.79053">
        <ele>178.19999694824</ele>
        <time>2015-03-06T10:43:53.000Z</time>
      </trkpt>
      <trkpt lat="48.68169" lon="1.79069">
        <ele>178.39999389648</ele>
        <time>2015-03-06T10:44:00.000Z</time>
      </trkpt>
      <trkpt lat="48.68169" lon="1.79072">
        <ele>178.60000610352</ele>
        <time>2015-03-06T10:44:01.000Z</time>
      </trkpt>
      <trkpt lat="48.68168" lon="1.79079">
        <ele>178.60000610352</ele>
        <time>2015-03-06T10:44:06.000Z</time>
      </trkpt>
      <trkpt lat="48.68167" lon="1.79084">
        <ele>178.60000610352</ele>
        <time>2015-03-06T10:44:10.000Z</time>
      </trkpt>
      <trkpt lat="48.68167" lon="1.79089">
        <ele>178.80000305176</ele>
        <time>2015-03-06T10:44:11.000Z</time>
      </trkpt>
      <trkpt lat="48.68168" lon="1.791">
        <ele>179.19999694824</ele>
        <time>2015-03-06T10:44:16.000Z</time>
      </trkpt>
      <trkpt lat="48.68167" lon="1.79115">
        <ele>179.39999389648</ele>
        <time>2015-03-06T10:44:23.000Z</time>
      </trkpt>
      <trkpt lat="48.68164" lon="1.79136">
        <ele>179.60000610352</ele>
        <time>2015-03-06T10:44:31.000Z</time>
      </trkpt>
      <trkpt lat="48.68163" lon="1.7917">
        <ele>180</ele>
        <time>2015-03-06T10:44:38.000Z</time>
      </trkpt>
      <trkpt lat="48.68161" lon="1.79187">
        <ele>179.80000305176</ele>
        <time>2015-03-06T10:44:43.000Z</time>
      </trkpt>
      <trkpt lat="48.68158" lon="1.79208">
        <ele>179.60000610352</ele>
        <time>2015-03-06T10:44:51.000Z</time>
      </trkpt>
      <trkpt lat="48.68157" lon="1.79214">
        <ele>179.60000610352</ele>
        <time>2015-03-06T10:44:53.000Z</time>
      </trkpt>
      <trkpt lat="48.68157" lon="1.79223">
        <ele>179.60000610352</ele>
        <time>2015-03-06T10:44:58.000Z</time>
      </trkpt>
      <trkpt lat="48.68157" lon="1.79226">
        <ele>179.60000610352</ele>
        <time>2015-03-06T10:45:00.000Z</time>
      </trkpt>
      <trkpt lat="48.68155" lon="1.79238">
        <ele>179.39999389648</ele>
        <time>2015-03-06T10:45:04.000Z</time>
      </trkpt>
      <trkpt lat="48.68159" lon="1.79259">
        <ele>180.19999694824</ele>
        <time>2015-03-06T10:45:12.000Z</time>
      </trkpt>
      <trkpt lat="48.6816" lon="1.79263">
        <ele>180.39999389648</ele>
        <time>2015-03-06T10:45:14.000Z</time>
      </trkpt>
      <trkpt lat="48.6816" lon="1.79276">
        <ele>180.80000305176</ele>
        <time>2015-03-06T10:45:21.000Z</time>
      </trkpt>
      <trkpt lat="48.68157" lon="1.79292">
        <ele>180.80000305176</ele>
        <time>2015-03-06T10:45:26.000Z</time>
      </trkpt>
      <trkpt lat="48.68157" lon="1.79313">
        <ele>180.60000610352</ele>
        <time>2015-03-06T10:45:31.000Z</time>
      </trkpt>
      <trkpt lat="48.68157" lon="1.79326">
        <ele>180.39999389648</ele>
        <time>2015-03-06T10:45:35.000Z</time>
      </trkpt>
      <trkpt lat="48.68156" lon="1.79338">
        <ele>180</ele>
        <time>2015-03-06T10:45:39.000Z</time>
      </trkpt>
      <trkpt lat="48.68152" lon="1.79355">
        <ele>179</ele>
        <time>2015-03-06T10:45:44.000Z</time>
      </trkpt>
      <trkpt lat="48.68151" lon="1.79366">
        <ele>178.80000305176</ele>
        <time>2015-03-06T10:45:47.000Z</time>
      </trkpt>
      <trkpt lat="48.68151" lon="1.79372">
        <ele>178.60000610352</ele>
        <time>2015-03-06T10:45:49.000Z</time>
      </trkpt>
      <trkpt lat="48.68152" lon="1.79382">
        <ele>178.60000610352</ele>
        <time>2015-03-06T10:45:53.000Z</time>
      </trkpt>
      <trkpt lat="48.68151" lon="1.79392">
        <ele>178.60000610352</ele>
        <time>2015-03-06T10:45:57.000Z</time>
      </trkpt>
      <trkpt lat="48.68149" lon="1.79407">
        <ele>178.39999389648</ele>
        <time>2015-03-06T10:46:02.000Z</time>
      </trkpt>
      <trkpt lat="48.68148" lon="1.79411">
        <ele>178.19999694824</ele>
        <time>2015-03-06T10:46:03.000Z</time>
      </trkpt>
      <trkpt lat="48.68147" lon="1.79431">
        <ele>178</ele>
        <time>2015-03-06T10:46:10.000Z</time>
      </trkpt>
      <trkpt lat="48.68147" lon="1.79447">
        <ele>177.80000305176</ele>
        <time>2015-03-06T10:46:15.000Z</time>
      </trkpt>
      <trkpt lat="48.68146" lon="1.79459">
        <ele>177.80000305176</ele>
        <time>2015-03-06T10:46:19.000Z</time>
      </trkpt>
      <trkpt lat="48.68146" lon="1.79471">
        <ele>177.80000305176</ele>
        <time>2015-03-06T10:46:24.000Z</time>
      </trkpt>
      <trkpt lat="48.68143" lon="1.79487">
        <ele>177.80000305176</ele>
        <time>2015-03-06T10:46:32.000Z</time>
      </trkpt>
      <trkpt lat="48.68143" lon="1.79506">
        <ele>177.39999389648</ele>
        <time>2015-03-06T10:46:40.000Z</time>
      </trkpt>
      <trkpt lat="48.68141" lon="1.79527">
        <ele>176.80000305176</ele>
        <time>2015-03-06T10:46:48.000Z</time>
      </trkpt>
      <trkpt lat="48.6814" lon="1.79547">
        <ele>176</ele>
        <time>2015-03-06T10:46:55.000Z</time>
      </trkpt>
      <trkpt lat="48.68139" lon="1.79572">
        <ele>175</ele>
        <time>2015-03-06T10:47:03.000Z</time>
      </trkpt>
      <trkpt lat="48.68139" lon="1.79588">
        <ele>175.39999389648</ele>
        <time>2015-03-06T10:47:10.000Z</time>
      </trkpt>
      <trkpt lat="48.68138" lon="1.79604">
        <ele>175.80000305176</ele>
        <time>2015-03-06T10:47:16.000Z</time>
      </trkpt>
      <trkpt lat="48.68138" lon="1.79619">
        <ele>176.39999389648</ele>
        <time>2015-03-06T10:47:23.000Z</time>
      </trkpt>
      <trkpt lat="48.68136" lon="1.7963">
        <ele>176.80000305176</ele>
        <time>2015-03-06T10:47:28.000Z</time>
      </trkpt>
      <trkpt lat="48.68138" lon="1.79633">
        <ele>177</ele>
        <time>2015-03-06T10:47:30.000Z</time>
      </trkpt>
      <trkpt lat="48.68138" lon="1.79648">
        <ele>177.80000305176</ele>
        <time>2015-03-06T10:47:36.000Z</time>
      </trkpt>
      <trkpt lat="48.68136" lon="1.79661">
        <ele>178.19999694824</ele>
        <time>2015-03-06T10:47:40.000Z</time>
      </trkpt>
      <trkpt lat="48.68134" lon="1.79675">
        <ele>178.60000610352</ele>
        <time>2015-03-06T10:47:46.000Z</time>
      </trkpt>
      <trkpt lat="48.68133" lon="1.7969">
        <ele>179.19999694824</ele>
        <time>2015-03-06T10:47:52.000Z</time>
      </trkpt>
      <trkpt lat="48.68132" lon="1.79707">
        <ele>180.19999694824</ele>
        <time>2015-03-06T10:47:58.000Z</time>
      </trkpt>
      <trkpt lat="48.68132" lon="1.79731">
        <ele>181.60000610352</ele>
        <time>2015-03-06T10:48:07.000Z</time>
      </trkpt>
      <trkpt lat="48.68133" lon="1.79735">
        <ele>181.80000305176</ele>
        <time>2015-03-06T10:48:09.000Z</time>
      </trkpt>
      <trkpt lat="48.68132" lon="1.79752">
        <ele>182.39999389648</ele>
        <time>2015-03-06T10:48:15.000Z</time>
      </trkpt>
      <trkpt lat="48.68132" lon="1.79754">
        <ele>182.39999389648</ele>
        <time>2015-03-06T10:48:16.000Z</time>
      </trkpt>
      <trkpt lat="48.68129" lon="1.79768">
        <ele>182.60000610352</ele>
        <time>2015-03-06T10:48:21.000Z</time>
      </trkpt>
      <trkpt lat="48.68129" lon="1.79792">
        <ele>182.80000305176</ele>
        <time>2015-03-06T10:48:30.000Z</time>
      </trkpt>
      <trkpt lat="48.68129" lon="1.79794">
        <ele>183</ele>
        <time>2015-03-06T10:48:31.000Z</time>
      </trkpt>
      <trkpt lat="48.68128" lon="1.79804">
        <ele>183</ele>
        <time>2015-03-06T10:48:37.000Z</time>
      </trkpt>
      <trkpt lat="48.68128" lon="1.79805">
        <ele>183</ele>
        <time>2015-03-06T10:48:38.000Z</time>
      </trkpt>
      <trkpt lat="48.6813" lon="1.79827">
        <ele>183.39999389648</ele>
        <time>2015-03-06T10:48:47.000Z</time>
      </trkpt>
      <trkpt lat="48.68129" lon="1.79838">
        <ele>183.39999389648</ele>
        <time>2015-03-06T10:48:51.000Z</time>
      </trkpt>
      <trkpt lat="48.68129" lon="1.79848">
        <ele>183.60000610352</ele>
        <time>2015-03-06T10:48:56.000Z</time>
      </trkpt>
      <trkpt lat="48.68128" lon="1.79863">
        <ele>184</ele>
        <time>2015-03-06T10:49:01.000Z</time>
      </trkpt>
      <trkpt lat="48.68125" lon="1.79877">
        <ele>184.60000610352</ele>
        <time>2015-03-06T10:49:07.000Z</time>
      </trkpt>
      <trkpt lat="48.68127" lon="1.79891">
        <ele>185</ele>
        <time>2015-03-06T10:49:13.000Z</time>
      </trkpt>
      <trkpt lat="48.68127" lon="1.79894">
        <ele>185.19999694824</ele>
        <time>2015-03-06T10:49:14.000Z</time>
      </trkpt>
      <trkpt lat="48.68127" lon="1.79906">
        <ele>185.60000610352</ele>
        <time>2015-03-06T10:49:19.000Z</time>
      </trkpt>
      <trkpt lat="48.68125" lon="1.79917">
        <ele>185.60000610352</ele>
        <time>2015-03-06T10:49:23.000Z</time>
      </trkpt>
      <trkpt lat="48.68123" lon="1.79932">
        <ele>185.39999389648</ele>
        <time>2015-03-06T10:49:30.000Z</time>
      </trkpt>
      <trkpt lat="48.68123" lon="1.79944">
        <ele>185.19999694824</ele>
        <time>2015-03-06T10:49:35.000Z</time>
      </trkpt>
      <trkpt lat="48.68119" lon="1.79966">
        <ele>184.80000305176</ele>
        <time>2015-03-06T10:49:43.000Z</time>
      </trkpt>
      <trkpt lat="48.68117" lon="1.79985">
        <ele>184.60000610352</ele>
        <time>2015-03-06T10:49:50.000Z</time>
      </trkpt>
      <trkpt lat="48.68118" lon="1.79997">
        <ele>184.60000610352</ele>
        <time>2015-03-06T10:49:56.000Z</time>
      </trkpt>
      <trkpt lat="48.68119" lon="1.80002">
        <ele>184.60000610352</ele>
        <time>2015-03-06T10:49:58.000Z</time>
      </trkpt>
      <trkpt lat="48.68121" lon="1.80009">
        <ele>184.60000610352</ele>
        <time>2015-03-06T10:50:04.000Z</time>
      </trkpt>
      <trkpt lat="48.68122" lon="1.80019">
        <ele>184.60000610352</ele>
        <time>2015-03-06T10:50:09.000Z</time>
      </trkpt>
      <trkpt lat="48.68121" lon="1.80041">
        <ele>184.19999694824</ele>
        <time>2015-03-06T10:50:18.000Z</time>
      </trkpt>
      <trkpt lat="48.68123" lon="1.80054">
        <ele>184.19999694824</ele>
        <time>2015-03-06T10:50:25.000Z</time>
      </trkpt>
      <trkpt lat="48.68124" lon="1.80064">
        <ele>184.19999694824</ele>
        <time>2015-03-06T10:50:30.000Z</time>
      </trkpt>
      <trkpt lat="48.6812" lon="1.80079">
        <ele>184</ele>
        <time>2015-03-06T10:50:34.000Z</time>
      </trkpt>
      <trkpt lat="48.68118" lon="1.80097">
        <ele>184.19999694824</ele>
        <time>2015-03-06T10:50:40.000Z</time>
      </trkpt>
      <trkpt lat="48.68118" lon="1.801">
        <ele>184.19999694824</ele>
        <time>2015-03-06T10:50:42.000Z</time>
      </trkpt>
      <trkpt lat="48.68118" lon="1.80115">
        <ele>184.60000610352</ele>
        <time>2015-03-06T10:50:48.000Z</time>
      </trkpt>
      <trkpt lat="48.68119" lon="1.8012">
        <ele>184.80000305176</ele>
        <time>2015-03-06T10:50:50.000Z</time>
      </trkpt>
      <trkpt lat="48.68117" lon="1.80137">
        <ele>185</ele>
        <time>2015-03-06T10:50:58.000Z</time>
      </trkpt>
      <trkpt lat="48.68116" lon="1.8014">
        <ele>185.19999694824</ele>
        <time>2015-03-06T10:50:59.000Z</time>
      </trkpt>
      <trkpt lat="48.68117" lon="1.80159">
        <ele>185.39999389648</ele>
        <time>2015-03-06T10:51:07.000Z</time>
      </trkpt>
      <trkpt lat="48.68117" lon="1.80177">
        <ele>184.80000305176</ele>
        <time>2015-03-06T10:51:14.000Z</time>
      </trkpt>
      <trkpt lat="48.68118" lon="1.80197">
        <ele>184.39999389648</ele>
        <time>2015-03-06T10:51:21.000Z</time>
      </trkpt>
      <trkpt lat="48.68107" lon="1.80235">
        <ele>184</ele>
        <time>2015-03-06T10:51:28.000Z</time>
      </trkpt>
      <trkpt lat="48.68104" lon="1.80258">
        <ele>183</ele>
        <time>2015-03-06T10:51:34.000Z</time>
      </trkpt>
      <trkpt lat="48.68102" lon="1.80279">
        <ele>182</ele>
        <time>2015-03-06T10:51:40.000Z</time>
      </trkpt>
      <trkpt lat="48.68101" lon="1.80302">
        <ele>181</ele>
        <time>2015-03-06T10:51:46.000Z</time>
      </trkpt>
      <trkpt lat="48.68101" lon="1.80304">
        <ele>180.80000305176</ele>
        <time>2015-03-06T10:51:47.000Z</time>
      </trkpt>
      <trkpt lat="48.68101" lon="1.80318">
        <ele>180.19999694824</ele>
        <time>2015-03-06T10:51:53.000Z</time>
      </trkpt>
      <trkpt lat="48.68097" lon="1.80341">
        <ele>180.19999694824</ele>
        <time>2015-03-06T10:52:00.000Z</time>
      </trkpt>
      <trkpt lat="48.68096" lon="1.80359">
        <ele>180.19999694824</ele>
        <time>2015-03-06T10:52:07.000Z</time>
      </trkpt>
      <trkpt lat="48.68095" lon="1.80375">
        <ele>180.39999389648</ele>
        <time>2015-03-06T10:52:13.000Z</time>
      </trkpt>
      <trkpt lat="48.68093" lon="1.80396">
        <ele>180.39999389648</ele>
        <time>2015-03-06T10:52:21.000Z</time>
      </trkpt>
      <trkpt lat="48.68093" lon="1.80413">
        <ele>180.39999389648</ele>
        <time>2015-03-06T10:52:27.000Z</time>
      </trkpt>
      <trkpt lat="48.68091" lon="1.80435">
        <ele>180.80000305176</ele>
        <time>2015-03-06T10:52:35.000Z</time>
      </trkpt>
      <trkpt lat="48.68091" lon="1.80453">
        <ele>181</ele>
        <time>2015-03-06T10:52:42.000Z</time>
      </trkpt>
      <trkpt lat="48.6809" lon="1.80456">
        <ele>181</ele>
        <time>2015-03-06T10:52:43.000Z</time>
      </trkpt>
      <trkpt lat="48.68089" lon="1.80466">
        <ele>181.19999694824</ele>
        <time>2015-03-06T10:52:47.000Z</time>
      </trkpt>
      <trkpt lat="48.68088" lon="1.80482">
        <ele>181.19999694824</ele>
        <time>2015-03-06T10:52:53.000Z</time>
      </trkpt>
      <trkpt lat="48.68088" lon="1.80484">
        <ele>181.19999694824</ele>
        <time>2015-03-06T10:52:54.000Z</time>
      </trkpt>
      <trkpt lat="48.68088" lon="1.80495">
        <ele>181</ele>
        <time>2015-03-06T10:52:59.000Z</time>
      </trkpt>
      <trkpt lat="48.68091" lon="1.80496">
        <ele>181</ele>
        <time>2015-03-06T10:53:05.000Z</time>
      </trkpt>
      <trkpt lat="48.68093" lon="1.80497">
        <ele>181</ele>
        <time>2015-03-06T10:53:10.000Z</time>
      </trkpt>
      <trkpt lat="48.68106" lon="1.80488">
        <ele>181</ele>
        <time>2015-03-06T10:53:53.000Z</time>
      </trkpt>
      <trkpt lat="48.68111" lon="1.80485">
        <ele>180.80000305176</ele>
        <time>2015-03-06T10:53:56.000Z</time>
      </trkpt>
      <trkpt lat="48.68125" lon="1.80479">
        <ele>180.60000610352</ele>
        <time>2015-03-06T10:54:04.000Z</time>
      </trkpt>
      <trkpt lat="48.68138" lon="1.80474">
        <ele>180.39999389648</ele>
        <time>2015-03-06T10:54:11.000Z</time>
      </trkpt>
      <trkpt lat="48.68154" lon="1.80468">
        <ele>180.19999694824</ele>
        <time>2015-03-06T10:54:20.000Z</time>
      </trkpt>
      <trkpt lat="48.68165" lon="1.80463">
        <ele>180</ele>
        <time>2015-03-06T10:54:26.000Z</time>
      </trkpt>
      <trkpt lat="48.68176" lon="1.80457">
        <ele>179.80000305176</ele>
        <time>2015-03-06T10:54:33.000Z</time>
      </trkpt>
      <trkpt lat="48.6819" lon="1.80449">
        <ele>179.60000610352</ele>
        <time>2015-03-06T10:54:41.000Z</time>
      </trkpt>
      <trkpt lat="48.68206" lon="1.80443">
        <ele>179.39999389648</ele>
        <time>2015-03-06T10:54:50.000Z</time>
      </trkpt>
      <trkpt lat="48.68217" lon="1.80438">
        <ele>179.39999389648</ele>
        <time>2015-03-06T10:54:56.000Z</time>
      </trkpt>
      <trkpt lat="48.68227" lon="1.80432">
        <ele>180.19999694824</ele>
        <time>2015-03-06T10:55:02.000Z</time>
      </trkpt>
      <trkpt lat="48.68236" lon="1.80427">
        <ele>181</ele>
        <time>2015-03-06T10:55:07.000Z</time>
      </trkpt>
      <trkpt lat="48.68249" lon="1.80423">
        <ele>181.80000305176</ele>
        <time>2015-03-06T10:55:14.000Z</time>
      </trkpt>
      <trkpt lat="48.68256" lon="1.8042">
        <ele>182.39999389648</ele>
        <time>2015-03-06T10:55:19.000Z</time>
      </trkpt>
      <trkpt lat="48.68265" lon="1.80415">
        <ele>183.19999694824</ele>
        <time>2015-03-06T10:55:24.000Z</time>
      </trkpt>
      <trkpt lat="48.68279" lon="1.80408">
        <ele>184.19999694824</ele>
        <time>2015-03-06T10:55:31.000Z</time>
      </trkpt>
      <trkpt lat="48.68289" lon="1.80404">
        <ele>184.39999389648</ele>
        <time>2015-03-06T10:55:36.000Z</time>
      </trkpt>
      <trkpt lat="48.68301" lon="1.80399">
        <ele>184.80000305176</ele>
        <time>2015-03-06T10:55:43.000Z</time>
      </trkpt>
      <trkpt lat="48.6831" lon="1.80395">
        <ele>185</ele>
        <time>2015-03-06T10:55:48.000Z</time>
      </trkpt>
      <trkpt lat="48.68325" lon="1.80388">
        <ele>185.39999389648</ele>
        <time>2015-03-06T10:55:57.000Z</time>
      </trkpt>
      <trkpt lat="48.68333" lon="1.80385">
        <ele>185.60000610352</ele>
        <time>2015-03-06T10:56:01.000Z</time>
      </trkpt>
      <trkpt lat="48.68345" lon="1.80383">
        <ele>186</ele>
        <time>2015-03-06T10:56:08.000Z</time>
      </trkpt>
      <trkpt lat="48.68357" lon="1.80379">
        <ele>186.39999389648</ele>
        <time>2015-03-06T10:56:15.000Z</time>
      </trkpt>
      <trkpt lat="48.68369" lon="1.80371">
        <ele>186.39999389648</ele>
        <time>2015-03-06T10:56:23.000Z</time>
      </trkpt>
      <trkpt lat="48.6838" lon="1.80365">
        <ele>186.39999389648</ele>
        <time>2015-03-06T10:56:30.000Z</time>
      </trkpt>
      <trkpt lat="48.68391" lon="1.80361">
        <ele>186.60000610352</ele>
        <time>2015-03-06T10:56:36.000Z</time>
      </trkpt>
      <trkpt lat="48.68406" lon="1.80353">
        <ele>186.80000305176</ele>
        <time>2015-03-06T10:56:45.000Z</time>
      </trkpt>
      <trkpt lat="48.6842" lon="1.80347">
        <ele>187.19999694824</ele>
        <time>2015-03-06T10:56:53.000Z</time>
      </trkpt>
      <trkpt lat="48.6843" lon="1.80342">
        <ele>187.39999389648</ele>
        <time>2015-03-06T10:56:59.000Z</time>
      </trkpt>
      <trkpt lat="48.68438" lon="1.80337">
        <ele>187.60000610352</ele>
        <time>2015-03-06T10:57:04.000Z</time>
      </trkpt>
      <trkpt lat="48.68447" lon="1.80334">
        <ele>187.80000305176</ele>
        <time>2015-03-06T10:57:09.000Z</time>
      </trkpt>
      <trkpt lat="48.68455" lon="1.80329">
        <ele>187.60000610352</ele>
        <time>2015-03-06T10:57:15.000Z</time>
      </trkpt>
      <trkpt lat="48.68463" lon="1.80323">
        <ele>187.39999389648</ele>
        <time>2015-03-06T10:57:20.000Z</time>
      </trkpt>
      <trkpt lat="48.68469" lon="1.8032">
        <ele>187.19999694824</ele>
        <time>2015-03-06T10:57:23.000Z</time>
      </trkpt>
      <trkpt lat="48.68483" lon="1.80314">
        <ele>186.80000305176</ele>
        <time>2015-03-06T10:57:31.000Z</time>
      </trkpt>
      <trkpt lat="48.68498" lon="1.80309">
        <ele>186.60000610352</ele>
        <time>2015-03-06T10:57:39.000Z</time>
      </trkpt>
      <trkpt lat="48.68501" lon="1.80308">
        <ele>186.39999389648</ele>
        <time>2015-03-06T10:57:41.000Z</time>
      </trkpt>
      <trkpt lat="48.68512" lon="1.80299">
        <ele>186.39999389648</ele>
        <time>2015-03-06T10:57:49.000Z</time>
      </trkpt>
      <trkpt lat="48.68523" lon="1.80293">
        <ele>186.39999389648</ele>
        <time>2015-03-06T10:57:57.000Z</time>
      </trkpt>
      <trkpt lat="48.68534" lon="1.80288">
        <ele>186.39999389648</ele>
        <time>2015-03-06T10:58:03.000Z</time>
      </trkpt>
      <trkpt lat="48.68548" lon="1.80285">
        <ele>186.39999389648</ele>
        <time>2015-03-06T10:58:11.000Z</time>
      </trkpt>
      <trkpt lat="48.68559" lon="1.8028">
        <ele>186.39999389648</ele>
        <time>2015-03-06T10:58:17.000Z</time>
      </trkpt>
      <trkpt lat="48.68565" lon="1.80276">
        <ele>186.39999389648</ele>
        <time>2015-03-06T10:58:22.000Z</time>
      </trkpt>
      <trkpt lat="48.68574" lon="1.8027">
        <ele>186</ele>
        <time>2015-03-06T10:58:27.000Z</time>
      </trkpt>
      <trkpt lat="48.68582" lon="1.80266">
        <ele>185.80000305176</ele>
        <time>2015-03-06T10:58:32.000Z</time>
      </trkpt>
      <trkpt lat="48.68593" lon="1.8026">
        <ele>185.60000610352</ele>
        <time>2015-03-06T10:58:39.000Z</time>
      </trkpt>
      <trkpt lat="48.68603" lon="1.80262">
        <ele>185.19999694824</ele>
        <time>2015-03-06T10:58:45.000Z</time>
      </trkpt>
      <trkpt lat="48.68612" lon="1.80261">
        <ele>185.60000610352</ele>
        <time>2015-03-06T10:58:50.000Z</time>
      </trkpt>
      <trkpt lat="48.68624" lon="1.80253">
        <ele>186</ele>
        <time>2015-03-06T10:58:58.000Z</time>
      </trkpt>
      <trkpt lat="48.68631" lon="1.8025">
        <ele>186.19999694824</ele>
        <time>2015-03-06T10:59:03.000Z</time>
      </trkpt>
      <trkpt lat="48.68643" lon="1.80247">
        <ele>186.19999694824</ele>
        <time>2015-03-06T10:59:09.000Z</time>
      </trkpt>
      <trkpt lat="48.68652" lon="1.80241">
        <ele>186.19999694824</ele>
        <time>2015-03-06T10:59:13.000Z</time>
      </trkpt>
      <trkpt lat="48.68664" lon="1.80237">
        <ele>186.60000610352</ele>
        <time>2015-03-06T10:59:17.000Z</time>
      </trkpt>
      <trkpt lat="48.68676" lon="1.80232">
        <ele>187</ele>
        <time>2015-03-06T10:59:22.000Z</time>
      </trkpt>
      <trkpt lat="48.687" lon="1.80221">
        <ele>187.39999389648</ele>
        <time>2015-03-06T10:59:29.000Z</time>
      </trkpt>
      <trkpt lat="48.68721" lon="1.8021">
        <ele>187.80000305176</ele>
        <time>2015-03-06T10:59:35.000Z</time>
      </trkpt>
      <trkpt lat="48.6874" lon="1.80202">
        <ele>187.80000305176</ele>
        <time>2015-03-06T10:59:40.000Z</time>
      </trkpt>
      <trkpt lat="48.68756" lon="1.80194">
        <ele>187.19999694824</ele>
        <time>2015-03-06T10:59:43.000Z</time>
      </trkpt>
      <trkpt lat="48.68789" lon="1.80175">
        <ele>186.80000305176</ele>
        <time>2015-03-06T10:59:49.000Z</time>
      </trkpt>
      <trkpt lat="48.68809" lon="1.80165">
        <ele>187</ele>
        <time>2015-03-06T10:59:53.000Z</time>
      </trkpt>
      <trkpt lat="48.68819" lon="1.8016">
        <ele>187.19999694824</ele>
        <time>2015-03-06T10:59:55.000Z</time>
      </trkpt>
      <trkpt lat="48.68829" lon="1.80157">
        <ele>187.39999389648</ele>
        <time>2015-03-06T10:59:57.000Z</time>
      </trkpt>
      <trkpt lat="48.68846" lon="1.8015">
        <ele>188</ele>
        <time>2015-03-06T11:00:00.000Z</time>
      </trkpt>
      <trkpt lat="48.68856" lon="1.80146">
        <ele>188.39999389648</ele>
        <time>2015-03-06T11:00:02.000Z</time>
      </trkpt>
      <trkpt lat="48.68889" lon="1.80131">
        <ele>188.80000305176</ele>
        <time>2015-03-06T11:00:08.000Z</time>
      </trkpt>
      <trkpt lat="48.68907" lon="1.80123">
        <ele>189.19999694824</ele>
        <time>2015-03-06T11:00:11.000Z</time>
      </trkpt>
      <trkpt lat="48.68933" lon="1.80113">
        <ele>189</ele>
        <time>2015-03-06T11:00:15.000Z</time>
      </trkpt>
      <trkpt lat="48.68967" lon="1.80098">
        <ele>188.60000610352</ele>
        <time>2015-03-06T11:00:20.000Z</time>
      </trkpt>
      <trkpt lat="48.69008" lon="1.80079">
        <ele>186.60000610352</ele>
        <time>2015-03-06T11:00:25.000Z</time>
      </trkpt>
      <trkpt lat="48.69047" lon="1.80062">
        <ele>186.39999389648</ele>
        <time>2015-03-06T11:00:29.000Z</time>
      </trkpt>
      <trkpt lat="48.69085" lon="1.80045">
        <ele>187</ele>
        <time>2015-03-06T11:00:33.000Z</time>
      </trkpt>
      <trkpt lat="48.69136" lon="1.80024">
        <ele>187.39999389648</ele>
        <time>2015-03-06T11:00:38.000Z</time>
      </trkpt>
      <trkpt lat="48.69189" lon="1.8">
        <ele>187.39999389648</ele>
        <time>2015-03-06T11:00:43.000Z</time>
      </trkpt>
      <trkpt lat="48.69237" lon="1.79974">
        <ele>184.19999694824</ele>
        <time>2015-03-06T11:00:48.000Z</time>
      </trkpt>
      <trkpt lat="48.69284" lon="1.79951">
        <ele>181.80000305176</ele>
        <time>2015-03-06T11:00:53.000Z</time>
      </trkpt>
      <trkpt lat="48.69328" lon="1.79931">
        <ele>181</ele>
        <time>2015-03-06T11:00:58.000Z</time>
      </trkpt>
      <trkpt lat="48.69353" lon="1.79918">
        <ele>180.60000610352</ele>
        <time>2015-03-06T11:01:02.000Z</time>
      </trkpt>
      <trkpt lat="48.69385" lon="1.799">
        <ele>182.80000305176</ele>
        <time>2015-03-06T11:01:07.000Z</time>
      </trkpt>
      <trkpt lat="48.6939" lon="1.79898">
        <ele>183</ele>
        <time>2015-03-06T11:01:08.000Z</time>
      </trkpt>
      <trkpt lat="48.69402" lon="1.79893">
        <ele>183.80000305176</ele>
        <time>2015-03-06T11:01:10.000Z</time>
      </trkpt>
      <trkpt lat="48.6941" lon="1.7989">
        <ele>184.39999389648</ele>
        <time>2015-03-06T11:01:12.000Z</time>
      </trkpt>
      <trkpt lat="48.69418" lon="1.79888">
        <ele>185</ele>
        <time>2015-03-06T11:01:14.000Z</time>
      </trkpt>
      <trkpt lat="48.6943" lon="1.7988">
        <ele>185.60000610352</ele>
        <time>2015-03-06T11:01:19.000Z</time>
      </trkpt>
      <trkpt lat="48.69435" lon="1.79877">
        <ele>186</ele>
        <time>2015-03-06T11:01:21.000Z</time>
      </trkpt>
      <trkpt lat="48.69447" lon="1.79872">
        <ele>186.39999389648</ele>
        <time>2015-03-06T11:01:27.000Z</time>
      </trkpt>
      <trkpt lat="48.6945" lon="1.79873">
        <ele>186.39999389648</ele>
        <time>2015-03-06T11:01:30.000Z</time>
      </trkpt>
      <trkpt lat="48.69458" lon="1.79867">
        <ele>186.60000610352</ele>
        <time>2015-03-06T11:01:37.000Z</time>
      </trkpt>
      <trkpt lat="48.69461" lon="1.79865">
        <ele>186.80000305176</ele>
        <time>2015-03-06T11:01:42.000Z</time>
      </trkpt>
      <trkpt lat="48.6947" lon="1.79857">
        <ele>187.19999694824</ele>
        <time>2015-03-06T11:01:48.000Z</time>
      </trkpt>
      <trkpt lat="48.69474" lon="1.79856">
        <ele>187.19999694824</ele>
        <time>2015-03-06T11:01:50.000Z</time>
      </trkpt>
      <trkpt lat="48.69482" lon="1.79853">
        <ele>187.60000610352</ele>
        <time>2015-03-06T11:01:55.000Z</time>
      </trkpt>
      <trkpt lat="48.69491" lon="1.79848">
        <ele>188</ele>
        <time>2015-03-06T11:02:00.000Z</time>
      </trkpt>
      <trkpt lat="48.69506" lon="1.79843">
        <ele>188.60000610352</ele>
        <time>2015-03-06T11:02:07.000Z</time>
      </trkpt>
      <trkpt lat="48.69515" lon="1.79838">
        <ele>189</ele>
        <time>2015-03-06T11:02:12.000Z</time>
      </trkpt>
      <trkpt lat="48.69526" lon="1.79833">
        <ele>189.60000610352</ele>
        <time>2015-03-06T11:02:19.000Z</time>
      </trkpt>
      <trkpt lat="48.69536" lon="1.79825">
        <ele>189.19999694824</ele>
        <time>2015-03-06T11:02:26.000Z</time>
      </trkpt>
      <trkpt lat="48.69539" lon="1.79821">
        <ele>189</ele>
        <time>2015-03-06T11:02:28.000Z</time>
      </trkpt>
      <trkpt lat="48.69549" lon="1.79815">
        <ele>188.60000610352</ele>
        <time>2015-03-06T11:02:34.000Z</time>
      </trkpt>
      <trkpt lat="48.6956" lon="1.79808">
        <ele>188</ele>
        <time>2015-03-06T11:02:41.000Z</time>
      </trkpt>
      <trkpt lat="48.69559" lon="1.79806">
        <ele>188.19999694824</ele>
        <time>2015-03-06T11:02:46.000Z</time>
      </trkpt>
      <trkpt lat="48.69553" lon="1.79811">
        <ele>188.39999389648</ele>
        <time>2015-03-06T11:02:52.000Z</time>
      </trkpt>
      <trkpt lat="48.69547" lon="1.79818">
        <ele>188.60000610352</ele>
        <time>2015-03-06T11:02:57.000Z</time>
      </trkpt>
      <trkpt lat="48.69539" lon="1.79822">
        <ele>189.19999694824</ele>
        <time>2015-03-06T11:03:05.000Z</time>
      </trkpt>
      <trkpt lat="48.69532" lon="1.79828">
        <ele>189.39999389648</ele>
        <time>2015-03-06T11:03:10.000Z</time>
      </trkpt>
      <trkpt lat="48.6953" lon="1.7983">
        <ele>189.60000610352</ele>
        <time>2015-03-06T11:03:12.000Z</time>
      </trkpt>
      <trkpt lat="48.69518" lon="1.79838">
        <ele>189.19999694824</ele>
        <time>2015-03-06T11:03:21.000Z</time>
      </trkpt>
      <trkpt lat="48.69506" lon="1.79846">
        <ele>188.60000610352</ele>
        <time>2015-03-06T11:03:28.000Z</time>
      </trkpt>
      <trkpt lat="48.69495" lon="1.79853">
        <ele>187.80000305176</ele>
        <time>2015-03-06T11:03:34.000Z</time>
      </trkpt>
      <trkpt lat="48.69494" lon="1.79854">
        <ele>187.80000305176</ele>
        <time>2015-03-06T11:03:36.000Z</time>
      </trkpt>
      <trkpt lat="48.69484" lon="1.79858">
        <ele>187.39999389648</ele>
        <time>2015-03-06T11:03:47.000Z</time>
      </trkpt>
      <trkpt lat="48.69472" lon="1.79866">
        <ele>186.80000305176</ele>
        <time>2015-03-06T11:03:53.000Z</time>
      </trkpt>
      <trkpt lat="48.69468" lon="1.79866">
        <ele>186.80000305176</ele>
        <time>2015-03-06T11:03:57.000Z</time>
      </trkpt>
      <trkpt lat="48.6946" lon="1.79869">
        <ele>186.60000610352</ele>
        <time>2015-03-06T11:04:04.000Z</time>
      </trkpt>
      <trkpt lat="48.69451" lon="1.79873">
        <ele>186.39999389648</ele>
        <time>2015-03-06T11:04:09.000Z</time>
      </trkpt>
      <trkpt lat="48.69445" lon="1.79874">
        <ele>186.19999694824</ele>
        <time>2015-03-06T11:04:14.000Z</time>
      </trkpt>
      <trkpt lat="48.6944" lon="1.79878">
        <ele>186</ele>
        <time>2015-03-06T11:04:17.000Z</time>
      </trkpt>
      <trkpt lat="48.69435" lon="1.79877">
        <ele>186</ele>
        <time>2015-03-06T11:04:21.000Z</time>
      </trkpt>
      <trkpt lat="48.69422" lon="1.79882">
        <ele>185.39999389648</ele>
        <time>2015-03-06T11:04:30.000Z</time>
      </trkpt>
      <trkpt lat="48.69421" lon="1.79883">
        <ele>185.19999694824</ele>
        <time>2015-03-06T11:04:31.000Z</time>
      </trkpt>
      <trkpt lat="48.69413" lon="1.79883">
        <ele>185</ele>
        <time>2015-03-06T11:04:38.000Z</time>
      </trkpt>
      <trkpt lat="48.69411" lon="1.79885">
        <ele>184.80000305176</ele>
        <time>2015-03-06T11:04:41.000Z</time>
      </trkpt>
      <trkpt lat="48.69404" lon="1.79887">
        <ele>184.19999694824</ele>
        <time>2015-03-06T11:04:47.000Z</time>
      </trkpt>
      <trkpt lat="48.69396" lon="1.7989">
        <ele>183.80000305176</ele>
        <time>2015-03-06T11:04:55.000Z</time>
      </trkpt>
      <trkpt lat="48.69384" lon="1.7991">
        <ele>182.19999694824</ele>
        <time>2015-03-06T11:05:02.000Z</time>
      </trkpt>
      <trkpt lat="48.69383" lon="1.79909">
        <ele>182.19999694824</ele>
        <time>2015-03-06T11:05:04.000Z</time>
      </trkpt>
      <trkpt lat="48.69381" lon="1.79909">
        <ele>182.19999694824</ele>
        <time>2015-03-06T11:05:08.000Z</time>
      </trkpt>
      <trkpt lat="48.6938" lon="1.79906">
        <ele>182.19999694824</ele>
        <time>2015-03-06T11:05:28.000Z</time>
      </trkpt>
      <trkpt lat="48.69389" lon="1.79901">
        <ele>183</ele>
        <time>2015-03-06T11:05:33.000Z</time>
      </trkpt>
      <trkpt lat="48.69399" lon="1.79898">
        <ele>183.60000610352</ele>
        <time>2015-03-06T11:05:39.000Z</time>
      </trkpt>
      <trkpt lat="48.69411" lon="1.79892">
        <ele>184.39999389648</ele>
        <time>2015-03-06T11:05:46.000Z</time>
      </trkpt>
      <trkpt lat="48.6942" lon="1.79888">
        <ele>185</ele>
        <time>2015-03-06T11:05:52.000Z</time>
      </trkpt>
      <trkpt lat="48.69433" lon="1.79882">
        <ele>185.60000610352</ele>
        <time>2015-03-06T11:06:00.000Z</time>
      </trkpt>
      <trkpt lat="48.69443" lon="1.79878">
        <ele>186</ele>
        <time>2015-03-06T11:06:05.000Z</time>
      </trkpt>
      <trkpt lat="48.69453" lon="1.79872">
        <ele>186.39999389648</ele>
        <time>2015-03-06T11:06:10.000Z</time>
      </trkpt>
      <trkpt lat="48.69463" lon="1.79867">
        <ele>186.60000610352</ele>
        <time>2015-03-06T11:06:16.000Z</time>
      </trkpt>
      <trkpt lat="48.6947" lon="1.79865">
        <ele>186.80000305176</ele>
        <time>2015-03-06T11:06:20.000Z</time>
      </trkpt>
      <trkpt lat="48.69475" lon="1.79862">
        <ele>187</ele>
        <time>2015-03-06T11:06:23.000Z</time>
      </trkpt>
      <trkpt lat="48.69483" lon="1.79858">
        <ele>187.39999389648</ele>
        <time>2015-03-06T11:06:27.000Z</time>
      </trkpt>
      <trkpt lat="48.69497" lon="1.79853">
        <ele>188</ele>
        <time>2015-03-06T11:06:35.000Z</time>
      </trkpt>
      <trkpt lat="48.69506" lon="1.79847">
        <ele>188.39999389648</ele>
        <time>2015-03-06T11:06:41.000Z</time>
      </trkpt>
      <trkpt lat="48.69516" lon="1.79845">
        <ele>188.80000305176</ele>
        <time>2015-03-06T11:06:47.000Z</time>
      </trkpt>
      <trkpt lat="48.69527" lon="1.79839">
        <ele>189.19999694824</ele>
        <time>2015-03-06T11:06:52.000Z</time>
      </trkpt>
      <trkpt lat="48.69534" lon="1.79835">
        <ele>189.39999389648</ele>
        <time>2015-03-06T11:06:57.000Z</time>
      </trkpt>
      <trkpt lat="48.69546" lon="1.7983">
        <ele>188.80000305176</ele>
        <time>2015-03-06T11:07:03.000Z</time>
      </trkpt>
      <trkpt lat="48.69556" lon="1.79823">
        <ele>188.19999694824</ele>
        <time>2015-03-06T11:07:09.000Z</time>
      </trkpt>
      <trkpt lat="48.69566" lon="1.79819">
        <ele>187.80000305176</ele>
        <time>2015-03-06T11:07:15.000Z</time>
      </trkpt>
      <trkpt lat="48.69574" lon="1.79813">
        <ele>187.39999389648</ele>
        <time>2015-03-06T11:07:21.000Z</time>
      </trkpt>
      <trkpt lat="48.69581" lon="1.79811">
        <ele>187</ele>
        <time>2015-03-06T11:07:25.000Z</time>
      </trkpt>
      <trkpt lat="48.69597" lon="1.79805">
        <ele>186</ele>
        <time>2015-03-06T11:07:33.000Z</time>
      </trkpt>
      <trkpt lat="48.69611" lon="1.79798">
        <ele>185.39999389648</ele>
        <time>2015-03-06T11:07:40.000Z</time>
      </trkpt>
      <trkpt lat="48.69625" lon="1.79791">
        <ele>185.19999694824</ele>
        <time>2015-03-06T11:07:47.000Z</time>
      </trkpt>
      <trkpt lat="48.69635" lon="1.79788">
        <ele>185.19999694824</ele>
        <time>2015-03-06T11:07:52.000Z</time>
      </trkpt>
      <trkpt lat="48.69645" lon="1.79781">
        <ele>185</ele>
        <time>2015-03-06T11:07:58.000Z</time>
      </trkpt>
      <trkpt lat="48.69659" lon="1.79773">
        <ele>184.39999389648</ele>
        <time>2015-03-06T11:08:06.000Z</time>
      </trkpt>
      <trkpt lat="48.69671" lon="1.79769">
        <ele>183.80000305176</ele>
        <time>2015-03-06T11:08:12.000Z</time>
      </trkpt>
      <trkpt lat="48.69684" lon="1.79762">
        <ele>183.19999694824</ele>
        <time>2015-03-06T11:08:20.000Z</time>
      </trkpt>
      <trkpt lat="48.69701" lon="1.79757">
        <ele>183</ele>
        <time>2015-03-06T11:08:30.000Z</time>
      </trkpt>
      <trkpt lat="48.69709" lon="1.79756">
        <ele>183</ele>
        <time>2015-03-06T11:08:35.000Z</time>
      </trkpt>
      <trkpt lat="48.69721" lon="1.79749">
        <ele>183</ele>
        <time>2015-03-06T11:08:41.000Z</time>
      </trkpt>
      <trkpt lat="48.69731" lon="1.79744">
        <ele>183.19999694824</ele>
        <time>2015-03-06T11:08:47.000Z</time>
      </trkpt>
      <trkpt lat="48.69745" lon="1.79736">
        <ele>183.39999389648</ele>
        <time>2015-03-06T11:08:55.000Z</time>
      </trkpt>
      <trkpt lat="48.69754" lon="1.79728">
        <ele>183.60000610352</ele>
        <time>2015-03-06T11:09:00.000Z</time>
      </trkpt>
      <trkpt lat="48.69768" lon="1.79715">
        <ele>183.60000610352</ele>
        <time>2015-03-06T11:09:06.000Z</time>
      </trkpt>
      <trkpt lat="48.6978" lon="1.79703">
        <ele>183.80000305176</ele>
        <time>2015-03-06T11:09:12.000Z</time>
      </trkpt>
      <trkpt lat="48.69796" lon="1.79688">
        <ele>184</ele>
        <time>2015-03-06T11:09:19.000Z</time>
      </trkpt>
      <trkpt lat="48.69817" lon="1.79665">
        <ele>183.80000305176</ele>
        <time>2015-03-06T11:09:26.000Z</time>
      </trkpt>
      <trkpt lat="48.69832" lon="1.79651">
        <ele>183.60000610352</ele>
        <time>2015-03-06T11:09:31.000Z</time>
      </trkpt>
      <trkpt lat="48.69856" lon="1.79628">
        <ele>183.80000305176</ele>
        <time>2015-03-06T11:09:38.000Z</time>
      </trkpt>
      <trkpt lat="48.69878" lon="1.79609">
        <ele>184.60000610352</ele>
        <time>2015-03-06T11:09:44.000Z</time>
      </trkpt>
      <trkpt lat="48.69896" lon="1.79592">
        <ele>184.80000305176</ele>
        <time>2015-03-06T11:09:49.000Z</time>
      </trkpt>
      <trkpt lat="48.69903" lon="1.79586">
        <ele>184.80000305176</ele>
        <time>2015-03-06T11:09:51.000Z</time>
      </trkpt>
      <trkpt lat="48.69915" lon="1.79577">
        <ele>184.60000610352</ele>
        <time>2015-03-06T11:09:54.000Z</time>
      </trkpt>
      <trkpt lat="48.69932" lon="1.79561">
        <ele>184.60000610352</ele>
        <time>2015-03-06T11:09:59.000Z</time>
      </trkpt>
      <trkpt lat="48.69947" lon="1.79546">
        <ele>185</ele>
        <time>2015-03-06T11:10:03.000Z</time>
      </trkpt>
      <trkpt lat="48.69957" lon="1.79535">
        <ele>185</ele>
        <time>2015-03-06T11:10:06.000Z</time>
      </trkpt>
      <trkpt lat="48.69971" lon="1.79525">
        <ele>185.60000610352</ele>
        <time>2015-03-06T11:10:10.000Z</time>
      </trkpt>
      <trkpt lat="48.69988" lon="1.7951">
        <ele>186.39999389648</ele>
        <time>2015-03-06T11:10:15.000Z</time>
      </trkpt>
      <trkpt lat="48.70006" lon="1.79494">
        <ele>187.19999694824</ele>
        <time>2015-03-06T11:10:21.000Z</time>
      </trkpt>
      <trkpt lat="48.70015" lon="1.79488">
        <ele>187.80000305176</ele>
        <time>2015-03-06T11:10:26.000Z</time>
      </trkpt>
      <trkpt lat="48.70022" lon="1.79482">
        <ele>188</ele>
        <time>2015-03-06T11:10:30.000Z</time>
      </trkpt>
      <trkpt lat="48.70033" lon="1.79471">
        <ele>188</ele>
        <time>2015-03-06T11:10:36.000Z</time>
      </trkpt>
      <trkpt lat="48.70046" lon="1.79458">
        <ele>188</ele>
        <time>2015-03-06T11:10:43.000Z</time>
      </trkpt>
      <trkpt lat="48.70055" lon="1.79451">
        <ele>188</ele>
        <time>2015-03-06T11:10:49.000Z</time>
      </trkpt>
      <trkpt lat="48.70069" lon="1.7944">
        <ele>188.19999694824</ele>
        <time>2015-03-06T11:10:57.000Z</time>
      </trkpt>
      <trkpt lat="48.70079" lon="1.79432">
        <ele>188.39999389648</ele>
        <time>2015-03-06T11:11:03.000Z</time>
      </trkpt>
      <trkpt lat="48.70088" lon="1.79426">
        <ele>188.60000610352</ele>
        <time>2015-03-06T11:11:09.000Z</time>
      </trkpt>
      <trkpt lat="48.70098" lon="1.79418">
        <ele>188.80000305176</ele>
        <time>2015-03-06T11:11:16.000Z</time>
      </trkpt>
      <trkpt lat="48.70107" lon="1.79411">
        <ele>189</ele>
        <time>2015-03-06T11:11:22.000Z</time>
      </trkpt>
      <trkpt lat="48.70118" lon="1.79399">
        <ele>189</ele>
        <time>2015-03-06T11:11:29.000Z</time>
      </trkpt>
      <trkpt lat="48.70126" lon="1.79393">
        <ele>189</ele>
        <time>2015-03-06T11:11:34.000Z</time>
      </trkpt>
      <trkpt lat="48.70132" lon="1.7939">
        <ele>189</ele>
        <time>2015-03-06T11:11:38.000Z</time>
      </trkpt>
      <trkpt lat="48.70137" lon="1.79386">
        <ele>189</ele>
        <time>2015-03-06T11:11:41.000Z</time>
      </trkpt>
      <trkpt lat="48.70149" lon="1.79374">
        <ele>189</ele>
        <time>2015-03-06T11:11:50.000Z</time>
      </trkpt>
      <trkpt lat="48.70156" lon="1.79368">
        <ele>189</ele>
        <time>2015-03-06T11:11:54.000Z</time>
      </trkpt>
      <trkpt lat="48.70166" lon="1.79359">
        <ele>189.39999389648</ele>
        <time>2015-03-06T11:12:01.000Z</time>
      </trkpt>
      <trkpt lat="48.70175" lon="1.7935">
        <ele>189.60000610352</ele>
        <time>2015-03-06T11:12:07.000Z</time>
      </trkpt>
      <trkpt lat="48.70187" lon="1.79337">
        <ele>189.80000305176</ele>
        <time>2015-03-06T11:12:14.000Z</time>
      </trkpt>
      <trkpt lat="48.70191" lon="1.7933">
        <ele>190</ele>
        <time>2015-03-06T11:12:17.000Z</time>
      </trkpt>
      <trkpt lat="48.70194" lon="1.79328">
        <ele>190</ele>
        <time>2015-03-06T11:12:19.000Z</time>
      </trkpt>
      <trkpt lat="48.70202" lon="1.7932">
        <ele>190.19999694824</ele>
        <time>2015-03-06T11:12:25.000Z</time>
      </trkpt>
      <trkpt lat="48.70209" lon="1.79311">
        <ele>190.39999389648</ele>
        <time>2015-03-06T11:12:30.000Z</time>
      </trkpt>
      <trkpt lat="48.7022" lon="1.79302">
        <ele>190.60000610352</ele>
        <time>2015-03-06T11:12:37.000Z</time>
      </trkpt>
      <trkpt lat="48.70227" lon="1.79292">
        <ele>190.80000305176</ele>
        <time>2015-03-06T11:12:43.000Z</time>
      </trkpt>
      <trkpt lat="48.70241" lon="1.79283">
        <ele>190.80000305176</ele>
        <time>2015-03-06T11:12:52.000Z</time>
      </trkpt>
      <trkpt lat="48.70249" lon="1.79278">
        <ele>190.80000305176</ele>
        <time>2015-03-06T11:12:57.000Z</time>
      </trkpt>
      <trkpt lat="48.70254" lon="1.79272">
        <ele>190.60000610352</ele>
        <time>2015-03-06T11:13:01.000Z</time>
      </trkpt>
      <trkpt lat="48.70265" lon="1.7926">
        <ele>190.39999389648</ele>
        <time>2015-03-06T11:13:08.000Z</time>
      </trkpt>
      <trkpt lat="48.70274" lon="1.79253">
        <ele>190.19999694824</ele>
        <time>2015-03-06T11:13:14.000Z</time>
      </trkpt>
      <trkpt lat="48.70282" lon="1.79246">
        <ele>190</ele>
        <time>2015-03-06T11:13:20.000Z</time>
      </trkpt>
      <trkpt lat="48.70293" lon="1.79234">
        <ele>190.19999694824</ele>
        <time>2015-03-06T11:13:28.000Z</time>
      </trkpt>
      <trkpt lat="48.70304" lon="1.79224">
        <ele>190.39999389648</ele>
        <time>2015-03-06T11:13:35.000Z</time>
      </trkpt>
      <trkpt lat="48.70317" lon="1.79214">
        <ele>190.60000610352</ele>
        <time>2015-03-06T11:13:43.000Z</time>
      </trkpt>
      <trkpt lat="48.70323" lon="1.7921">
        <ele>190.60000610352</ele>
        <time>2015-03-06T11:13:47.000Z</time>
      </trkpt>
      <trkpt lat="48.70332" lon="1.79203">
        <ele>190.39999389648</ele>
        <time>2015-03-06T11:13:53.000Z</time>
      </trkpt>
      <trkpt lat="48.70338" lon="1.79199">
        <ele>190</ele>
        <time>2015-03-06T11:13:56.000Z</time>
      </trkpt>
      <trkpt lat="48.70348" lon="1.79192">
        <ele>189.60000610352</ele>
        <time>2015-03-06T11:14:01.000Z</time>
      </trkpt>
      <trkpt lat="48.70356" lon="1.79179">
        <ele>189.19999694824</ele>
        <time>2015-03-06T11:14:07.000Z</time>
      </trkpt>
      <trkpt lat="48.70362" lon="1.79174">
        <ele>189</ele>
        <time>2015-03-06T11:14:11.000Z</time>
      </trkpt>
      <trkpt lat="48.70363" lon="1.79173">
        <ele>189</ele>
        <time>2015-03-06T11:14:12.000Z</time>
      </trkpt>
      <trkpt lat="48.70372" lon="1.79166">
        <ele>188.80000305176</ele>
        <time>2015-03-06T11:14:17.000Z</time>
      </trkpt>
      <trkpt lat="48.70377" lon="1.79157">
        <ele>189</ele>
        <time>2015-03-06T11:14:21.000Z</time>
      </trkpt>
      <trkpt lat="48.70392" lon="1.79147">
        <ele>189</ele>
        <time>2015-03-06T11:14:30.000Z</time>
      </trkpt>
      <trkpt lat="48.704" lon="1.7914">
        <ele>189</ele>
        <time>2015-03-06T11:14:35.000Z</time>
      </trkpt>
      <trkpt lat="48.70407" lon="1.79128">
        <ele>189</ele>
        <time>2015-03-06T11:14:41.000Z</time>
      </trkpt>
      <trkpt lat="48.70407" lon="1.79127">
        <ele>189</ele>
        <time>2015-03-06T11:14:42.000Z</time>
      </trkpt>
      <trkpt lat="48.70414" lon="1.79119">
        <ele>189.19999694824</ele>
        <time>2015-03-06T11:14:47.000Z</time>
      </trkpt>
      <trkpt lat="48.70425" lon="1.79111">
        <ele>189.39999389648</ele>
        <time>2015-03-06T11:14:53.000Z</time>
      </trkpt>
      <trkpt lat="48.70429" lon="1.79106">
        <ele>189.39999389648</ele>
        <time>2015-03-06T11:14:55.000Z</time>
      </trkpt>
      <trkpt lat="48.70441" lon="1.79095">
        <ele>189.80000305176</ele>
        <time>2015-03-06T11:15:01.000Z</time>
      </trkpt>
      <trkpt lat="48.70451" lon="1.79089">
        <ele>189.80000305176</ele>
        <time>2015-03-06T11:15:07.000Z</time>
      </trkpt>
      <trkpt lat="48.70461" lon="1.79083">
        <ele>189.39999389648</ele>
        <time>2015-03-06T11:15:12.000Z</time>
      </trkpt>
      <trkpt lat="48.70464" lon="1.79082">
        <ele>189.19999694824</ele>
        <time>2015-03-06T11:15:14.000Z</time>
      </trkpt>
      <trkpt lat="48.70474" lon="1.79076">
        <ele>188.80000305176</ele>
        <time>2015-03-06T11:15:20.000Z</time>
      </trkpt>
      <trkpt lat="48.70484" lon="1.79067">
        <ele>188.19999694824</ele>
        <time>2015-03-06T11:15:27.000Z</time>
      </trkpt>
      <trkpt lat="48.70497" lon="1.79055">
        <ele>187.60000610352</ele>
        <time>2015-03-06T11:15:35.000Z</time>
      </trkpt>
      <trkpt lat="48.70507" lon="1.79049">
        <ele>187.60000610352</ele>
        <time>2015-03-06T11:15:41.000Z</time>
      </trkpt>
      <trkpt lat="48.70513" lon="1.79043">
        <ele>188</ele>
        <time>2015-03-06T11:15:45.000Z</time>
      </trkpt>
      <trkpt lat="48.70522" lon="1.7903">
        <ele>188.60000610352</ele>
        <time>2015-03-06T11:15:52.000Z</time>
      </trkpt>
      <trkpt lat="48.70533" lon="1.79022">
        <ele>189</ele>
        <time>2015-03-06T11:15:59.000Z</time>
      </trkpt>
      <trkpt lat="48.70539" lon="1.79015">
        <ele>189.19999694824</ele>
        <time>2015-03-06T11:16:03.000Z</time>
      </trkpt>
      <trkpt lat="48.70549" lon="1.79008">
        <ele>189.39999389648</ele>
        <time>2015-03-06T11:16:09.000Z</time>
      </trkpt>
      <trkpt lat="48.7056" lon="1.78999">
        <ele>189</ele>
        <time>2015-03-06T11:16:16.000Z</time>
      </trkpt>
      <trkpt lat="48.70566" lon="1.78992">
        <ele>188.80000305176</ele>
        <time>2015-03-06T11:16:21.000Z</time>
      </trkpt>
      <trkpt lat="48.70576" lon="1.78984">
        <ele>188.60000610352</ele>
        <time>2015-03-06T11:16:27.000Z</time>
      </trkpt>
      <trkpt lat="48.70588" lon="1.78978">
        <ele>188.19999694824</ele>
        <time>2015-03-06T11:16:34.000Z</time>
      </trkpt>
      <trkpt lat="48.70598" lon="1.78964">
        <ele>188</ele>
        <time>2015-03-06T11:16:41.000Z</time>
      </trkpt>
      <trkpt lat="48.70599" lon="1.78963">
        <ele>188</ele>
        <time>2015-03-06T11:16:42.000Z</time>
      </trkpt>
      <trkpt lat="48.70608" lon="1.78956">
        <ele>188</ele>
        <time>2015-03-06T11:16:48.000Z</time>
      </trkpt>
      <trkpt lat="48.70618" lon="1.78948">
        <ele>188</ele>
        <time>2015-03-06T11:16:54.000Z</time>
      </trkpt>
      <trkpt lat="48.70628" lon="1.78939">
        <ele>188</ele>
        <time>2015-03-06T11:17:01.000Z</time>
      </trkpt>
      <trkpt lat="48.70637" lon="1.7893">
        <ele>188.19999694824</ele>
        <time>2015-03-06T11:17:07.000Z</time>
      </trkpt>
      <trkpt lat="48.70646" lon="1.78923">
        <ele>188.39999389648</ele>
        <time>2015-03-06T11:17:13.000Z</time>
      </trkpt>
      <trkpt lat="48.70655" lon="1.78915">
        <ele>188.39999389648</ele>
        <time>2015-03-06T11:17:19.000Z</time>
      </trkpt>
      <trkpt lat="48.70663" lon="1.7891">
        <ele>188.60000610352</ele>
        <time>2015-03-06T11:17:24.000Z</time>
      </trkpt>
      <trkpt lat="48.7067" lon="1.78902">
        <ele>188.80000305176</ele>
        <time>2015-03-06T11:17:30.000Z</time>
      </trkpt>
      <trkpt lat="48.7068" lon="1.78891">
        <ele>188.60000610352</ele>
        <time>2015-03-06T11:17:37.000Z</time>
      </trkpt>
      <trkpt lat="48.70687" lon="1.78882">
        <ele>188.39999389648</ele>
        <time>2015-03-06T11:17:43.000Z</time>
      </trkpt>
      <trkpt lat="48.70694" lon="1.78872">
        <ele>188.19999694824</ele>
        <time>2015-03-06T11:17:49.000Z</time>
      </trkpt>
      <trkpt lat="48.70697" lon="1.78866">
        <ele>188</ele>
        <time>2015-03-06T11:17:52.000Z</time>
      </trkpt>
      <trkpt lat="48.70707" lon="1.7885">
        <ele>187.39999389648</ele>
        <time>2015-03-06T11:18:00.000Z</time>
      </trkpt>
      <trkpt lat="48.7071" lon="1.78841">
        <ele>187.19999694824</ele>
        <time>2015-03-06T11:18:04.000Z</time>
      </trkpt>
      <trkpt lat="48.70714" lon="1.78832">
        <ele>187.39999389648</ele>
        <time>2015-03-06T11:18:08.000Z</time>
      </trkpt>
      <trkpt lat="48.7072" lon="1.7882">
        <ele>187.39999389648</ele>
        <time>2015-03-06T11:18:14.000Z</time>
      </trkpt>
      <trkpt lat="48.70725" lon="1.78813">
        <ele>187.60000610352</ele>
        <time>2015-03-06T11:18:17.000Z</time>
      </trkpt>
      <trkpt lat="48.70734" lon="1.78795">
        <ele>188.19999694824</ele>
        <time>2015-03-06T11:18:25.000Z</time>
      </trkpt>
      <trkpt lat="48.7074" lon="1.78783">
        <ele>188.39999389648</ele>
        <time>2015-03-06T11:18:31.000Z</time>
      </trkpt>
      <trkpt lat="48.70745" lon="1.78771">
        <ele>188.60000610352</ele>
        <time>2015-03-06T11:18:36.000Z</time>
      </trkpt>
      <trkpt lat="48.70753" lon="1.78754">
        <ele>188.80000305176</ele>
        <time>2015-03-06T11:18:41.000Z</time>
      </trkpt>
      <trkpt lat="48.70756" lon="1.78738">
        <ele>189</ele>
        <time>2015-03-06T11:18:46.000Z</time>
      </trkpt>
      <trkpt lat="48.70764" lon="1.78728">
        <ele>189</ele>
        <time>2015-03-06T11:18:52.000Z</time>
      </trkpt>
      <trkpt lat="48.70768" lon="1.78712">
        <ele>189</ele>
        <time>2015-03-06T11:18:58.000Z</time>
      </trkpt>
      <trkpt lat="48.70774" lon="1.787">
        <ele>188.80000305176</ele>
        <time>2015-03-06T11:19:04.000Z</time>
      </trkpt>
      <trkpt lat="48.70778" lon="1.78689">
        <ele>188.60000610352</ele>
        <time>2015-03-06T11:19:09.000Z</time>
      </trkpt>
      <trkpt lat="48.70788" lon="1.78673">
        <ele>188</ele>
        <time>2015-03-06T11:19:18.000Z</time>
      </trkpt>
      <trkpt lat="48.70793" lon="1.78662">
        <ele>187.19999694824</ele>
        <time>2015-03-06T11:19:23.000Z</time>
      </trkpt>
      <trkpt lat="48.70797" lon="1.78643">
        <ele>185.80000305176</ele>
        <time>2015-03-06T11:19:31.000Z</time>
      </trkpt>
      <trkpt lat="48.70805" lon="1.78625">
        <ele>183.80000305176</ele>
        <time>2015-03-06T11:19:39.000Z</time>
      </trkpt>
      <trkpt lat="48.70807" lon="1.78618">
        <ele>183.39999389648</ele>
        <time>2015-03-06T11:19:42.000Z</time>
      </trkpt>
      <trkpt lat="48.70806" lon="1.78606">
        <ele>182.60000610352</ele>
        <time>2015-03-06T11:19:48.000Z</time>
      </trkpt>
      <trkpt lat="48.70807" lon="1.78605">
        <ele>182.60000610352</ele>
        <time>2015-03-06T11:19:49.000Z</time>
      </trkpt>
      <trkpt lat="48.70809" lon="1.78603">
        <ele>182.19999694824</ele>
        <time>2015-03-06T11:19:54.000Z</time>
      </trkpt>
      <trkpt lat="48.70812" lon="1.78598">
        <ele>182</ele>
        <time>2015-03-06T11:20:10.000Z</time>
      </trkpt>
      <trkpt lat="48.70813" lon="1.78595">
        <ele>181.80000305176</ele>
        <time>2015-03-06T11:20:11.000Z</time>
      </trkpt>
      <trkpt lat="48.70813" lon="1.78593">
        <ele>181.60000610352</ele>
        <time>2015-03-06T11:20:15.000Z</time>
      </trkpt>
      <trkpt lat="48.70801" lon="1.78602">
        <ele>182.80000305176</ele>
        <time>2015-03-06T11:22:20.000Z</time>
      </trkpt>
      <trkpt lat="48.70802" lon="1.78595">
        <ele>182.60000610352</ele>
        <time>2015-03-06T11:22:23.000Z</time>
      </trkpt>
      <trkpt lat="48.70799" lon="1.78589">
        <ele>182.60000610352</ele>
        <time>2015-03-06T11:22:27.000Z</time>
      </trkpt>
      <trkpt lat="48.70799" lon="1.7859">
        <ele>182.60000610352</ele>
        <time>2015-03-06T11:22:31.000Z</time>
      </trkpt>
      <trkpt lat="48.70811" lon="1.78585">
        <ele>181.60000610352</ele>
        <time>2015-03-06T11:23:09.000Z</time>
      </trkpt>
      <trkpt lat="48.70814" lon="1.78584">
        <ele>181.19999694824</ele>
        <time>2015-03-06T11:23:10.000Z</time>
      </trkpt>
      <trkpt lat="48.7082" lon="1.7858">
        <ele>180.80000305176</ele>
        <time>2015-03-06T11:23:15.000Z</time>
      </trkpt>
      <trkpt lat="48.70828" lon="1.7857">
        <ele>179.80000305176</ele>
        <time>2015-03-06T11:23:21.000Z</time>
      </trkpt>
      <trkpt lat="48.70836" lon="1.78553">
        <ele>179.39999389648</ele>
        <time>2015-03-06T11:23:30.000Z</time>
      </trkpt>
      <trkpt lat="48.70838" lon="1.78551">
        <ele>179.39999389648</ele>
        <time>2015-03-06T11:23:31.000Z</time>
      </trkpt>
      <trkpt lat="48.70844" lon="1.78537">
        <ele>179.39999389648</ele>
        <time>2015-03-06T11:23:38.000Z</time>
      </trkpt>
      <trkpt lat="48.7085" lon="1.78527">
        <ele>179.39999389648</ele>
        <time>2015-03-06T11:23:44.000Z</time>
      </trkpt>
      <trkpt lat="48.70853" lon="1.78519">
        <ele>179.19999694824</ele>
        <time>2015-03-06T11:23:49.000Z</time>
      </trkpt>
      <trkpt lat="48.70855" lon="1.78516">
        <ele>179.19999694824</ele>
        <time>2015-03-06T11:23:51.000Z</time>
      </trkpt>
      <trkpt lat="48.70861" lon="1.78507">
        <ele>179.19999694824</ele>
        <time>2015-03-06T11:23:56.000Z</time>
      </trkpt>
      <trkpt lat="48.70865" lon="1.78498">
        <ele>179.19999694824</ele>
        <time>2015-03-06T11:24:00.000Z</time>
      </trkpt>
      <trkpt lat="48.70871" lon="1.78489">
        <ele>178.80000305176</ele>
        <time>2015-03-06T11:24:05.000Z</time>
      </trkpt>
      <trkpt lat="48.70877" lon="1.78475">
        <ele>178.39999389648</ele>
        <time>2015-03-06T11:24:12.000Z</time>
      </trkpt>
      <trkpt lat="48.70879" lon="1.78471">
        <ele>178.19999694824</ele>
        <time>2015-03-06T11:24:14.000Z</time>
      </trkpt>
      <trkpt lat="48.70883" lon="1.78456">
        <ele>177.80000305176</ele>
        <time>2015-03-06T11:24:20.000Z</time>
      </trkpt>
      <trkpt lat="48.70892" lon="1.7844">
        <ele>177.19999694824</ele>
        <time>2015-03-06T11:24:27.000Z</time>
      </trkpt>
      <trkpt lat="48.70894" lon="1.78437">
        <ele>177</ele>
        <time>2015-03-06T11:24:29.000Z</time>
      </trkpt>
      <trkpt lat="48.70899" lon="1.78428">
        <ele>176.80000305176</ele>
        <time>2015-03-06T11:24:33.000Z</time>
      </trkpt>
      <trkpt lat="48.70904" lon="1.78417">
        <ele>176.39999389648</ele>
        <time>2015-03-06T11:24:39.000Z</time>
      </trkpt>
      <trkpt lat="48.70909" lon="1.78407">
        <ele>176</ele>
        <time>2015-03-06T11:24:44.000Z</time>
      </trkpt>
      <trkpt lat="48.70914" lon="1.78398">
        <ele>175.60000610352</ele>
        <time>2015-03-06T11:24:48.000Z</time>
      </trkpt>
      <trkpt lat="48.70921" lon="1.78383">
        <ele>175</ele>
        <time>2015-03-06T11:24:54.000Z</time>
      </trkpt>
      <trkpt lat="48.70926" lon="1.78371">
        <ele>174.60000610352</ele>
        <time>2015-03-06T11:24:59.000Z</time>
      </trkpt>
      <trkpt lat="48.70932" lon="1.78362">
        <ele>174.19999694824</ele>
        <time>2015-03-06T11:25:04.000Z</time>
      </trkpt>
      <trkpt lat="48.70937" lon="1.78354">
        <ele>174</ele>
        <time>2015-03-06T11:25:08.000Z</time>
      </trkpt>
      <trkpt lat="48.7094" lon="1.78348">
        <ele>174</ele>
        <time>2015-03-06T11:25:11.000Z</time>
      </trkpt>
      <trkpt lat="48.70948" lon="1.78336">
        <ele>174.19999694824</ele>
        <time>2015-03-06T11:25:18.000Z</time>
      </trkpt>
      <trkpt lat="48.70953" lon="1.78323">
        <ele>174</ele>
        <time>2015-03-06T11:25:24.000Z</time>
      </trkpt>
      <trkpt lat="48.70957" lon="1.7831">
        <ele>174</ele>
        <time>2015-03-06T11:25:29.000Z</time>
      </trkpt>
      <trkpt lat="48.70962" lon="1.78302">
        <ele>174</ele>
        <time>2015-03-06T11:25:33.000Z</time>
      </trkpt>
      <trkpt lat="48.70968" lon="1.78286">
        <ele>174</ele>
        <time>2015-03-06T11:25:40.000Z</time>
      </trkpt>
      <trkpt lat="48.70973" lon="1.78281">
        <ele>174</ele>
        <time>2015-03-06T11:25:44.000Z</time>
      </trkpt>
      <trkpt lat="48.70981" lon="1.78264">
        <ele>173.80000305176</ele>
        <time>2015-03-06T11:25:52.000Z</time>
      </trkpt>
      <trkpt lat="48.70985" lon="1.78259">
        <ele>173.60000610352</ele>
        <time>2015-03-06T11:25:55.000Z</time>
      </trkpt>
      <trkpt lat="48.70989" lon="1.78251">
        <ele>173.60000610352</ele>
        <time>2015-03-06T11:25:59.000Z</time>
      </trkpt>
      <trkpt lat="48.70997" lon="1.78238">
        <ele>173.19999694824</ele>
        <time>2015-03-06T11:26:06.000Z</time>
      </trkpt>
      <trkpt lat="48.71003" lon="1.78228">
        <ele>173.39999389648</ele>
        <time>2015-03-06T11:26:10.000Z</time>
      </trkpt>
      <trkpt lat="48.71006" lon="1.7822">
        <ele>173.39999389648</ele>
        <time>2015-03-06T11:26:14.000Z</time>
      </trkpt>
      <trkpt lat="48.71011" lon="1.78214">
        <ele>173</ele>
        <time>2015-03-06T11:26:19.000Z</time>
      </trkpt>
      <trkpt lat="48.71024" lon="1.78214">
        <ele>172.80000305176</ele>
        <time>2015-03-06T11:26:27.000Z</time>
      </trkpt>
      <trkpt lat="48.71025" lon="1.78215">
        <ele>172.80000305176</ele>
        <time>2015-03-06T11:26:28.000Z</time>
      </trkpt>
      <trkpt lat="48.71034" lon="1.78213">
        <ele>172.80000305176</ele>
        <time>2015-03-06T11:26:34.000Z</time>
      </trkpt>
      <trkpt lat="48.71038" lon="1.78211">
        <ele>172.80000305176</ele>
        <time>2015-03-06T11:26:41.000Z</time>
      </trkpt>
      <trkpt lat="48.7104" lon="1.78207">
        <ele>172.80000305176</ele>
        <time>2015-03-06T11:26:46.000Z</time>
      </trkpt>
      <trkpt lat="48.71058" lon="1.78214">
        <ele>173.19999694824</ele>
        <time>2015-03-06T11:28:11.000Z</time>
      </trkpt>
      <trkpt lat="48.71059" lon="1.78212">
        <ele>173.19999694824</ele>
        <time>2015-03-06T11:28:12.000Z</time>
      </trkpt>
      <trkpt lat="48.71064" lon="1.78216">
        <ele>173.19999694824</ele>
        <time>2015-03-06T11:28:18.000Z</time>
      </trkpt>
      <trkpt lat="48.71065" lon="1.78216">
        <ele>173.19999694824</ele>
        <time>2015-03-06T11:28:19.000Z</time>
      </trkpt>
      <trkpt lat="48.71068" lon="1.78209">
        <ele>173.19999694824</ele>
        <time>2015-03-06T11:28:52.000Z</time>
      </trkpt>
      <trkpt lat="48.71072" lon="1.78204">
        <ele>173.19999694824</ele>
        <time>2015-03-06T11:28:54.000Z</time>
      </trkpt>
      <trkpt lat="48.71078" lon="1.78194">
        <ele>173</ele>
        <time>2015-03-06T11:29:00.000Z</time>
      </trkpt>
      <trkpt lat="48.71083" lon="1.78186">
        <ele>172.80000305176</ele>
        <time>2015-03-06T11:29:05.000Z</time>
      </trkpt>
      <trkpt lat="48.71085" lon="1.78181">
        <ele>172.60000610352</ele>
        <time>2015-03-06T11:29:07.000Z</time>
      </trkpt>
      <trkpt lat="48.71093" lon="1.78169">
        <ele>172.39999389648</ele>
        <time>2015-03-06T11:29:14.000Z</time>
      </trkpt>
      <trkpt lat="48.71097" lon="1.7815">
        <ele>172</ele>
        <time>2015-03-06T11:29:21.000Z</time>
      </trkpt>
      <trkpt lat="48.71104" lon="1.78133">
        <ele>172.60000610352</ele>
        <time>2015-03-06T11:29:29.000Z</time>
      </trkpt>
      <trkpt lat="48.7111" lon="1.78119">
        <ele>173.19999694824</ele>
        <time>2015-03-06T11:29:35.000Z</time>
      </trkpt>
      <trkpt lat="48.71112" lon="1.781">
        <ele>173.80000305176</ele>
        <time>2015-03-06T11:29:41.000Z</time>
      </trkpt>
      <trkpt lat="48.71116" lon="1.78089">
        <ele>174.19999694824</ele>
        <time>2015-03-06T11:29:46.000Z</time>
      </trkpt>
      <trkpt lat="48.71122" lon="1.78078">
        <ele>174.19999694824</ele>
        <time>2015-03-06T11:29:52.000Z</time>
      </trkpt>
      <trkpt lat="48.71124" lon="1.78073">
        <ele>174</ele>
        <time>2015-03-06T11:29:54.000Z</time>
      </trkpt>
      <trkpt lat="48.71128" lon="1.78061">
        <ele>173.80000305176</ele>
        <time>2015-03-06T11:30:00.000Z</time>
      </trkpt>
      <trkpt lat="48.71129" lon="1.78059">
        <ele>173.60000610352</ele>
        <time>2015-03-06T11:30:01.000Z</time>
      </trkpt>
      <trkpt lat="48.71135" lon="1.78039">
        <ele>173.19999694824</ele>
        <time>2015-03-06T11:30:10.000Z</time>
      </trkpt>
      <trkpt lat="48.71137" lon="1.78025">
        <ele>172.80000305176</ele>
        <time>2015-03-06T11:30:16.000Z</time>
      </trkpt>
      <trkpt lat="48.71137" lon="1.78022">
        <ele>172.80000305176</ele>
        <time>2015-03-06T11:30:17.000Z</time>
      </trkpt>
      <trkpt lat="48.7114" lon="1.77999">
        <ele>172</ele>
        <time>2015-03-06T11:30:24.000Z</time>
      </trkpt>
      <trkpt lat="48.71143" lon="1.77985">
        <ele>171.39999389648</ele>
        <time>2015-03-06T11:30:29.000Z</time>
      </trkpt>
      <trkpt lat="48.71146" lon="1.77972">
        <ele>171</ele>
        <time>2015-03-06T11:30:34.000Z</time>
      </trkpt>
      <trkpt lat="48.71147" lon="1.77961">
        <ele>170.60000610352</ele>
        <time>2015-03-06T11:30:38.000Z</time>
      </trkpt>
      <trkpt lat="48.71136" lon="1.7794">
        <ele>169.80000305176</ele>
        <time>2015-03-06T11:30:45.000Z</time>
      </trkpt>
      <trkpt lat="48.7113" lon="1.77925">
        <ele>169.80000305176</ele>
        <time>2015-03-06T11:30:49.000Z</time>
      </trkpt>
      <trkpt lat="48.71125" lon="1.77902">
        <ele>169.80000305176</ele>
        <time>2015-03-06T11:30:56.000Z</time>
      </trkpt>
      <trkpt lat="48.71121" lon="1.77886">
        <ele>169.80000305176</ele>
        <time>2015-03-06T11:31:01.000Z</time>
      </trkpt>
      <trkpt lat="48.71118" lon="1.77876">
        <ele>169.80000305176</ele>
        <time>2015-03-06T11:31:05.000Z</time>
      </trkpt>
      <trkpt lat="48.71116" lon="1.77859">
        <ele>170</ele>
        <time>2015-03-06T11:31:11.000Z</time>
      </trkpt>
      <trkpt lat="48.71111" lon="1.77839">
        <ele>170</ele>
        <time>2015-03-06T11:31:18.000Z</time>
      </trkpt>
      <trkpt lat="48.71112" lon="1.77827">
        <ele>170.19999694824</ele>
        <time>2015-03-06T11:31:23.000Z</time>
      </trkpt>
      <trkpt lat="48.71113" lon="1.77823">
        <ele>170</ele>
        <time>2015-03-06T11:31:25.000Z</time>
      </trkpt>
      <trkpt lat="48.71112" lon="1.77811">
        <ele>169.80000305176</ele>
        <time>2015-03-06T11:31:30.000Z</time>
      </trkpt>
      <trkpt lat="48.71108" lon="1.778">
        <ele>169.80000305176</ele>
        <time>2015-03-06T11:31:35.000Z</time>
      </trkpt>
      <trkpt lat="48.71103" lon="1.77782">
        <ele>169.60000610352</ele>
        <time>2015-03-06T11:31:41.000Z</time>
      </trkpt>
      <trkpt lat="48.711" lon="1.77773">
        <ele>169.60000610352</ele>
        <time>2015-03-06T11:31:45.000Z</time>
      </trkpt>
      <trkpt lat="48.71099" lon="1.77769">
        <ele>169.39999389648</ele>
        <time>2015-03-06T11:31:47.000Z</time>
      </trkpt>
      <trkpt lat="48.71091" lon="1.7775">
        <ele>169.39999389648</ele>
        <time>2015-03-06T11:31:55.000Z</time>
      </trkpt>
      <trkpt lat="48.71083" lon="1.77736">
        <ele>169.60000610352</ele>
        <time>2015-03-06T11:32:01.000Z</time>
      </trkpt>
      <trkpt lat="48.71077" lon="1.77721">
        <ele>169.80000305176</ele>
        <time>2015-03-06T11:32:08.000Z</time>
      </trkpt>
      <trkpt lat="48.71073" lon="1.77707">
        <ele>170</ele>
        <time>2015-03-06T11:32:14.000Z</time>
      </trkpt>
      <trkpt lat="48.71073" lon="1.77702">
        <ele>170.19999694824</ele>
        <time>2015-03-06T11:32:16.000Z</time>
      </trkpt>
      <trkpt lat="48.71067" lon="1.77686">
        <ele>170.60000610352</ele>
        <time>2015-03-06T11:32:23.000Z</time>
      </trkpt>
      <trkpt lat="48.71061" lon="1.77674">
        <ele>170.80000305176</ele>
        <time>2015-03-06T11:32:28.000Z</time>
      </trkpt>
      <trkpt lat="48.71053" lon="1.77655">
        <ele>171.19999694824</ele>
        <time>2015-03-06T11:32:36.000Z</time>
      </trkpt>
      <trkpt lat="48.71048" lon="1.77641">
        <ele>171.39999389648</ele>
        <time>2015-03-06T11:32:42.000Z</time>
      </trkpt>
      <trkpt lat="48.71041" lon="1.77624">
        <ele>171.60000610352</ele>
        <time>2015-03-06T11:32:48.000Z</time>
      </trkpt>
      <trkpt lat="48.71035" lon="1.77608">
        <ele>171.60000610352</ele>
        <time>2015-03-06T11:32:54.000Z</time>
      </trkpt>
      <trkpt lat="48.71031" lon="1.77597">
        <ele>171.80000305176</ele>
        <time>2015-03-06T11:32:58.000Z</time>
      </trkpt>
      <trkpt lat="48.71028" lon="1.77587">
        <ele>171.80000305176</ele>
        <time>2015-03-06T11:33:02.000Z</time>
      </trkpt>
      <trkpt lat="48.71027" lon="1.77584">
        <ele>171.80000305176</ele>
        <time>2015-03-06T11:33:03.000Z</time>
      </trkpt>
      <trkpt lat="48.7102" lon="1.77569">
        <ele>172</ele>
        <time>2015-03-06T11:33:09.000Z</time>
      </trkpt>
      <trkpt lat="48.71012" lon="1.7755">
        <ele>172.60000610352</ele>
        <time>2015-03-06T11:33:16.000Z</time>
      </trkpt>
      <trkpt lat="48.71007" lon="1.77538">
        <ele>172.80000305176</ele>
        <time>2015-03-06T11:33:20.000Z</time>
      </trkpt>
      <trkpt lat="48.71001" lon="1.77525">
        <ele>173.19999694824</ele>
        <time>2015-03-06T11:33:25.000Z</time>
      </trkpt>
      <trkpt lat="48.71" lon="1.77522">
        <ele>173.19999694824</ele>
        <time>2015-03-06T11:33:26.000Z</time>
      </trkpt>
      <trkpt lat="48.70993" lon="1.77505">
        <ele>173.60000610352</ele>
        <time>2015-03-06T11:33:32.000Z</time>
      </trkpt>
      <trkpt lat="48.70986" lon="1.77486">
        <ele>174</ele>
        <time>2015-03-06T11:33:40.000Z</time>
      </trkpt>
      <trkpt lat="48.70977" lon="1.7747">
        <ele>174.19999694824</ele>
        <time>2015-03-06T11:33:46.000Z</time>
      </trkpt>
      <trkpt lat="48.7097" lon="1.77456">
        <ele>174.39999389648</ele>
        <time>2015-03-06T11:33:53.000Z</time>
      </trkpt>
      <trkpt lat="48.70963" lon="1.77444">
        <ele>174.60000610352</ele>
        <time>2015-03-06T11:33:59.000Z</time>
      </trkpt>
      <trkpt lat="48.70953" lon="1.77425">
        <ele>174.80000305176</ele>
        <time>2015-03-06T11:34:08.000Z</time>
      </trkpt>
      <trkpt lat="48.70947" lon="1.77412">
        <ele>175</ele>
        <time>2015-03-06T11:34:14.000Z</time>
      </trkpt>
      <trkpt lat="48.70939" lon="1.77398">
        <ele>175.19999694824</ele>
        <time>2015-03-06T11:34:21.000Z</time>
      </trkpt>
      <trkpt lat="48.70928" lon="1.77376">
        <ele>176</ele>
        <time>2015-03-06T11:34:31.000Z</time>
      </trkpt>
      <trkpt lat="48.70919" lon="1.77363">
        <ele>176.19999694824</ele>
        <time>2015-03-06T11:34:38.000Z</time>
      </trkpt>
      <trkpt lat="48.7091" lon="1.77344">
        <ele>176.80000305176</ele>
        <time>2015-03-06T11:34:47.000Z</time>
      </trkpt>
      <trkpt lat="48.709" lon="1.77322">
        <ele>177.60000610352</ele>
        <time>2015-03-06T11:34:57.000Z</time>
      </trkpt>
      <trkpt lat="48.70894" lon="1.77304">
        <ele>177.19999694824</ele>
        <time>2015-03-06T11:35:05.000Z</time>
      </trkpt>
      <trkpt lat="48.70888" lon="1.77287">
        <ele>177</ele>
        <time>2015-03-06T11:35:12.000Z</time>
      </trkpt>
      <trkpt lat="48.70882" lon="1.77268">
        <ele>176.80000305176</ele>
        <time>2015-03-06T11:35:20.000Z</time>
      </trkpt>
      <trkpt lat="48.70877" lon="1.77254">
        <ele>176.39999389648</ele>
        <time>2015-03-06T11:35:27.000Z</time>
      </trkpt>
      <trkpt lat="48.70871" lon="1.77251">
        <ele>176.39999389648</ele>
        <time>2015-03-06T11:35:32.000Z</time>
      </trkpt>
      <trkpt lat="48.7086" lon="1.7725">
        <ele>176.19999694824</ele>
        <time>2015-03-06T11:35:39.000Z</time>
      </trkpt>
      <trkpt lat="48.7085" lon="1.77249">
        <ele>176.19999694824</ele>
        <time>2015-03-06T11:35:46.000Z</time>
      </trkpt>
      <trkpt lat="48.70841" lon="1.77248">
        <ele>176.19999694824</ele>
        <time>2015-03-06T11:35:52.000Z</time>
      </trkpt>
      <trkpt lat="48.70833" lon="1.77248">
        <ele>176.19999694824</ele>
        <time>2015-03-06T11:35:57.000Z</time>
      </trkpt>
      <trkpt lat="48.70822" lon="1.77246">
        <ele>176.19999694824</ele>
        <time>2015-03-06T11:36:04.000Z</time>
      </trkpt>
      <trkpt lat="48.70809" lon="1.77251">
        <ele>176.19999694824</ele>
        <time>2015-03-06T11:36:11.000Z</time>
      </trkpt>
      <trkpt lat="48.70796" lon="1.7725">
        <ele>176.19999694824</ele>
        <time>2015-03-06T11:36:19.000Z</time>
      </trkpt>
      <trkpt lat="48.70784" lon="1.77251">
        <ele>176.19999694824</ele>
        <time>2015-03-06T11:36:26.000Z</time>
      </trkpt>
      <trkpt lat="48.70775" lon="1.77253">
        <ele>176</ele>
        <time>2015-03-06T11:36:31.000Z</time>
      </trkpt>
      <trkpt lat="48.70764" lon="1.77254">
        <ele>176</ele>
        <time>2015-03-06T11:36:37.000Z</time>
      </trkpt>
      <trkpt lat="48.70755" lon="1.77255">
        <ele>176.19999694824</ele>
        <time>2015-03-06T11:36:43.000Z</time>
      </trkpt>
      <trkpt lat="48.70746" lon="1.77255">
        <ele>176.19999694824</ele>
        <time>2015-03-06T11:36:49.000Z</time>
      </trkpt>
      <trkpt lat="48.70745" lon="1.77255">
        <ele>176.39999389648</ele>
        <time>2015-03-06T11:36:50.000Z</time>
      </trkpt>
      <trkpt lat="48.70734" lon="1.77257">
        <ele>176.39999389648</ele>
        <time>2015-03-06T11:36:57.000Z</time>
      </trkpt>
      <trkpt lat="48.70728" lon="1.77256">
        <ele>176.60000610352</ele>
        <time>2015-03-06T11:37:02.000Z</time>
      </trkpt>
      <trkpt lat="48.70727" lon="1.77256">
        <ele>176.60000610352</ele>
        <time>2015-03-06T11:37:03.000Z</time>
      </trkpt>
      <trkpt lat="48.70717" lon="1.77255">
        <ele>176.60000610352</ele>
        <time>2015-03-06T11:37:09.000Z</time>
      </trkpt>
      <trkpt lat="48.70705" lon="1.77255">
        <ele>176.80000305176</ele>
        <time>2015-03-06T11:37:17.000Z</time>
      </trkpt>
      <trkpt lat="48.70692" lon="1.77254">
        <ele>177.19999694824</ele>
        <time>2015-03-06T11:37:25.000Z</time>
      </trkpt>
      <trkpt lat="48.7069" lon="1.77254">
        <ele>177.19999694824</ele>
        <time>2015-03-06T11:37:26.000Z</time>
      </trkpt>
      <trkpt lat="48.70683" lon="1.77254">
        <ele>177.60000610352</ele>
        <time>2015-03-06T11:37:30.000Z</time>
      </trkpt>
      <trkpt lat="48.70674" lon="1.77253">
        <ele>178</ele>
        <time>2015-03-06T11:37:37.000Z</time>
      </trkpt>
      <trkpt lat="48.70664" lon="1.77252">
        <ele>178.39999389648</ele>
        <time>2015-03-06T11:37:43.000Z</time>
      </trkpt>
      <trkpt lat="48.70654" lon="1.7725">
        <ele>178.80000305176</ele>
        <time>2015-03-06T11:37:49.000Z</time>
      </trkpt>
      <trkpt lat="48.70646" lon="1.77248">
        <ele>179.19999694824</ele>
        <time>2015-03-06T11:37:54.000Z</time>
      </trkpt>
      <trkpt lat="48.70636" lon="1.77246">
        <ele>179.60000610352</ele>
        <time>2015-03-06T11:38:01.000Z</time>
      </trkpt>
      <trkpt lat="48.70624" lon="1.77243">
        <ele>180.19999694824</ele>
        <time>2015-03-06T11:38:09.000Z</time>
      </trkpt>
      <trkpt lat="48.70615" lon="1.77244">
        <ele>180.60000610352</ele>
        <time>2015-03-06T11:38:14.000Z</time>
      </trkpt>
      <trkpt lat="48.70607" lon="1.77243">
        <ele>181</ele>
        <time>2015-03-06T11:38:19.000Z</time>
      </trkpt>
      <trkpt lat="48.70597" lon="1.77241">
        <ele>181</ele>
        <time>2015-03-06T11:38:25.000Z</time>
      </trkpt>
      <trkpt lat="48.70596" lon="1.77241">
        <ele>181</ele>
        <time>2015-03-06T11:38:26.000Z</time>
      </trkpt>
      <trkpt lat="48.70591" lon="1.7724">
        <ele>181.19999694824</ele>
        <time>2015-03-06T11:38:29.000Z</time>
      </trkpt>
      <trkpt lat="48.70579" lon="1.77239">
        <ele>181.19999694824</ele>
        <time>2015-03-06T11:38:37.000Z</time>
      </trkpt>
      <trkpt lat="48.70571" lon="1.7724">
        <ele>181.39999389648</ele>
        <time>2015-03-06T11:38:41.000Z</time>
      </trkpt>
      <trkpt lat="48.70558" lon="1.77239">
        <ele>181.60000610352</ele>
        <time>2015-03-06T11:38:48.000Z</time>
      </trkpt>
      <trkpt lat="48.70553" lon="1.77238">
        <ele>181.60000610352</ele>
        <time>2015-03-06T11:38:51.000Z</time>
      </trkpt>
      <trkpt lat="48.70541" lon="1.77238">
        <ele>181.80000305176</ele>
        <time>2015-03-06T11:38:59.000Z</time>
      </trkpt>
      <trkpt lat="48.70536" lon="1.77237">
        <ele>181.80000305176</ele>
        <time>2015-03-06T11:39:03.000Z</time>
      </trkpt>
      <trkpt lat="48.70522" lon="1.77238">
        <ele>182</ele>
        <time>2015-03-06T11:39:10.000Z</time>
      </trkpt>
      <trkpt lat="48.70512" lon="1.77239">
        <ele>182</ele>
        <time>2015-03-06T11:39:16.000Z</time>
      </trkpt>
      <trkpt lat="48.705" lon="1.77236">
        <ele>181.80000305176</ele>
        <time>2015-03-06T11:39:24.000Z</time>
      </trkpt>
      <trkpt lat="48.70487" lon="1.77234">
        <ele>181.60000610352</ele>
        <time>2015-03-06T11:39:31.000Z</time>
      </trkpt>
      <trkpt lat="48.70479" lon="1.77233">
        <ele>181.39999389648</ele>
        <time>2015-03-06T11:39:36.000Z</time>
      </trkpt>
      <trkpt lat="48.70468" lon="1.77232">
        <ele>181.19999694824</ele>
        <time>2015-03-06T11:39:43.000Z</time>
      </trkpt>
      <trkpt lat="48.70459" lon="1.77231">
        <ele>181</ele>
        <time>2015-03-06T11:39:49.000Z</time>
      </trkpt>
      <trkpt lat="48.70444" lon="1.77239">
        <ele>181.19999694824</ele>
        <time>2015-03-06T11:39:56.000Z</time>
      </trkpt>
      <trkpt lat="48.70425" lon="1.7725">
        <ele>181.19999694824</ele>
        <time>2015-03-06T11:40:06.000Z</time>
      </trkpt>
      <trkpt lat="48.70414" lon="1.77259">
        <ele>181.19999694824</ele>
        <time>2015-03-06T11:40:13.000Z</time>
      </trkpt>
      <trkpt lat="48.70407" lon="1.77266">
        <ele>181.39999389648</ele>
        <time>2015-03-06T11:40:19.000Z</time>
      </trkpt>
      <trkpt lat="48.70396" lon="1.77272">
        <ele>181.39999389648</ele>
        <time>2015-03-06T11:40:26.000Z</time>
      </trkpt>
      <trkpt lat="48.70395" lon="1.77274">
        <ele>181.39999389648</ele>
        <time>2015-03-06T11:40:27.000Z</time>
      </trkpt>
      <trkpt lat="48.70389" lon="1.77278">
        <ele>181.39999389648</ele>
        <time>2015-03-06T11:40:31.000Z</time>
      </trkpt>
      <trkpt lat="48.70382" lon="1.77286">
        <ele>181.19999694824</ele>
        <time>2015-03-06T11:40:37.000Z</time>
      </trkpt>
      <trkpt lat="48.70375" lon="1.77288">
        <ele>181.19999694824</ele>
        <time>2015-03-06T11:40:42.000Z</time>
      </trkpt>
      <trkpt lat="48.70371" lon="1.77284">
        <ele>181</ele>
        <time>2015-03-06T11:40:46.000Z</time>
      </trkpt>
      <trkpt lat="48.7037" lon="1.77284">
        <ele>181</ele>
        <time>2015-03-06T11:40:49.000Z</time>
      </trkpt>
      <trkpt lat="48.70362" lon="1.77284">
        <ele>180.80000305176</ele>
        <time>2015-03-06T11:41:02.000Z</time>
      </trkpt>
      <trkpt lat="48.70358" lon="1.7728">
        <ele>180.60000610352</ele>
        <time>2015-03-06T11:41:06.000Z</time>
      </trkpt>
      <trkpt lat="48.70357" lon="1.77279">
        <ele>180.60000610352</ele>
        <time>2015-03-06T11:41:09.000Z</time>
      </trkpt>
      <trkpt lat="48.70361" lon="1.77293">
        <ele>180.80000305176</ele>
        <time>2015-03-06T11:42:23.000Z</time>
      </trkpt>
      <trkpt lat="48.70365" lon="1.77296">
        <ele>181</ele>
        <time>2015-03-06T11:42:27.000Z</time>
      </trkpt>
      <trkpt lat="48.70366" lon="1.77295">
        <ele>181</ele>
        <time>2015-03-06T11:42:30.000Z</time>
      </trkpt>
      <trkpt lat="48.70369" lon="1.77287">
        <ele>181</ele>
        <time>2015-03-06T11:42:40.000Z</time>
      </trkpt>
      <trkpt lat="48.7037" lon="1.77285">
        <ele>181</ele>
        <time>2015-03-06T11:42:43.000Z</time>
      </trkpt>
      <trkpt lat="48.70365" lon="1.77263">
        <ele>180.60000610352</ele>
        <time>2015-03-06T11:43:27.000Z</time>
      </trkpt>
      <trkpt lat="48.70365" lon="1.77254">
        <ele>180.39999389648</ele>
        <time>2015-03-06T11:43:31.000Z</time>
      </trkpt>
      <trkpt lat="48.70364" lon="1.77247">
        <ele>180.39999389648</ele>
        <time>2015-03-06T11:43:36.000Z</time>
      </trkpt>
      <trkpt lat="48.70363" lon="1.77246">
        <ele>180.39999389648</ele>
        <time>2015-03-06T11:43:41.000Z</time>
      </trkpt>
      <trkpt lat="48.70362" lon="1.77239">
        <ele>180.19999694824</ele>
        <time>2015-03-06T11:43:51.000Z</time>
      </trkpt>
      <trkpt lat="48.70361" lon="1.7722">
        <ele>180.60000610352</ele>
        <time>2015-03-06T11:43:59.000Z</time>
      </trkpt>
      <trkpt lat="48.70359" lon="1.77207">
        <ele>180.80000305176</ele>
        <time>2015-03-06T11:44:04.000Z</time>
      </trkpt>
      <trkpt lat="48.70357" lon="1.77193">
        <ele>181.19999694824</ele>
        <time>2015-03-06T11:44:10.000Z</time>
      </trkpt>
      <trkpt lat="48.70356" lon="1.77177">
        <ele>181.39999389648</ele>
        <time>2015-03-06T11:44:17.000Z</time>
      </trkpt>
      <trkpt lat="48.70355" lon="1.7717">
        <ele>181.60000610352</ele>
        <time>2015-03-06T11:44:20.000Z</time>
      </trkpt>
      <trkpt lat="48.70354" lon="1.77157">
        <ele>182</ele>
        <time>2015-03-06T11:44:26.000Z</time>
      </trkpt>
      <trkpt lat="48.70353" lon="1.77146">
        <ele>182</ele>
        <time>2015-03-06T11:44:30.000Z</time>
      </trkpt>
      <trkpt lat="48.70354" lon="1.77142">
        <ele>182</ele>
        <time>2015-03-06T11:44:37.000Z</time>
      </trkpt>
      <trkpt lat="48.70353" lon="1.7713">
        <ele>182</ele>
        <time>2015-03-06T11:45:29.000Z</time>
      </trkpt>
      <trkpt lat="48.70352" lon="1.77123">
        <ele>182</ele>
        <time>2015-03-06T11:45:31.000Z</time>
      </trkpt>
      <trkpt lat="48.7035" lon="1.77109">
        <ele>182</ele>
        <time>2015-03-06T11:45:38.000Z</time>
      </trkpt>
      <trkpt lat="48.70349" lon="1.77093">
        <ele>182.19999694824</ele>
        <time>2015-03-06T11:45:45.000Z</time>
      </trkpt>
      <trkpt lat="48.70349" lon="1.77087">
        <ele>182.19999694824</ele>
        <time>2015-03-06T11:45:47.000Z</time>
      </trkpt>
      <trkpt lat="48.70345" lon="1.77067">
        <ele>182.19999694824</ele>
        <time>2015-03-06T11:45:52.000Z</time>
      </trkpt>
      <trkpt lat="48.70345" lon="1.77063">
        <ele>182.19999694824</ele>
        <time>2015-03-06T11:45:54.000Z</time>
      </trkpt>
      <trkpt lat="48.70345" lon="1.77053">
        <ele>182</ele>
        <time>2015-03-06T11:45:59.000Z</time>
      </trkpt>
      <trkpt lat="48.70344" lon="1.77041">
        <ele>182.19999694824</ele>
        <time>2015-03-06T11:46:04.000Z</time>
      </trkpt>
      <trkpt lat="48.70344" lon="1.77036">
        <ele>182.19999694824</ele>
        <time>2015-03-06T11:46:06.000Z</time>
      </trkpt>
      <trkpt lat="48.70342" lon="1.77011">
        <ele>182.19999694824</ele>
        <time>2015-03-06T11:46:15.000Z</time>
      </trkpt>
      <trkpt lat="48.70342" lon="1.76997">
        <ele>182.19999694824</ele>
        <time>2015-03-06T11:46:21.000Z</time>
      </trkpt>
      <trkpt lat="48.7034" lon="1.76974">
        <ele>181.80000305176</ele>
        <time>2015-03-06T11:46:31.000Z</time>
      </trkpt>
      <trkpt lat="48.70342" lon="1.7697">
        <ele>181.80000305176</ele>
        <time>2015-03-06T11:46:35.000Z</time>
      </trkpt>
      <trkpt lat="48.7034" lon="1.7696">
        <ele>181.39999389648</ele>
        <time>2015-03-06T11:46:44.000Z</time>
      </trkpt>
      <trkpt lat="48.70336" lon="1.76937">
        <ele>181</ele>
        <time>2015-03-06T11:46:51.000Z</time>
      </trkpt>
      <trkpt lat="48.70335" lon="1.76917">
        <ele>180.60000610352</ele>
        <time>2015-03-06T11:46:59.000Z</time>
      </trkpt>
      <trkpt lat="48.70335" lon="1.76894">
        <ele>180</ele>
        <time>2015-03-06T11:47:08.000Z</time>
      </trkpt>
      <trkpt lat="48.70334" lon="1.7687">
        <ele>179.60000610352</ele>
        <time>2015-03-06T11:47:17.000Z</time>
      </trkpt>
      <trkpt lat="48.70333" lon="1.76851">
        <ele>179.39999389648</ele>
        <time>2015-03-06T11:47:24.000Z</time>
      </trkpt>
      <trkpt lat="48.70333" lon="1.76841">
        <ele>179.19999694824</ele>
        <time>2015-03-06T11:47:28.000Z</time>
      </trkpt>
      <trkpt lat="48.70333" lon="1.76831">
        <ele>179.19999694824</ele>
        <time>2015-03-06T11:47:32.000Z</time>
      </trkpt>
      <trkpt lat="48.70333" lon="1.76804">
        <ele>179.19999694824</ele>
        <time>2015-03-06T11:47:43.000Z</time>
      </trkpt>
      <trkpt lat="48.70333" lon="1.76792">
        <ele>179.19999694824</ele>
        <time>2015-03-06T11:47:48.000Z</time>
      </trkpt>
      <trkpt lat="48.70331" lon="1.76783">
        <ele>179</ele>
        <time>2015-03-06T11:47:52.000Z</time>
      </trkpt>
      <trkpt lat="48.7033" lon="1.76775">
        <ele>179</ele>
        <time>2015-03-06T11:47:55.000Z</time>
      </trkpt>
      <trkpt lat="48.7033" lon="1.76755">
        <ele>178.80000305176</ele>
        <time>2015-03-06T11:48:03.000Z</time>
      </trkpt>
      <trkpt lat="48.7033" lon="1.7675">
        <ele>178.60000610352</ele>
        <time>2015-03-06T11:48:05.000Z</time>
      </trkpt>
      <trkpt lat="48.70329" lon="1.76737">
        <ele>178.60000610352</ele>
        <time>2015-03-06T11:48:10.000Z</time>
      </trkpt>
      <trkpt lat="48.70329" lon="1.76713">
        <ele>178.60000610352</ele>
        <time>2015-03-06T11:48:20.000Z</time>
      </trkpt>
      <trkpt lat="48.70328" lon="1.76699">
        <ele>178.60000610352</ele>
        <time>2015-03-06T11:48:25.000Z</time>
      </trkpt>
      <trkpt lat="48.70328" lon="1.76681">
        <ele>178.60000610352</ele>
        <time>2015-03-06T11:48:33.000Z</time>
      </trkpt>
      <trkpt lat="48.70327" lon="1.76668">
        <ele>178.60000610352</ele>
        <time>2015-03-06T11:48:38.000Z</time>
      </trkpt>
      <trkpt lat="48.70328" lon="1.76651">
        <ele>178.60000610352</ele>
        <time>2015-03-06T11:48:45.000Z</time>
      </trkpt>
      <trkpt lat="48.70329" lon="1.76646">
        <ele>178.60000610352</ele>
        <time>2015-03-06T11:48:47.000Z</time>
      </trkpt>
      <trkpt lat="48.70337" lon="1.76635">
        <ele>178.39999389648</ele>
        <time>2015-03-06T11:48:54.000Z</time>
      </trkpt>
      <trkpt lat="48.70338" lon="1.76633">
        <ele>178.39999389648</ele>
        <time>2015-03-06T11:48:56.000Z</time>
      </trkpt>
      <trkpt lat="48.70349" lon="1.76626">
        <ele>178.19999694824</ele>
        <time>2015-03-06T11:49:03.000Z</time>
      </trkpt>
      <trkpt lat="48.70358" lon="1.7662">
        <ele>178.19999694824</ele>
        <time>2015-03-06T11:49:10.000Z</time>
      </trkpt>
      <trkpt lat="48.70368" lon="1.76615">
        <ele>178.39999389648</ele>
        <time>2015-03-06T11:49:15.000Z</time>
      </trkpt>
      <trkpt lat="48.70375" lon="1.76611">
        <ele>178.60000610352</ele>
        <time>2015-03-06T11:49:19.000Z</time>
      </trkpt>
      <trkpt lat="48.70386" lon="1.76606">
        <ele>178.80000305176</ele>
        <time>2015-03-06T11:49:26.000Z</time>
      </trkpt>
      <trkpt lat="48.70397" lon="1.76601">
        <ele>179.19999694824</ele>
        <time>2015-03-06T11:49:33.000Z</time>
      </trkpt>
      <trkpt lat="48.70406" lon="1.76596">
        <ele>179.60000610352</ele>
        <time>2015-03-06T11:49:38.000Z</time>
      </trkpt>
      <trkpt lat="48.70414" lon="1.7659">
        <ele>180</ele>
        <time>2015-03-06T11:49:44.000Z</time>
      </trkpt>
      <trkpt lat="48.70422" lon="1.76585">
        <ele>180.19999694824</ele>
        <time>2015-03-06T11:49:50.000Z</time>
      </trkpt>
      <trkpt lat="48.7043" lon="1.76579">
        <ele>180.60000610352</ele>
        <time>2015-03-06T11:49:56.000Z</time>
      </trkpt>
      <trkpt lat="48.70432" lon="1.76577">
        <ele>180.80000305176</ele>
        <time>2015-03-06T11:49:58.000Z</time>
      </trkpt>
      <trkpt lat="48.70435" lon="1.76569">
        <ele>181</ele>
        <time>2015-03-06T11:50:02.000Z</time>
      </trkpt>
      <trkpt lat="48.70439" lon="1.76553">
        <ele>181.19999694824</ele>
        <time>2015-03-06T11:50:09.000Z</time>
      </trkpt>
      <trkpt lat="48.70442" lon="1.7654">
        <ele>181.19999694824</ele>
        <time>2015-03-06T11:50:15.000Z</time>
      </trkpt>
      <trkpt lat="48.70448" lon="1.76516">
        <ele>181.19999694824</ele>
        <time>2015-03-06T11:50:25.000Z</time>
      </trkpt>
      <trkpt lat="48.70449" lon="1.76509">
        <ele>181.19999694824</ele>
        <time>2015-03-06T11:50:28.000Z</time>
      </trkpt>
      <trkpt lat="48.70453" lon="1.76496">
        <ele>181</ele>
        <time>2015-03-06T11:50:34.000Z</time>
      </trkpt>
      <trkpt lat="48.70456" lon="1.76481">
        <ele>180.19999694824</ele>
        <time>2015-03-06T11:50:40.000Z</time>
      </trkpt>
      <trkpt lat="48.70458" lon="1.76463">
        <ele>179.19999694824</ele>
        <time>2015-03-06T11:50:48.000Z</time>
      </trkpt>
      <trkpt lat="48.70461" lon="1.76448">
        <ele>178.39999389648</ele>
        <time>2015-03-06T11:50:54.000Z</time>
      </trkpt>
      <trkpt lat="48.70461" lon="1.76446">
        <ele>178.19999694824</ele>
        <time>2015-03-06T11:50:55.000Z</time>
      </trkpt>
      <trkpt lat="48.70467" lon="1.76433">
        <ele>177.19999694824</ele>
        <time>2015-03-06T11:51:02.000Z</time>
      </trkpt>
      <trkpt lat="48.70467" lon="1.76419">
        <ele>177</ele>
        <time>2015-03-06T11:51:08.000Z</time>
      </trkpt>
      <trkpt lat="48.70464" lon="1.76406">
        <ele>177</ele>
        <time>2015-03-06T11:51:13.000Z</time>
      </trkpt>
      <trkpt lat="48.70461" lon="1.76397">
        <ele>176.80000305176</ele>
        <time>2015-03-06T11:51:17.000Z</time>
      </trkpt>
      <trkpt lat="48.70461" lon="1.76393">
        <ele>176.60000610352</ele>
        <time>2015-03-06T11:51:19.000Z</time>
      </trkpt>
      <trkpt lat="48.70461" lon="1.76379">
        <ele>176</ele>
        <time>2015-03-06T11:51:26.000Z</time>
      </trkpt>
      <trkpt lat="48.70459" lon="1.76373">
        <ele>175.60000610352</ele>
        <time>2015-03-06T11:51:28.000Z</time>
      </trkpt>
      <trkpt lat="48.70458" lon="1.76367">
        <ele>175.39999389648</ele>
        <time>2015-03-06T11:51:30.000Z</time>
      </trkpt>
      <trkpt lat="48.70455" lon="1.7635">
        <ele>174.80000305176</ele>
        <time>2015-03-06T11:51:37.000Z</time>
      </trkpt>
      <trkpt lat="48.70452" lon="1.76337">
        <ele>174.19999694824</ele>
        <time>2015-03-06T11:51:42.000Z</time>
      </trkpt>
      <trkpt lat="48.70454" lon="1.76324">
        <ele>173.60000610352</ele>
        <time>2015-03-06T11:51:47.000Z</time>
      </trkpt>
      <trkpt lat="48.70451" lon="1.7631">
        <ele>173.39999389648</ele>
        <time>2015-03-06T11:51:52.000Z</time>
      </trkpt>
      <trkpt lat="48.70452" lon="1.76293">
        <ele>173.39999389648</ele>
        <time>2015-03-06T11:51:58.000Z</time>
      </trkpt>
      <trkpt lat="48.70453" lon="1.76289">
        <ele>173.39999389648</ele>
        <time>2015-03-06T11:52:00.000Z</time>
      </trkpt>
      <trkpt lat="48.70458" lon="1.76272">
        <ele>173.19999694824</ele>
        <time>2015-03-06T11:52:08.000Z</time>
      </trkpt>
      <trkpt lat="48.70463" lon="1.76257">
        <ele>172.80000305176</ele>
        <time>2015-03-06T11:52:15.000Z</time>
      </trkpt>
      <trkpt lat="48.70463" lon="1.7624">
        <ele>172.60000610352</ele>
        <time>2015-03-06T11:52:21.000Z</time>
      </trkpt>
      <trkpt lat="48.70459" lon="1.76222">
        <ele>173</ele>
        <time>2015-03-06T11:52:27.000Z</time>
      </trkpt>
      <trkpt lat="48.70458" lon="1.76215">
        <ele>173.19999694824</ele>
        <time>2015-03-06T11:52:30.000Z</time>
      </trkpt>
      <trkpt lat="48.70458" lon="1.76204">
        <ele>173.60000610352</ele>
        <time>2015-03-06T11:52:35.000Z</time>
      </trkpt>
      <trkpt lat="48.70462" lon="1.76189">
        <ele>173.60000610352</ele>
        <time>2015-03-06T11:52:43.000Z</time>
      </trkpt>
      <trkpt lat="48.70456" lon="1.76171">
        <ele>174.39999389648</ele>
        <time>2015-03-06T11:52:49.000Z</time>
      </trkpt>
      <trkpt lat="48.70456" lon="1.76156">
        <ele>175</ele>
        <time>2015-03-06T11:52:54.000Z</time>
      </trkpt>
      <trkpt lat="48.70461" lon="1.76142">
        <ele>175</ele>
        <time>2015-03-06T11:53:01.000Z</time>
      </trkpt>
      <trkpt lat="48.70463" lon="1.76129">
        <ele>175</ele>
        <time>2015-03-06T11:53:06.000Z</time>
      </trkpt>
      <trkpt lat="48.70465" lon="1.76117">
        <ele>175</ele>
        <time>2015-03-06T11:53:11.000Z</time>
      </trkpt>
      <trkpt lat="48.70465" lon="1.7611">
        <ele>175.19999694824</ele>
        <time>2015-03-06T11:53:14.000Z</time>
      </trkpt>
      <trkpt lat="48.70469" lon="1.76093">
        <ele>175.19999694824</ele>
        <time>2015-03-06T11:53:21.000Z</time>
      </trkpt>
      <trkpt lat="48.70471" lon="1.7608">
        <ele>175.19999694824</ele>
        <time>2015-03-06T11:53:26.000Z</time>
      </trkpt>
      <trkpt lat="48.70472" lon="1.76078">
        <ele>175.19999694824</ele>
        <time>2015-03-06T11:53:27.000Z</time>
      </trkpt>
      <trkpt lat="48.70476" lon="1.76073">
        <ele>175.19999694824</ele>
        <time>2015-03-06T11:53:30.000Z</time>
      </trkpt>
      <trkpt lat="48.70476" lon="1.76058">
        <ele>175.80000305176</ele>
        <time>2015-03-06T11:53:35.000Z</time>
      </trkpt>
      <trkpt lat="48.70476" lon="1.76034">
        <ele>176.80000305176</ele>
        <time>2015-03-06T11:53:44.000Z</time>
      </trkpt>
      <trkpt lat="48.70482" lon="1.76016">
        <ele>177.60000610352</ele>
        <time>2015-03-06T11:53:52.000Z</time>
      </trkpt>
      <trkpt lat="48.70488" lon="1.75998">
        <ele>178.60000610352</ele>
        <time>2015-03-06T11:54:00.000Z</time>
      </trkpt>
      <trkpt lat="48.70493" lon="1.75981">
        <ele>179</ele>
        <time>2015-03-06T11:54:07.000Z</time>
      </trkpt>
      <trkpt lat="48.70497" lon="1.75969">
        <ele>179</ele>
        <time>2015-03-06T11:54:12.000Z</time>
      </trkpt>
      <trkpt lat="48.70505" lon="1.75954">
        <ele>179.60000610352</ele>
        <time>2015-03-06T11:54:20.000Z</time>
      </trkpt>
      <trkpt lat="48.70514" lon="1.75944">
        <ele>180</ele>
        <time>2015-03-06T11:54:27.000Z</time>
      </trkpt>
      <trkpt lat="48.70519" lon="1.75938">
        <ele>180.39999389648</ele>
        <time>2015-03-06T11:54:31.000Z</time>
      </trkpt>
      <trkpt lat="48.70527" lon="1.7593">
        <ele>180.39999389648</ele>
        <time>2015-03-06T11:54:37.000Z</time>
      </trkpt>
      <trkpt lat="48.70535" lon="1.75922">
        <ele>180.19999694824</ele>
        <time>2015-03-06T11:54:42.000Z</time>
      </trkpt>
      <trkpt lat="48.70544" lon="1.75912">
        <ele>180</ele>
        <time>2015-03-06T11:54:48.000Z</time>
      </trkpt>
      <trkpt lat="48.70545" lon="1.75909">
        <ele>180</ele>
        <time>2015-03-06T11:54:49.000Z</time>
      </trkpt>
      <trkpt lat="48.7055" lon="1.75895">
        <ele>180</ele>
        <time>2015-03-06T11:54:56.000Z</time>
      </trkpt>
      <trkpt lat="48.70553" lon="1.75879">
        <ele>180.19999694824</ele>
        <time>2015-03-06T11:55:03.000Z</time>
      </trkpt>
      <trkpt lat="48.70559" lon="1.75861">
        <ele>180.19999694824</ele>
        <time>2015-03-06T11:55:11.000Z</time>
      </trkpt>
      <trkpt lat="48.70562" lon="1.75855">
        <ele>179.80000305176</ele>
        <time>2015-03-06T11:55:14.000Z</time>
      </trkpt>
      <trkpt lat="48.70567" lon="1.75845">
        <ele>179.19999694824</ele>
        <time>2015-03-06T11:55:20.000Z</time>
      </trkpt>
      <trkpt lat="48.70574" lon="1.75833">
        <ele>178.19999694824</ele>
        <time>2015-03-06T11:55:26.000Z</time>
      </trkpt>
      <trkpt lat="48.70582" lon="1.75825">
        <ele>177.39999389648</ele>
        <time>2015-03-06T11:55:31.000Z</time>
      </trkpt>
      <trkpt lat="48.70583" lon="1.75824">
        <ele>177.19999694824</ele>
        <time>2015-03-06T11:55:32.000Z</time>
      </trkpt>
      <trkpt lat="48.70584" lon="1.75813">
        <ele>177.19999694824</ele>
        <time>2015-03-06T11:55:36.000Z</time>
      </trkpt>
      <trkpt lat="48.70588" lon="1.75792">
        <ele>177.39999389648</ele>
        <time>2015-03-06T11:55:46.000Z</time>
      </trkpt>
      <trkpt lat="48.70593" lon="1.75777">
        <ele>177.80000305176</ele>
        <time>2015-03-06T11:55:53.000Z</time>
      </trkpt>
      <trkpt lat="48.70602" lon="1.75765">
        <ele>177.80000305176</ele>
        <time>2015-03-06T11:56:00.000Z</time>
      </trkpt>
      <trkpt lat="48.70609" lon="1.75754">
        <ele>178</ele>
        <time>2015-03-06T11:56:06.000Z</time>
      </trkpt>
      <trkpt lat="48.70615" lon="1.75745">
        <ele>178.19999694824</ele>
        <time>2015-03-06T11:56:12.000Z</time>
      </trkpt>
      <trkpt lat="48.70623" lon="1.75735">
        <ele>178</ele>
        <time>2015-03-06T11:56:18.000Z</time>
      </trkpt>
      <trkpt lat="48.70628" lon="1.75723">
        <ele>178.60000610352</ele>
        <time>2015-03-06T11:56:24.000Z</time>
      </trkpt>
      <trkpt lat="48.7063" lon="1.75713">
        <ele>179.19999694824</ele>
        <time>2015-03-06T11:56:30.000Z</time>
      </trkpt>
      <trkpt lat="48.7063" lon="1.75712">
        <ele>179.19999694824</ele>
        <time>2015-03-06T11:56:32.000Z</time>
      </trkpt>
      <trkpt lat="48.70632" lon="1.75704">
        <ele>179.60000610352</ele>
        <time>2015-03-06T11:57:22.000Z</time>
      </trkpt>
      <trkpt lat="48.70634" lon="1.75702">
        <ele>179.80000305176</ele>
        <time>2015-03-06T11:57:24.000Z</time>
      </trkpt>
      <trkpt lat="48.70637" lon="1.75693">
        <ele>180.19999694824</ele>
        <time>2015-03-06T11:57:30.000Z</time>
      </trkpt>
      <trkpt lat="48.70637" lon="1.75688">
        <ele>180.60000610352</ele>
        <time>2015-03-06T11:57:32.000Z</time>
      </trkpt>
      <trkpt lat="48.70638" lon="1.75686">
        <ele>180.39999389648</ele>
        <time>2015-03-06T11:57:34.000Z</time>
      </trkpt>
      <trkpt lat="48.7064" lon="1.75685">
        <ele>180.19999694824</ele>
        <time>2015-03-06T11:57:37.000Z</time>
      </trkpt>
      <trkpt lat="48.70642" lon="1.75657">
        <ele>180.39999389648</ele>
        <time>2015-03-06T11:59:36.000Z</time>
      </trkpt>
      <trkpt lat="48.7064" lon="1.75654">
        <ele>180.60000610352</ele>
        <time>2015-03-06T11:59:37.000Z</time>
      </trkpt>
      <trkpt lat="48.7064" lon="1.75649">
        <ele>180.39999389648</ele>
        <time>2015-03-06T11:59:39.000Z</time>
      </trkpt>
      <trkpt lat="48.7064" lon="1.7564">
        <ele>180.19999694824</ele>
        <time>2015-03-06T11:59:44.000Z</time>
      </trkpt>
      <trkpt lat="48.70641" lon="1.75636">
        <ele>180</ele>
        <time>2015-03-06T11:59:49.000Z</time>
      </trkpt>
    </trkseg>
  </trk>
</gpx>